GFSSE_925_thetae_000.txt.gz
Theta_e
329 327 331 336 338 339 342 343 343 343 343 340 337 333 331 332 332 335 335 333 330 327 327 327 327 325 328 332 331 328 325 325 328 330 328 327 327 330 332 333 335 337 336
327 324 325 330 335 337 340 342 342 342 342 341 338 334 332 329 329 326 325 324 325 325 326 324 324 326 326 331 331 331 329 328 326 326 328 329 328 330 331 338 338 333 332
334 323 321 324 331 335 337 340 338 340 340 339 339 338 336 333 331 330 328 330 328 323 324 323 326 331 331 332 331 330 329 329 327 326 327 329 331 330 328 335 338 335 333
335 325 320 320 323 328 332 334 336 336 334 333 336 336 336 336 336 334 334 332 328 323 323 325 325 329 324 324 327 330 330 330 328 327 327 328 335 333 330 326 332 334 333
333 327 324 321 319 319 320 323 325 328 331 332 332 333 335 335 333 333 331 329 322 325 327 328 327 329 325 325 324 322 330 329 329 329 328 331 334 335 334 326 331 334 332
332 328 326 323 321 319 319 319 319 320 321 323 326 330 332 333 333 332 330 327 326 326 327 331 329 329 325 324 324 326 331 331 331 331 329 332 335 333 333 329 325 333 331
332 329 328 326 325 323 322 321 321 322 323 325 326 326 330 330 331 330 325 328 327 327 329 330 330 330 328 325 325 324 326 324 330 332 331 333 335 334 332 330 323 331 332
332 332 332 330 328 325 324 325 324 324 324 324 325 325 323 326 328 330 330 330 331 329 326 323 323 326 326 323 323 325 325 325 328 333 333 334 334 332 332 331 327 324 330
337 336 334 334 332 330 324 322 323 324 325 325 326 326 326 324 324 325 327 328 328 327 326 326 326 325 327 327 327 327 328 327 328 331 331 332 333 332 332 331 330 325 328
339 338 336 335 334 331 327 327 324 324 325 325 325 325 326 326 325 324 323 323 323 325 326 327 329 330 329 328 328 326 324 326 328 329 331 331 332 330 331 330 330 327 330
338 339 338 337 335 333 330 330 330 329 328 328 325 325 327 327 324 324 323 323 322 321 322 323 325 325 325 325 325 325 325 324 325 324 326 327 328 330 332 330 330 329 327
335 333 330 333 335 333 333 330 331 330 329 329 328 328 328 327 324 324 321 320 318 317 317 319 318 319 322 322 321 321 323 325 325 323 323 326 328 328 330 331 330 329 328
326 324 322 320 320 330 329 329 332 329 329 329 329 327 327 326 323 322 322 321 319 316 316 316 315 316 317 317 317 318 318 319 324 323 320 323 326 327 329 328 327 327 327
322 321 320 319 324 329 329 331 331 329 330 328 327 326 323 321 318 318 320 319 320 317 317 317 319 319 318 317 318 317 315 316 317 318 319 320 322 324 326 329 328 327 326
320 319 319 318 318 327 327 330 329 329 328 326 323 321 321 321 321 319 319 319 319 318 317 317 318 319 320 320 321 320 320 320 320 318 317 317 317 319 323 327 329 329 329
319 318 318 317 316 319 324 324 323 321 319 317 317 316 317 320 320 320 321 320 317 315 313 309 307 307 307 309 311 313 315 317 317 319 321 319 320 319 318 319 322 326 327
317 317 317 316 317 318 320 323 322 320 317 314 314 313 314 317 317 317 316 316 316 312 310 309 305 304 304 304 304 303 304 308 307 305 306 309 316 321 322 321 318 321 321
316 316 316 314 316 317 316 320 319 316 314 312 311 311 312 312 312 311 311 311 311 308 307 305 304 304 304 304 304 303 304 304 303 303 302 303 305 309 320 323 321 319 321
315 315 313 313 313 312 312 314 315 313 313 310 310 311 312 312 309 310 311 311 309 305 305 305 305 304 304 304 304 303 303 303 303 302 303 305 305 305 314 317 316 321 321
313 313 312 311 311 310 309 311 311 310 310 310 309 311 312 312 309 307 308 308 307 306 305 305 305 304 304 304 304 303 303 303 303 303 303 304 303 309 309 311 315 317 317
312 312 312 311 311 310 309 309 309 309 308 308 308 309 313 310 310 307 306 306 307 306 305 305 305 304 304 304 304 304 304 303 303 303 304 303 304 304 304 309 305 307 315
312 312 312 311 311 310 309 309 309 309 308 308 307 307 308 310 310 308 307 305 306 306 305 304 304 305 304 303 304 302 301 302 302 304 303 304 304 304 304 304 305 305 306
313 313 313 313 312 312 311 310 309 308 307 307 307 307 306 307 309 308 307 306 305 304 304 304 303 303 303 302 302 303 301 301 302 303 303 304 304 304 305 305 305 305 307
313 313 313 313 313 312 311 310 309 309 307 308 308 307 307 307 308 307 306 305 305 304 303 303 301 301 300 299 298 300 299 300 300 301 301 302 301 302 303 304 304 303 305
313 313 313 313 313 312 312 311 311 310 309 309 308 307 307 306 306 306 306 305 305 303 302 301 300 297 295 295 295 294 294 295 298 299 298 298 298 300 301 301 301 302 302
314 314 314 313 313 312 312 312 312 311 311 309 309 307 306 305 305 306 305 305 302 300 300 300 298 296 296 296 297 297 294 296 296 297 296 296 296 297 297 298 299 300 300

GFSSE_925_thetae_003.txt.gz
Theta_e
327 330 337 339 340 342 341 343 342 342 339 335 333 332 336 338 335 334 333 332 331 330 330 327 326 325 325 326 328 328 322 322 330 330 326 325 327 329 331 331 333 335 337
326 329 336 338 340 342 342 343 343 342 340 336 333 330 330 332 336 334 329 325 329 328 326 325 325 326 326 328 330 328 325 324 324 326 326 325 326 330 330 331 333 334 336
322 324 329 334 337 340 340 341 342 341 340 338 335 333 330 328 326 326 323 324 327 324 325 323 324 328 328 327 328 329 328 327 327 325 325 325 327 327 329 330 332 333 333
324 320 323 326 329 333 335 337 335 336 335 335 335 335 335 333 331 330 330 331 330 326 324 323 323 328 327 332 332 330 328 327 328 327 326 326 331 331 329 327 334 334 333
327 323 320 319 322 326 328 330 331 331 330 331 333 334 335 334 333 332 331 329 327 321 322 325 325 325 324 324 326 330 329 329 327 328 328 328 330 332 332 330 329 332 333
327 325 322 321 320 320 319 320 321 322 323 325 327 330 331 331 330 329 327 324 325 324 324 326 326 327 326 323 324 326 325 330 329 329 330 330 332 335 335 332 327 330 333
329 327 326 324 323 322 321 320 319 321 323 324 325 324 324 326 326 326 323 324 326 326 327 327 330 328 327 325 324 325 324 330 327 329 330 331 332 334 332 331 329 329 333
328 328 327 325 324 321 322 323 323 322 323 324 325 324 324 324 323 324 326 326 328 327 326 325 324 324 325 327 324 323 325 326 323 327 329 331 332 334 332 333 330 326 331
333 332 332 331 329 325 322 321 323 322 323 323 324 324 323 322 322 323 324 325 326 324 324 326 327 326 324 327 326 327 325 326 326 328 328 330 331 331 332 332 330 327 328
335 334 334 333 332 328 324 324 322 322 323 324 324 324 324 324 323 322 322 323 323 323 324 325 326 328 328 328 327 326 325 326 326 325 323 328 330 331 331 330 331 329 326
337 336 335 334 334 331 327 327 326 325 324 325 324 325 325 324 322 321 321 320 320 319 320 321 321 322 323 323 322 322 322 323 323 324 324 325 327 328 329 329 332 330 328
338 337 336 336 335 333 330 330 329 328 328 327 326 326 326 325 322 320 319 317 317 316 315 315 316 315 317 319 319 319 318 319 320 324 324 323 324 327 331 330 331 330 329
336 336 333 330 331 332 331 331 330 329 328 328 328 326 325 325 323 320 320 319 317 316 312 313 314 313 313 313 313 314 315 316 317 319 319 320 321 325 329 330 328 328 329
333 327 324 324 327 330 330 329 330 330 329 328 327 325 325 323 320 316 318 320 319 319 314 314 315 317 316 317 316 316 317 318 319 317 317 318 318 318 320 325 330 328 327
325 323 322 320 325 324 326 328 330 329 329 329 326 324 322 320 320 318 318 319 319 318 318 317 314 314 313 311 310 311 311 313 316 318 319 320 318 318 320 322 324 329 330
323 320 319 319 320 321 325 326 325 327 327 328 324 322 318 318 319 319 318 320 320 317 314 309 306 304 303 303 304 304 304 304 307 306 306 309 313 315 320 322 321 323 326
320 319 318 318 317 318 320 321 322 320 318 317 316 316 315 314 318 318 318 318 318 315 311 309 305 304 304 304 304 304 304 304 304 303 303 303 304 305 306 311 320 323 321
318 317 318 316 315 316 316 318 319 319 316 315 313 312 312 312 313 313 312 313 312 311 308 306 304 305 304 304 304 304 303 303 303 303 303 303 304 305 307 305 311 316 320
314 316 315 314 313 313 313 313 314 314 314 313 312 311 311 312 311 310 308 309 309 309 305 304 305 305 304 304 304 303 303 303 303 303 303 302 304 304 307 305 309 312 313
314 314 313 312 311 310 310 310 310 310 310 310 309 310 310 312 312 310 307 308 310 308 305 305 305 305 304 304 304 304 303 303 303 303 302 303 303 303 304 305 308 305 305
313 312 312 311 311 310 310 309 309 309 309 308 308 308 308 307 309 312 308 306 307 308 306 305 305 305 304 304 304 303 302 303 302 301 301 300 303 303 304 304 304 305 306
312 311 311 312 311 311 311 311 310 310 309 309 308 308 307 307 307 311 309 307 306 306 307 305 305 305 304 304 302 301 299 300 300 299 301 302 301 304 303 303 304 304 305
311 311 312 312 312 311 311 310 310 309 308 309 309 308 308 307 307 309 309 308 307 305 307 306 305 304 303 302 301 300 299 299 299 300 297 299 301 298 299 300 300 302 304
312 312 312 311 311 311 310 310 309 309 307 309 309 310 310 309 307 306 306 309 307 305 306 305 303 303 302 300 298 297 295 297 295 295 296 295 295 296 295 297 298 297 298
311 311 312 312 312 312 311 311 310 310 310 310 310 309 309 308 306 306 306 308 306 304 304 303 302 300 297 295 295 296 297 295 295 296 293 293 294 295 296 297 298 299 300
312 312 311 311 310 310 309 309 308 308 308 308 308 308 308 308 307 305 304 306 305 303 301 297 295 295 296 295 295 295 294 294 294 294 293 293 294 295 295 296 297 297 297

GFSSE_925_thetae_006.txt.gz
Theta_e
329 336 338 339 340 339 340 342 341 338 336 335 336 338 338 339 338 336 334 333 333 333 333 331 329 329 330 330 331 326 326 329 327 323 324 324 327 329 329 329 332 335 336
328 336 338 340 342 341 340 341 341 339 337 334 332 333 337 335 334 332 331 331 330 329 325 325 324 328 326 326 328 327 323 321 322 322 319 319 322 327 330 329 329 333 334
325 331 335 337 340 340 341 341 341 340 338 336 332 330 329 333 332 329 328 326 326 328 328 327 324 325 329 327 328 329 326 325 324 324 323 322 322 326 329 330 330 331 333
321 326 330 333 336 337 338 340 339 338 336 335 335 334 332 329 327 326 326 329 331 331 328 324 324 333 332 333 332 330 329 329 328 327 325 324 325 326 330 328 331 331 331
321 321 323 328 329 331 331 333 333 332 330 330 331 332 334 334 333 333 332 329 327 324 321 322 326 329 327 325 325 330 330 329 329 329 330 328 330 333 331 330 327 333 331
323 322 321 320 320 320 320 321 322 324 325 326 327 329 332 332 331 328 325 322 325 325 324 327 330 329 328 327 325 325 325 325 328 329 329 329 331 332 332 332 329 330 332
324 323 322 322 321 321 321 320 320 322 322 322 322 324 325 325 323 323 323 323 325 328 328 327 328 329 330 329 327 324 324 326 326 324 328 330 330 331 334 333 331 330 328
325 325 323 322 321 322 322 322 321 321 322 323 324 325 325 325 324 324 325 325 326 326 325 325 324 325 324 324 325 325 325 324 326 324 325 326 330 330 331 332 330 330 327
328 328 327 326 324 323 321 321 322 322 322 322 324 324 323 322 322 322 322 322 322 323 323 324 325 326 327 328 327 327 327 327 327 327 327 327 327 330 330 331 330 330 328
330 331 331 330 329 326 323 323 322 321 322 323 324 324 323 323 322 321 321 320 319 320 321 322 322 324 326 326 325 323 323 324 324 325 325 325 326 328 330 329 330 330 329
333 333 333 332 332 329 326 326 325 325 324 323 324 323 324 323 322 319 319 318 318 318 319 318 319 319 321 322 321 319 318 318 321 323 324 323 324 325 330 330 329 329 330
335 335 334 334 333 331 329 328 327 327 326 326 326 325 325 325 322 320 319 317 316 316 315 314 314 314 315 316 317 316 316 316 316 317 319 321 322 322 326 329 330 330 330
336 336 335 333 332 331 332 329 329 328 328 327 327 326 325 325 324 322 319 318 318 316 316 313 314 314 312 313 313 313 312 313 316 318 318 318 318 320 321 325 327 328 328
336 335 334 328 323 323 328 330 330 329 329 328 327 327 325 324 323 318 316 316 317 316 316 314 315 316 316 314 313 311 310 310 313 315 316 317 318 318 318 319 323 327 327
333 334 328 323 322 326 327 328 328 329 329 328 328 327 324 323 320 319 318 317 317 318 317 316 314 308 306 304 304 303 303 303 304 306 306 305 306 308 312 318 319 322 326
330 330 324 322 323 325 324 324 326 327 328 328 328 326 323 321 318 319 319 318 318 318 317 313 308 305 303 303 304 304 303 303 304 303 303 303 303 304 305 307 316 320 323
328 325 322 320 319 319 319 320 320 321 320 319 320 319 317 316 314 314 316 316 316 319 316 312 309 304 304 304 304 304 303 303 303 303 303 303 303 304 307 308 307 308 314
324 321 319 319 317 316 316 315 316 318 318 316 315 314 313 312 312 311 311 310 309 314 313 310 308 304 305 304 304 303 303 303 303 303 303 302 303 303 304 304 306 312 309
321 318 318 316 315 314 313 313 315 315 313 312 313 312 312 312 312 312 311 309 308 308 309 308 305 304 305 304 304 303 303 303 303 303 301 303 301 302 304 303 304 304 305
314 315 316 314 313 312 311 310 310 310 310 310 309 309 309 309 310 311 311 310 308 307 308 308 305 304 305 304 304 303 303 302 302 302 301 299 299 301 300 304 303 305 304
313 315 313 312 311 310 310 310 310 310 310 309 310 309 308 308 308 309 311 311 309 308 307 307 306 305 305 304 303 303 302 302 302 300 299 301 299 298 303 302 299 301 301
313 312 312 311 310 310 309 309 308 308 308 309 310 310 309 308 308 308 307 308 310 308 307 308 306 305 305 304 303 300 298 299 300 300 299 299 298 301 299 296 297 295 295
311 310 310 309 309 308 308 308 309 309 309 310 310 310 310 310 309 307 307 307 308 310 307 306 307 305 305 304 303 300 298 298 296 297 299 297 298 295 296 293 294 293 295
309 309 309 310 310 310 309 309 308 308 307 308 307 307 307 308 307 307 306 305 307 310 307 306 306 305 304 302 301 301 298 297 294 294 295 296 294 294 293 294 293 293 298
309 310 310 310 310 309 309 308 307 305 304 304 305 305 304 304 304 305 306 305 304 305 306 305 305 303 302 300 295 297 295 296 296 293 293 293 293 293 294 293 293 294 292
310 310 310 310 309 308 308 306 304 303 303 303 303 303 303 303 303 304 304 304 302 303 302 301 298 296 296 297 297 297 295 293 292 293 292 292 293 293 293 293 294 293 293

GFSSE_925_thetae_009.txt.gz
Theta_e
330 336 338 339 338 340 342 341 339 337 337 337 338 338 338 339 338 336 334 334 334 334 332 328 327 328 328 330 331 327 329 332 331 329 326 327 329 329 330 332 332 338 334
328 336 338 340 340 339 341 340 340 338 335 335 337 337 337 337 337 335 333 332 331 328 325 327 327 325 325 330 330 328 325 326 329 326 325 325 326 329 330 332 332 337 333
327 334 337 339 339 339 340 341 340 339 336 332 331 333 335 334 332 332 330 326 325 327 330 329 325 331 333 333 331 330 329 328 328 328 328 332 332 326 329 329 331 333 334
324 329 332 336 337 338 339 340 339 338 336 335 333 330 329 332 331 329 326 327 330 330 327 324 331 332 330 330 332 331 330 329 329 330 331 331 333 331 328 327 330 330 332
319 324 327 330 333 333 333 336 336 335 333 334 334 334 334 332 330 330 332 329 326 324 323 325 328 329 329 328 327 324 327 329 328 329 331 329 332 333 334 329 327 330 331
320 319 321 324 327 328 330 331 331 331 331 331 333 333 334 333 332 329 326 322 325 325 326 327 328 329 330 329 327 325 325 326 327 328 331 331 331 331 332 334 331 327 330
322 321 320 320 321 321 321 321 321 322 322 323 323 324 325 324 323 322 322 323 326 327 327 325 324 324 324 323 324 325 324 324 324 328 327 328 329 329 330 331 331 331 329
323 322 322 322 321 321 321 321 321 321 322 322 322 323 324 324 324 323 323 323 323 323 322 322 324 326 326 327 326 327 327 324 324 326 325 326 326 329 330 329 330 330 329
324 323 323 323 322 322 321 321 321 321 322 322 322 323 322 322 322 322 321 321 321 320 320 321 322 324 326 327 326 325 325 325 326 326 326 326 326 327 328 329 329 330 330
327 327 327 327 326 324 322 323 323 321 322 322 322 322 322 321 321 321 320 319 317 317 318 319 319 320 322 323 322 321 320 322 323 323 323 324 324 325 326 328 328 329 330
330 330 331 330 330 327 325 325 324 325 324 323 324 323 322 322 322 320 317 317 315 316 316 316 315 315 316 317 318 319 318 317 318 320 321 323 323 323 324 326 328 329 329
333 332 332 332 332 329 327 327 326 326 326 326 326 325 324 324 323 321 319 318 317 316 315 314 313 312 311 313 314 315 315 314 318 319 320 318 320 321 324 324 326 329 329
335 334 333 333 332 329 329 328 327 327 327 327 327 326 325 325 323 323 320 316 316 318 316 316 313 313 314 313 313 313 312 313 316 318 318 317 318 318 319 324 324 326 327
335 336 335 333 332 327 326 327 328 329 328 328 327 327 326 325 323 323 318 317 316 317 316 315 314 314 311 310 309 307 305 308 313 314 310 306 309 315 317 318 321 325 326
334 335 335 334 328 322 324 327 328 328 328 329 328 327 327 325 322 320 318 317 317 317 317 317 315 311 305 303 303 303 303 303 303 308 306 303 303 304 306 311 315 319 324
333 333 334 330 323 322 322 323 324 326 327 326 326 325 326 324 321 317 315 314 314 315 317 318 314 309 305 303 304 304 303 303 303 303 304 304 303 306 306 306 306 314 319
329 330 332 324 320 318 319 319 319 319 319 319 317 317 317 316 314 314 313 312 311 312 314 317 314 310 305 304 304 304 303 303 303 303 302 302 304 304 304 305 306 312 312
323 325 327 322 318 316 317 316 314 314 315 316 314 314 313 312 312 312 311 310 310 310 311 314 313 310 306 305 305 305 303 302 303 303 302 302 302 304 304 303 305 305 305
321 324 322 319 317 315 315 313 312 312 312 312 311 311 311 310 310 311 311 310 310 310 309 309 310 308 307 306 306 305 304 303 303 302 301 302 300 302 303 301 302 303 304
319 319 318 317 315 314 314 312 311 310 310 310 309 309 309 309 309 310 310 310 311 311 310 309 308 308 306 306 305 305 305 305 303 303 302 299 301 299 301 302 303 302 301
313 314 316 315 313 313 311 309 308 309 308 309 309 309 309 309 308 307 307 308 309 311 311 309 308 307 306 305 306 306 305 304 304 304 302 302 300 300 300 300 299 299 299
313 313 311 309 307 307 307 307 307 308 309 309 309 309 308 308 308 307 307 307 307 309 310 310 309 308 307 306 306 306 307 306 303 303 302 302 301 300 299 297 296 297 297
308 307 307 307 308 309 309 309 308 308 308 307 307 306 305 305 304 304 304 305 306 307 308 308 309 308 308 307 305 306 308 307 305 302 302 299 300 299 297 296 296 295 296
307 309 309 309 308 308 307 306 305 305 305 305 304 303 301 302 303 304 304 303 304 306 307 307 307 307 307 308 304 303 303 302 305 306 300 299 298 297 296 297 296 296 296
309 309 308 308 308 307 307 305 305 305 304 304 303 303 302 301 301 302 302 302 303 303 305 305 305 305 305 305 304 303 300 299 298 299 301 300 296 296 296 296 295 296 295
308 309 308 308 308 307 306 305 305 304 304 304 303 302 301 301 301 301 301 301 301 301 300 300 298 299 299 299 298 298 298 298 297 296 297 297 298 297 295 294 295 295 295

GFSSE_925_thetae_012.txt.gz
Theta_e
334 341 338 339 339 341 341 340 338 337 337 337 338 337 338 337 336 335 335 334 334 334 329 326 327 326 328 328 330 329 328 332 332 330 328 328 329 332 333 334 336 339 335
334 340 338 339 338 339 341 340 339 337 336 337 339 339 339 338 336 335 334 333 332 329 327 329 329 327 332 333 330 330 328 326 329 329 326 326 323 327 332 333 333 338 334
334 339 340 339 340 339 340 340 339 337 334 335 336 336 335 335 334 332 330 327 326 326 329 329 329 334 334 333 331 330 330 329 328 327 326 330 331 329 332 332 332 334 333
333 337 339 338 340 341 341 340 339 338 335 332 331 332 334 333 331 329 328 330 329 327 328 331 333 333 329 327 330 331 330 330 329 328 331 332 331 331 332 331 331 331 333
331 334 336 335 337 339 340 340 339 336 335 335 333 334 332 330 329 329 332 330 324 324 328 330 332 330 328 328 326 325 325 328 329 329 333 333 332 333 330 330 330 330 330
326 330 327 329 331 332 332 331 331 332 332 332 333 333 333 333 332 328 324 320 321 323 324 325 327 328 328 329 328 327 325 325 325 330 332 332 332 332 329 331 331 332 332
326 328 328 323 323 322 322 323 324 324 324 324 324 325 325 324 323 322 322 323 324 323 323 323 324 324 324 324 323 323 325 324 328 330 330 331 333 332 329 330 331 330 329
327 329 328 321 321 321 321 321 321 322 322 322 323 323 323 323 322 321 321 321 321 321 321 322 323 324 326 327 327 327 327 326 329 331 331 331 330 326 329 330 329 330 330
327 328 329 329 327 322 322 322 322 323 322 322 322 323 322 322 322 321 321 321 321 320 320 320 320 322 323 324 325 324 324 325 329 330 329 329 329 326 328 328 329 329 330
330 329 331 331 330 330 329 323 323 322 322 323 322 323 322 323 323 323 320 321 318 317 317 317 317 317 317 319 321 321 321 322 325 327 328 327 323 324 327 326 326 328 328
332 333 333 333 332 331 329 328 325 325 324 324 327 326 327 327 327 325 321 318 317 315 315 314 314 313 312 315 315 315 317 321 322 322 323 323 322 323 326 327 327 325 324
334 335 335 335 334 332 327 330 330 329 329 331 331 331 329 329 328 324 324 319 316 315 316 315 314 313 315 316 317 317 317 319 318 319 320 321 318 320 325 325 325 326 326
333 334 335 337 336 333 329 328 328 327 328 329 332 332 330 329 328 327 326 323 323 322 320 320 320 318 319 318 317 317 316 316 315 316 318 315 316 317 318 321 324 325 327
331 334 336 337 337 335 330 328 328 327 328 328 329 332 330 328 327 327 324 322 321 320 321 320 319 320 318 316 314 312 312 311 311 313 313 306 307 309 312 315 318 321 325
334 336 338 338 337 332 330 327 328 329 327 328 328 327 329 326 325 324 322 320 319 319 318 318 318 318 314 312 311 311 310 310 310 310 309 304 303 304 305 307 312 318 320
334 335 337 338 336 328 326 328 326 326 326 326 324 324 326 326 323 321 319 317 317 316 317 317 316 315 313 312 310 310 309 309 309 310 308 308 303 304 305 305 307 315 318
331 332 336 336 331 327 325 324 322 321 321 320 320 322 323 323 320 320 318 317 316 316 317 317 317 315 314 311 310 309 309 309 308 309 307 307 307 304 304 304 306 307 308
326 329 332 331 327 325 323 322 320 319 319 318 318 319 319 319 319 319 318 317 316 316 316 316 315 314 313 311 310 309 309 308 308 308 307 307 307 307 306 303 304 305 306
322 325 329 329 325 323 322 320 320 320 319 318 317 316 316 316 316 316 316 316 316 316 315 315 314 314 313 311 310 309 309 308 308 307 307 307 307 306 307 305 301 303 304
322 325 328 326 323 322 319 318 315 315 314 314 313 313 313 313 313 314 314 315 316 316 315 314 314 313 312 312 310 309 308 309 308 308 307 307 306 307 306 306 306 305 301
320 322 322 320 315 315 314 313 313 313 312 313 313 312 312 312 311 311 311 312 312 313 314 314 314 314 314 312 311 310 309 309 309 308 307 307 305 305 306 306 304 303 303
316 314 313 312 311 311 311 311 312 312 313 312 312 311 310 308 308 308 309 309 309 310 311 312 313 314 314 313 312 311 312 310 310 309 308 307 306 305 305 303 302 302 301
314 313 313 313 312 312 312 312 311 312 312 311 309 308 307 306 306 306 306 306 307 308 308 309 310 311 312 313 312 312 313 313 311 309 308 307 306 305 304 302 301 300 300
314 314 313 312 312 311 310 310 310 310 310 309 308 307 306 305 305 304 304 305 306 306 306 307 307 309 310 311 311 312 311 311 313 312 308 307 305 304 303 301 301 300 300
313 313 313 312 311 311 310 309 309 309 308 307 307 306 304 303 303 303 303 304 304 305 306 307 307 307 308 309 309 309 310 309 308 308 311 307 304 303 301 300 301 300 300
314 314 313 312 311 310 310 308 307 308 307 306 305 304 303 302 302 302 302 303 304 304 304 304 303 303 303 303 303 303 303 301 303 303 307 307 308 303 301 300 299 299 300

GFSSE_925_thetae_015.txt.gz
Theta_e
340 341 337 337 338 340 341 339 338 337 338 338 338 337 337 337 336 336 335 334 333 332 329 327 329 329 329 329 328 327 328 329 332 331 329 324 323 329 332 333 335 339 336
340 342 338 338 339 340 340 339 337 337 338 339 339 339 338 337 335 334 333 332 331 328 327 329 331 336 333 332 330 329 329 326 326 328 325 322 325 323 327 332 333 337 333
340 340 341 340 340 340 340 339 338 335 336 336 337 336 336 335 334 332 330 328 326 327 328 330 334 333 329 330 330 330 330 329 327 326 323 326 334 332 324 330 331 334 332
338 339 341 339 340 340 341 340 338 336 333 332 332 334 334 333 332 330 329 330 328 328 330 333 333 330 328 327 327 329 330 330 329 328 329 333 333 332 325 324 329 331 332
334 337 336 338 340 341 340 339 338 336 335 334 333 333 332 331 330 331 331 326 322 323 326 328 329 328 328 328 328 326 325 325 329 329 331 334 333 334 331 330 329 329 329
329 331 331 333 332 333 334 334 334 333 331 331 332 332 331 331 330 325 321 321 323 325 325 324 324 324 323 322 323 325 326 326 324 327 330 332 332 333 332 328 330 332 334
325 326 330 324 323 323 323 323 323 324 324 325 326 327 327 325 323 322 322 322 322 321 320 321 323 324 325 326 326 325 325 324 325 329 330 331 332 332 332 329 329 330 331
326 327 325 320 320 321 321 322 322 323 324 324 325 325 325 324 323 322 321 321 319 318 318 318 320 321 322 324 325 325 325 326 328 329 330 330 331 330 327 330 330 330 330
326 327 328 328 326 321 321 322 322 322 322 323 323 323 322 322 321 321 319 319 317 315 316 317 317 317 317 319 321 321 322 322 323 327 327 329 329 328 327 328 328 329 329
327 329 330 330 329 330 331 323 323 322 323 323 324 323 323 328 327 326 323 322 316 315 315 314 314 313 313 312 313 315 316 320 324 324 325 327 327 323 328 328 326 326 328
330 332 331 331 329 328 326 328 326 325 324 326 329 330 329 329 327 326 325 321 318 316 315 316 314 313 312 315 317 317 314 322 321 320 322 324 323 322 326 327 325 326 326
331 331 331 333 331 329 325 328 328 327 328 329 330 330 329 329 328 326 326 325 324 323 322 320 320 319 319 319 318 318 319 318 317 317 319 318 318 318 321 323 323 325 326
330 329 331 337 334 330 327 325 326 326 327 328 330 330 328 329 328 327 325 324 324 323 322 321 321 320 320 319 318 317 316 315 315 315 317 317 313 314 317 319 320 321 325
328 329 331 336 337 333 328 325 325 326 326 326 328 328 326 325 325 324 323 321 320 319 319 319 319 319 320 319 315 314 313 313 311 312 314 312 307 307 309 314 317 319 321
328 329 330 333 339 332 329 326 326 327 326 327 326 325 325 324 323 322 321 320 318 318 318 318 318 318 318 316 314 313 312 312 312 312 312 310 307 304 304 307 311 316 319
329 329 330 333 337 332 325 326 326 326 325 325 323 322 323 323 323 321 320 319 318 317 317 317 317 318 317 315 314 313 312 312 311 311 311 310 308 304 305 306 309 313 315
328 329 331 334 336 330 325 324 323 321 320 320 320 320 321 321 320 320 319 319 318 318 317 317 317 317 317 316 314 313 312 312 311 311 311 309 309 308 304 305 307 307 308
327 326 328 333 335 329 323 322 321 320 320 320 320 320 320 320 320 319 318 318 318 318 318 317 316 316 316 316 315 314 312 311 311 311 311 310 309 310 309 305 304 305 306
324 324 327 333 332 327 323 321 321 321 320 319 319 317 317 317 316 317 317 317 317 317 317 317 316 316 316 316 315 314 313 312 311 311 310 310 310 309 309 309 305 303 303
322 325 328 331 328 325 322 320 318 317 317 316 316 316 316 316 315 315 315 315 315 315 315 315 316 316 316 316 315 314 314 312 311 311 311 310 309 309 308 309 307 303 303
325 326 327 325 320 318 317 316 316 316 315 315 316 315 315 314 312 312 312 311 312 311 312 312 313 314 315 315 316 316 316 314 313 312 311 311 310 309 308 309 308 308 305
320 319 318 317 316 315 315 315 315 315 315 315 315 313 312 311 310 309 309 309 308 309 309 310 311 312 313 314 316 316 319 316 315 313 312 312 311 310 308 308 308 307 306
318 317 316 316 315 315 314 314 314 314 314 314 313 312 311 310 309 308 307 307 307 307 308 308 309 309 311 311 312 314 316 317 316 314 314 313 311 310 309 308 308 305 304
318 316 316 315 315 314 314 313 314 313 313 313 312 311 310 308 307 306 305 305 306 306 307 307 307 309 309 310 310 309 311 313 315 316 313 313 311 310 309 308 307 304 304
317 317 316 315 315 314 314 312 312 312 311 311 310 309 307 306 305 304 304 304 305 305 306 306 307 307 307 307 308 308 307 308 308 308 312 313 311 309 308 308 306 304 303
317 317 316 315 314 314 313 312 311 310 309 308 308 306 305 304 303 303 303 303 304 305 305 305 305 303 302 301 300 300 298 299 300 300 302 307 307 308 308 305 303 303 303

GFSSE_925_thetae_018.txt.gz
Theta_e
343 338 338 338 340 341 339 338 337 338 339 338 337 336 336 336 335 335 334 332 331 330 330 328 328 333 332 330 329 329 328 327 326 328 328 324 320 322 327 331 337 337 333
343 338 337 338 340 340 339 337 337 337 338 338 339 338 337 336 335 334 333 331 329 328 327 328 329 328 328 327 327 329 329 328 327 325 324 323 329 326 322 328 336 333 326
341 342 339 339 340 340 339 338 336 335 336 336 336 336 335 334 333 331 329 328 329 329 330 331 331 327 326 326 326 327 329 329 328 327 325 323 333 332 329 327 331 332 332
342 342 340 339 340 340 339 338 337 334 332 331 332 332 332 332 330 329 330 329 325 325 331 333 331 327 327 326 327 327 326 328 329 329 327 329 332 333 330 322 329 331 331
340 337 339 340 340 339 339 338 336 334 333 332 333 334 333 333 333 330 324 321 322 325 327 325 324 324 324 324 324 325 326 326 324 326 329 331 332 331 326 329 331 330 329
335 331 331 331 333 332 332 332 331 331 331 331 331 330 329 328 324 322 322 323 323 321 319 319 320 321 322 323 324 324 323 322 321 325 328 330 330 331 331 329 329 332 334
329 324 324 323 322 322 322 322 322 323 323 323 324 324 323 323 322 320 320 319 317 315 315 316 317 319 319 319 319 322 323 324 325 327 329 330 330 330 331 331 328 329 330
328 322 319 319 319 320 321 321 322 322 322 322 322 322 322 321 320 320 319 318 316 314 314 315 315 315 314 314 315 316 316 318 318 328 329 330 330 329 329 326 328 329 329
326 326 325 320 321 321 320 321 322 321 321 321 322 322 321 323 325 323 320 318 315 314 313 313 312 312 311 311 310 311 312 314 321 326 327 326 328 326 327 326 326 328 329
328 329 329 330 330 332 329 320 321 321 321 322 325 325 327 329 327 326 325 322 319 314 315 314 315 313 311 310 316 316 315 314 323 321 323 327 326 325 324 323 324 325 326
329 330 330 329 328 329 329 325 328 322 326 330 330 330 330 329 329 327 324 325 324 323 321 321 319 319 318 317 318 317 317 319 320 318 323 323 323 322 321 323 324 323 323
330 331 331 330 329 327 325 328 328 327 330 330 330 330 330 328 328 327 327 326 325 323 321 323 321 320 320 321 319 318 319 319 317 315 318 318 317 316 311 319 321 323 323
329 330 332 334 331 330 327 324 327 327 327 329 331 329 328 327 326 325 324 324 321 321 322 320 321 320 321 320 320 318 317 316 314 313 315 316 316 314 309 314 318 320 321
330 329 335 335 334 331 328 326 326 327 326 327 327 327 325 325 324 322 322 320 319 318 318 319 318 318 318 319 318 316 314 313 313 312 312 313 313 310 305 309 313 317 319
328 329 330 334 337 332 326 326 326 326 328 325 326 324 324 324 323 322 321 320 319 318 318 317 317 318 318 317 316 316 314 313 312 312 312 312 311 310 305 305 313 314 317
328 329 330 333 336 333 326 326 326 327 325 324 322 322 323 323 323 321 320 320 319 319 318 317 317 318 318 318 317 316 314 313 312 312 311 312 311 310 308 304 306 316 317
329 329 330 330 335 332 326 325 324 322 320 320 320 320 321 321 320 320 320 319 319 319 318 318 318 318 317 317 317 317 315 313 312 312 311 311 312 310 309 306 304 306 307
327 327 329 333 336 333 326 323 322 321 320 320 320 320 320 320 319 318 318 318 318 318 318 318 318 318 318 317 317 317 316 315 313 312 312 311 311 310 309 309 305 304 305
325 324 325 333 334 332 325 323 322 322 320 321 319 317 317 316 316 316 316 316 316 315 316 316 317 317 318 318 317 317 316 316 314 312 312 311 311 310 310 310 308 305 303
324 325 327 331 329 326 323 321 320 319 318 317 317 317 316 315 315 314 312 313 313 313 313 313 313 314 314 316 316 316 317 316 314 315 313 312 311 310 309 310 310 307 304
326 326 327 323 320 319 318 316 316 316 316 316 316 316 315 313 312 311 310 310 309 309 310 309 310 311 312 313 314 315 315 316 317 315 314 313 312 311 310 309 309 309 306
319 319 318 318 317 316 316 316 316 315 316 315 315 314 313 312 311 310 309 308 308 308 308 308 309 311 311 311 313 314 313 313 314 314 315 314 312 312 311 310 309 309 309
318 318 317 316 316 315 314 315 315 315 314 314 314 313 312 311 309 308 306 305 306 306 307 307 306 308 310 310 310 311 312 311 311 311 311 312 313 313 312 311 309 309 309
318 317 316 316 315 315 315 314 313 314 313 312 312 311 309 308 307 305 304 304 304 305 305 306 307 307 308 307 307 306 305 304 308 309 310 311 311 312 312 312 310 309 309
318 318 317 316 316 315 314 314 313 312 311 310 309 309 307 306 304 303 302 302 303 303 304 306 306 305 303 302 301 300 299 299 302 302 303 304 304 307 308 309 310 309 307
318 317 317 316 315 315 313 312 312 311 310 309 308 306 304 302 302 302 302 302 302 304 303 302 302 302 301 300 298 297 297 297 297 296 298 298 298 301 303 304 306 307 307

GFSSE_925_thetae_021.txt.gz
Theta_e
339 339 339 340 339 338 337 337 337 337 337 336 336 336 335 335 334 333 332 331 330 329 328 328 329 329 328 327 326 326 326 327 327 326 327 327 328 328 328 333 337 334 334
338 338 338 339 339 338 337 336 337 338 338 338 338 337 336 334 333 331 330 328 327 328 329 329 330 326 325 325 325 325 327 327 327 326 325 323 326 331 328 334 333 328 331
338 338 339 340 339 338 337 335 335 335 335 335 334 334 333 332 331 329 329 329 327 323 321 325 323 324 325 326 326 326 325 327 329 328 327 327 331 332 329 326 331 331 331
338 338 339 339 339 338 337 336 334 332 332 331 331 331 330 330 330 330 326 321 320 321 321 320 320 320 321 322 322 323 324 325 325 326 327 329 331 332 330 327 328 330 332
337 338 339 339 338 337 336 334 333 332 334 335 335 332 330 329 325 320 320 320 319 317 315 315 317 319 320 321 321 322 321 320 321 323 327 330 331 331 323 321 329 327 330
335 336 336 333 332 331 329 329 328 327 327 327 326 324 323 321 320 320 319 318 315 314 313 314 314 314 315 315 315 317 318 320 322 324 328 330 330 331 330 329 328 329 330
328 326 326 324 322 322 321 321 321 321 321 321 321 321 321 320 319 319 319 317 315 313 313 312 312 312 311 310 310 311 312 314 316 323 327 330 329 329 330 328 329 328 329
321 320 319 319 319 319 319 320 320 320 320 320 320 319 319 321 319 319 317 314 313 312 311 311 311 310 309 309 309 309 309 310 317 323 325 330 328 329 328 327 326 328 329
318 317 318 322 321 319 317 319 319 320 320 320 319 321 326 326 324 324 323 321 319 314 317 314 316 316 313 310 314 316 316 312 322 322 326 327 326 325 325 325 325 326 328
327 328 328 329 330 327 318 315 316 317 320 326 327 327 329 328 327 325 324 324 323 322 321 320 320 320 318 317 317 317 317 317 320 321 319 325 325 324 323 322 323 323 325
328 329 330 330 330 329 326 326 323 329 329 330 329 330 329 329 327 326 326 325 324 321 322 322 320 321 320 320 320 319 318 318 319 317 316 318 322 319 317 314 318 323 323
330 330 329 328 327 328 327 328 327 329 328 330 329 329 329 327 328 327 326 325 320 321 321 319 319 319 320 320 320 318 317 317 316 315 314 315 318 317 316 313 310 320 322
330 331 329 329 328 328 327 328 328 328 329 330 330 327 325 327 325 323 322 320 319 318 318 318 319 318 319 318 319 319 317 314 313 313 312 314 315 314 313 309 308 314 319
331 331 332 326 324 329 326 326 327 327 329 329 327 327 324 324 323 321 320 319 319 318 318 318 318 317 317 317 318 318 317 315 313 312 312 311 312 311 311 310 305 309 315
330 332 331 328 322 323 325 325 324 327 327 326 326 324 320 323 322 321 321 320 319 319 318 318 317 316 317 317 317 317 316 315 314 313 312 312 312 312 311 310 306 306 312
329 334 335 335 333 330 327 326 326 326 324 325 323 322 318 319 322 321 320 319 319 319 319 319 318 317 318 318 317 318 317 316 315 313 312 311 311 312 311 310 309 305 312
328 331 335 332 326 325 326 324 324 326 323 321 321 320 320 320 320 319 319 319 319 318 318 317 316 317 318 317 318 317 317 317 316 314 313 312 311 310 311 311 309 308 305
329 333 333 330 328 329 325 323 322 321 319 320 320 320 320 320 319 317 316 316 315 315 314 314 315 315 316 317 317 317 317 317 316 316 314 313 312 311 311 310 309 309 307
325 330 331 333 331 327 323 322 321 321 320 319 318 318 317 316 316 316 315 313 311 311 310 310 311 310 309 310 311 313 314 314 314 315 315 314 313 311 311 310 310 309 309
328 330 328 327 324 323 322 321 319 320 318 317 316 316 315 314 313 312 311 310 309 308 307 307 307 307 307 309 310 310 310 311 312 314 314 315 314 312 311 310 310 310 309
320 320 320 318 316 316 316 316 315 315 315 314 315 313 313 312 311 310 308 307 306 306 306 307 307 308 307 305 307 309 309 310 311 313 313 314 314 315 313 311 310 309 309
317 317 317 316 316 315 315 315 315 314 315 314 312 312 310 308 307 307 305 304 304 304 304 305 305 305 305 308 308 308 308 309 310 310 310 310 310 311 311 311 310 310 309
316 316 316 315 315 314 314 314 314 313 313 313 311 310 307 307 305 304 303 302 302 302 302 302 303 306 306 306 305 304 305 307 302 307 306 307 308 308 309 311 310 310 310
317 316 316 315 315 315 314 314 313 312 311 310 309 307 306 305 304 302 301 300 301 301 303 305 306 305 305 302 302 301 299 299 300 301 303 301 304 301 301 303 307 310 309
317 317 316 316 315 315 314 313 312 311 310 308 306 305 304 303 301 300 300 302 303 303 303 302 302 302 300 299 297 297 297 296 297 296 298 298 297 297 298 298 301 305 308
317 316 316 315 315 312 313 312 311 309 307 306 304 303 302 300 300 299 301 299 300 301 300 299 299 299 298 298 297 296 296 295 295 295 295 295 295 295 295 296 297 300 302

GFSSE_925_thetae_024.txt.gz
Theta_e
341 341 339 338 337 337 336 336 336 336 335 336 335 335 335 334 332 331 329 328 329 330 331 328 326 323 323 323 323 323 325 327 328 327 326 325 330 329 327 334 337 334 335
341 340 339 338 337 336 336 336 336 337 337 336 336 334 333 331 330 329 328 328 329 330 333 325 324 322 323 324 325 324 324 325 328 328 327 328 330 332 328 330 331 329 332
340 339 339 338 337 336 336 335 336 336 335 334 333 332 330 329 328 328 326 320 318 319 320 319 319 320 320 320 320 322 324 325 325 326 328 329 331 330 330 324 324 328 330
338 339 339 338 337 335 334 333 332 331 331 330 330 329 329 328 324 319 318 318 317 314 313 315 316 317 318 319 320 321 321 321 322 324 326 329 331 331 330 325 323 327 331
339 339 339 338 336 335 334 332 331 332 333 331 327 325 323 320 319 318 317 315 312 312 312 311 311 311 311 311 311 312 316 319 322 325 329 330 330 330 327 326 326 325 327
338 339 337 335 334 332 330 328 327 327 327 324 322 321 320 319 318 317 316 314 311 310 310 310 310 310 310 309 309 309 311 314 317 325 328 330 329 329 329 327 328 328 326
337 335 332 328 325 323 323 323 322 321 320 320 320 319 318 317 317 316 314 312 311 310 310 310 310 310 309 309 309 309 310 311 316 323 326 330 330 328 328 328 329 328 328
328 326 321 319 319 319 319 319 319 319 319 319 318 319 323 322 321 321 321 318 317 314 316 315 318 317 314 311 312 316 316 314 317 321 324 329 329 328 328 327 326 326 327
319 318 318 318 318 316 316 315 318 318 319 318 321 326 326 326 324 323 324 323 321 321 320 320 319 319 318 317 318 318 317 317 319 319 321 325 326 326 325 324 323 324 326
318 321 324 325 324 317 312 315 316 320 325 325 328 328 327 326 325 326 325 324 321 322 321 320 319 320 320 319 319 318 318 317 318 317 316 322 324 324 323 320 320 321 324
320 325 328 327 326 323 319 317 324 328 328 328 329 329 327 327 326 326 325 323 321 321 320 318 318 319 319 319 318 318 317 316 316 316 314 314 319 321 318 315 314 312 321
325 327 328 327 327 325 325 323 328 328 328 329 329 328 327 327 327 326 325 321 320 319 318 317 318 318 318 317 318 319 318 317 314 313 313 312 315 317 316 313 312 309 313
328 329 328 325 326 327 327 327 326 328 329 329 328 327 326 327 324 323 321 318 319 318 318 318 318 317 316 316 317 317 317 317 316 314 312 311 311 311 312 310 309 307 311
329 329 327 327 328 327 326 327 328 328 329 330 327 326 325 324 322 321 320 319 319 318 319 318 317 317 317 316 317 317 317 317 315 314 314 313 311 311 311 311 311 309 306
329 328 328 328 328 326 325 326 327 327 330 327 327 325 320 323 321 320 321 320 319 319 319 319 318 317 317 317 318 317 317 317 317 315 315 314 312 311 311 311 311 310 309
330 330 328 322 323 323 325 325 325 327 325 326 325 323 318 317 319 320 319 318 319 318 317 315 314 314 314 315 316 317 317 317 317 317 316 314 313 312 311 310 311 311 309
331 332 329 327 326 327 327 325 325 326 324 325 323 321 320 320 320 320 318 317 315 314 314 313 312 312 312 312 311 311 312 313 314 314 315 315 313 312 312 311 311 310 309
331 333 333 329 327 325 326 324 323 325 320 320 320 320 320 320 319 317 315 314 311 310 310 309 308 307 307 307 306 306 308 308 308 310 312 313 313 315 312 311 310 310 310
333 335 333 331 328 327 326 323 321 320 320 319 317 318 316 315 314 313 311 310 309 308 307 307 306 306 306 306 305 304 303 306 309 310 310 311 312 313 314 314 311 310 310
330 332 331 330 328 326 321 320 320 316 315 316 314 313 312 310 309 308 307 306 305 305 305 305 305 305 305 303 304 304 306 306 306 307 307 310 310 311 312 311 312 311 310
322 318 317 316 318 317 315 315 314 314 312 312 311 310 309 308 306 305 304 303 302 302 302 302 302 302 302 304 307 306 306 306 308 308 308 306 306 308 309 310 310 309 310
315 315 315 314 315 315 314 313 313 313 312 310 309 308 307 306 306 304 302 300 300 300 299 300 301 304 306 306 304 305 304 305 304 302 302 302 303 302 305 305 306 310 309
315 315 315 315 315 314 314 314 313 313 311 310 308 307 305 305 304 301 299 300 300 301 303 304 305 304 304 303 302 301 302 302 299 300 299 301 299 299 299 298 300 304 309
316 316 315 315 315 314 314 313 312 311 310 307 306 305 305 304 302 299 299 300 300 300 300 301 301 300 300 299 299 298 298 298 297 297 298 296 297 295 295 296 296 298 304
316 316 315 315 314 314 313 312 311 310 308 306 306 305 304 301 299 298 299 298 298 299 299 299 298 298 297 297 296 296 296 296 295 295 295 295 294 294 295 294 296 297 300
316 316 315 313 312 313 312 311 311 309 306 305 304 303 300 299 299 299 298 296 297 298 298 297 297 297 295 295 295 295 295 295 294 294 294 293 293 293 292 293 295 294 294

GFSSE_925_thetae_027.txt.gz
Theta_e
341 339 337 336 336 336 336 335 335 335 335 334 335 334 333 332 331 329 328 328 329 328 325 323 320 319 320 321 323 324 325 327 327 326 325 324 329 329 325 331 336 333 334
340 338 337 337 336 336 336 335 335 336 336 335 334 332 331 329 328 327 327 324 324 332 332 323 322 320 319 319 320 323 324 324 325 327 327 329 326 329 328 328 332 329 329
340 338 337 336 336 336 336 336 336 335 334 333 331 329 328 327 326 321 319 319 319 320 326 318 316 317 318 319 319 320 320 321 323 324 327 329 330 330 330 325 329 331 331
339 338 337 336 336 335 335 335 334 332 330 329 328 327 326 321 318 317 316 313 310 311 311 311 310 310 310 310 311 314 317 320 321 324 327 330 330 331 330 327 324 327 329
339 338 337 336 334 333 332 331 330 329 328 326 324 321 319 318 316 315 314 311 309 310 310 310 310 310 310 309 310 311 313 315 321 326 329 330 329 330 326 324 325 325 327
339 338 337 335 333 331 330 329 327 325 323 321 320 319 317 316 315 315 312 310 310 309 310 310 310 310 309 309 309 311 311 311 318 324 328 329 329 329 327 328 327 328 326
339 338 335 331 328 326 325 324 323 321 320 319 318 317 315 316 315 317 314 314 312 313 314 317 318 317 315 310 314 316 316 315 319 322 326 329 329 328 326 326 325 328 328
335 332 328 324 322 321 320 319 319 319 319 318 317 320 322 319 321 322 321 320 319 319 319 319 319 319 318 318 318 318 318 317 319 320 324 328 328 327 325 325 325 325 325
325 322 320 318 318 318 318 318 318 318 318 317 322 324 324 323 323 324 323 321 320 320 319 318 318 318 318 318 317 317 316 316 318 317 316 319 325 325 324 324 323 321 320
319 318 320 318 315 315 315 316 316 316 318 325 326 326 325 325 325 325 324 321 321 320 318 317 318 318 318 318 317 318 318 316 314 315 316 315 316 319 321 320 318 317 315
320 321 323 321 316 312 314 316 321 325 326 327 327 327 326 326 326 325 324 321 320 319 318 318 318 318 317 317 316 317 317 317 316 314 313 313 313 315 323 323 316 313 312
322 323 325 324 322 317 318 323 326 328 327 328 329 327 326 327 326 324 323 321 321 319 319 318 318 318 317 316 316 316 316 316 316 315 314 312 311 312 313 314 312 310 309
323 325 326 326 323 324 322 326 327 328 328 328 328 327 326 327 326 323 322 320 319 319 318 318 317 317 317 317 317 317 317 317 316 316 315 314 313 311 311 312 311 311 311
324 327 326 327 326 325 326 325 327 327 329 329 328 326 325 324 322 321 320 319 319 319 319 319 318 316 315 314 314 316 317 317 317 317 317 315 315 314 312 311 314 314 312
326 328 327 327 328 327 327 327 327 327 328 329 328 326 323 323 322 320 320 319 318 318 318 316 315 314 313 312 312 313 314 314 315 316 316 316 315 314 313 312 312 315 316
327 329 328 327 327 326 326 326 327 327 328 329 327 325 323 322 321 320 319 318 316 314 313 311 310 309 309 308 308 307 308 308 308 308 309 310 312 314 314 312 311 311 312
328 329 327 328 325 325 325 325 326 326 327 325 326 323 321 320 320 319 316 313 311 309 308 308 308 307 306 305 304 304 303 303 302 305 308 308 309 311 312 312 314 312 310
329 328 328 328 327 327 325 323 324 324 321 323 322 320 320 318 314 312 311 309 308 307 307 306 305 305 305 304 303 303 302 302 302 303 304 307 308 310 311 311 313 314 312
330 330 329 326 326 325 326 321 319 318 318 317 317 315 312 310 309 308 306 305 305 305 304 303 303 302 302 301 301 301 301 303 304 306 307 306 306 307 308 310 311 312 312
331 331 329 328 326 319 321 316 315 315 314 313 312 310 309 308 307 307 306 304 303 302 301 300 299 299 300 304 305 305 304 303 305 305 303 300 302 302 304 305 306 309 311
329 326 327 327 323 316 315 314 313 312 311 310 309 308 308 307 307 305 304 302 301 299 301 302 304 304 304 305 304 301 302 304 300 302 298 299 298 300 299 299 299 301 305
318 316 316 316 315 315 314 313 313 311 310 309 308 308 307 306 304 303 301 300 297 296 298 300 302 302 302 302 300 300 299 299 300 297 298 297 298 298 297 296 296 297 299
315 314 314 314 314 314 314 313 312 311 310 307 306 305 304 304 303 301 298 297 297 296 296 298 299 298 299 299 298 298 297 297 297 298 297 298 297 296 296 294 294 296 297
314 315 315 314 314 314 314 314 313 312 310 306 305 304 304 302 301 298 298 298 297 296 298 298 297 298 297 297 296 296 296 296 297 295 296 295 295 294 293 293 293 296 295
314 314 314 314 313 313 312 312 312 311 309 306 305 305 303 301 299 298 298 298 295 296 297 296 296 296 295 294 295 295 295 294 295 295 294 293 293 293 293 293 293 294 293
313 313 313 313 313 312 312 311 310 309 307 306 304 304 303 301 299 299 298 297 295 296 295 296 295 295 294 293 294 294 294 294 294 294 294 293 293 293 293 292 292 293 293

GFSSE_925_thetae_030.txt.gz
Theta_e
340 338 337 337 336 336 335 334 334 334 333 334 334 332 331 329 328 328 328 327 325 330 325 318 317 318 319 320 322 323 324 324 326 326 325 324 324 329 326 327 335 333 334
339 337 337 336 336 335 335 334 334 335 334 333 332 330 328 326 325 323 318 317 317 324 319 314 315 316 317 318 319 319 321 323 324 325 326 327 325 329 329 329 330 329 331
339 337 337 336 336 335 335 335 335 334 332 330 328 326 325 323 318 317 315 312 314 323 324 316 312 311 310 311 312 316 318 320 322 323 326 328 329 330 330 328 325 328 329
338 337 337 336 336 336 336 335 333 330 328 327 325 323 320 317 315 314 311 310 310 313 317 315 310 310 309 309 309 310 311 315 322 325 328 328 330 330 329 326 325 325 325
338 337 337 336 336 335 333 331 329 327 326 324 321 318 317 315 315 313 310 309 309 310 310 310 310 309 309 309 311 311 310 312 320 325 328 329 329 330 327 326 324 325 325
338 337 336 335 333 331 329 327 326 325 321 319 318 316 315 315 314 311 311 310 310 312 316 317 317 316 311 314 316 316 315 318 321 323 328 329 329 328 328 327 326 326 328
338 337 335 333 330 327 326 325 323 320 318 318 316 315 316 315 318 316 316 317 318 318 318 318 318 317 318 318 317 317 317 318 320 321 324 328 329 328 326 326 325 324 324
339 336 333 330 326 324 324 321 319 318 318 316 316 319 318 321 321 320 319 319 319 318 317 317 317 317 317 317 317 317 316 315 317 317 317 318 325 324 326 326 324 322 320
336 331 328 325 323 321 318 318 318 318 317 317 322 323 322 323 323 322 320 320 319 318 317 317 317 316 317 317 317 317 317 316 314 313 314 315 315 317 320 321 320 317 315
330 325 321 319 318 318 317 317 318 318 317 322 324 324 324 324 324 323 321 320 320 319 318 318 318 317 316 316 316 316 316 316 316 315 313 312 312 314 314 319 318 316 313
325 319 318 317 317 314 316 316 317 318 324 325 326 326 325 325 325 324 323 321 320 319 318 318 318 318 317 316 316 316 317 316 316 316 315 314 312 311 312 314 314 313 311
321 321 320 317 313 314 315 318 322 324 326 327 327 326 326 326 325 324 324 322 320 319 318 318 317 317 317 316 315 316 317 317 317 316 316 316 314 313 312 312 311 311 311
321 322 322 320 315 315 318 323 325 326 326 327 327 327 326 326 326 324 322 319 319 318 318 318 318 317 315 313 312 312 314 315 316 316 316 317 316 315 317 319 317 314 311
323 324 324 323 320 318 322 324 326 327 327 328 327 326 324 325 322 321 319 319 318 318 317 316 314 313 311 310 310 309 309 310 311 312 313 314 315 315 315 315 319 318 317
323 325 325 325 323 323 322 323 325 326 328 328 329 327 324 323 321 320 319 318 316 313 311 310 309 308 307 307 306 305 304 303 303 304 305 307 308 309 311 313 314 318 318
324 325 326 326 326 325 325 326 325 325 326 328 329 327 323 322 321 320 317 313 311 309 308 307 307 306 305 305 304 303 302 302 301 301 302 303 306 308 309 310 311 312 316
325 326 326 326 327 326 325 325 325 326 327 327 327 323 321 319 318 315 311 309 307 306 306 306 305 304 303 302 301 301 300 300 302 302 303 306 306 306 308 310 310 311 311
325 327 327 327 325 324 324 323 326 322 323 323 320 318 316 313 311 310 309 307 306 305 304 303 302 301 300 300 301 301 302 302 303 305 304 302 303 304 305 306 307 309 310
326 327 327 326 325 326 324 322 319 316 316 315 314 312 310 309 309 308 307 305 304 303 303 301 300 302 303 303 302 303 301 299 303 302 302 299 299 299 300 301 302 303 305
328 327 326 326 325 322 318 316 314 314 312 312 311 310 309 309 308 307 306 305 305 302 298 296 297 298 301 301 300 300 298 300 299 299 299 296 297 297 298 297 297 298 300
328 328 327 326 319 316 313 313 313 311 311 310 310 309 309 308 306 306 304 301 298 296 295 295 296 298 298 298 298 297 297 302 298 298 296 297 296 297 296 296 296 295 295
323 325 326 322 316 314 313 313 313 311 310 309 308 307 306 306 305 304 301 298 297 297 295 294 296 296 297 298 297 297 296 297 298 295 296 295 296 295 295 294 293 294 295
315 314 314 313 313 313 314 313 312 311 308 307 306 306 306 306 304 301 298 297 297 296 295 296 296 296 296 296 295 297 295 295 295 295 294 295 294 294 293 293 293 293 294
312 313 313 313 313 313 313 313 313 311 310 307 306 305 305 303 301 299 298 298 297 294 293 294 295 294 295 294 294 295 294 295 294 294 294 294 293 293 293 293 293 292 294
313 313 314 314 313 313 313 312 312 311 309 306 306 306 304 301 300 299 298 298 297 294 294 295 295 295 295 294 293 294 293 292 293 294 294 293 293 292 292 293 293 292 292
313 314 314 313 313 313 312 311 311 310 308 306 305 304 302 301 300 299 298 298 296 294 295 295 294 293 293 293 292 293 292 292 292 293 292 291 291 291 291 291 292 292 292

GFSSE_925_thetae_033.txt.gz
Theta_e
340 339 338 337 337 337 334 333 332 332 332 333 332 331 330 329 329 329 326 322 326 329 328 325 326 327 323 319 319 320 322 323 324 325 325 325 324 328 329 330 332 336 332
338 339 338 336 335 335 334 333 333 334 334 332 330 329 327 326 323 318 318 318 323 326 326 324 320 313 312 314 316 317 318 321 323 324 326 327 328 330 329 327 328 332 329
338 339 338 336 335 335 334 334 334 334 331 329 327 324 322 317 316 313 311 317 325 326 324 322 316 309 309 308 309 310 312 318 322 324 327 329 330 331 330 326 325 326 327
338 337 338 336 335 335 335 335 333 331 327 324 322 319 316 315 313 310 311 314 319 322 321 315 310 309 310 313 314 312 312 316 323 325 328 330 331 329 328 325 324 324 325
338 338 337 336 336 335 335 333 329 325 323 320 318 316 314 314 312 310 310 310 312 316 317 316 314 311 316 317 316 316 316 319 322 324 328 330 332 329 328 328 329 328 328
337 338 337 336 336 335 332 327 324 321 319 318 316 314 315 314 311 311 311 314 317 317 317 317 317 318 317 317 315 315 316 319 320 323 327 329 331 328 330 328 325 325 325
338 337 337 336 335 332 328 325 322 320 319 317 315 315 315 315 316 316 318 318 317 317 317 317 317 317 317 317 317 316 315 314 316 318 320 321 326 323 328 325 324 323 321
338 337 336 333 330 327 326 323 320 318 317 315 317 316 320 320 319 319 319 319 318 317 317 317 317 317 316 316 316 316 315 315 315 314 315 317 315 316 322 324 321 319 316
338 336 333 330 328 327 324 321 318 318 317 318 320 320 322 322 321 320 320 320 319 318 317 317 316 316 316 315 316 316 316 315 315 315 314 314 311 311 318 323 321 318 315
337 333 330 328 327 324 320 319 318 317 318 322 323 323 323 323 323 321 320 320 319 318 317 317 317 317 316 316 314 315 316 316 316 317 316 315 314 313 317 316 313 314 313
334 330 328 325 322 319 319 319 318 317 321 324 324 324 324 324 324 323 320 319 318 318 317 317 317 317 317 316 315 313 314 316 316 317 317 316 316 315 315 316 313 311 311
331 327 323 320 319 317 318 319 318 321 323 325 326 325 325 325 324 323 322 320 319 318 318 318 317 317 315 313 311 311 311 311 313 314 315 315 315 316 316 317 317 316 315
326 323 320 318 316 317 318 319 322 323 325 326 326 326 326 326 326 325 322 319 318 318 317 316 314 312 310 309 308 307 307 308 309 310 311 312 313 313 316 319 320 319 319
322 322 321 319 317 318 318 321 323 325 326 327 327 327 327 326 323 321 318 318 317 315 313 311 309 308 308 307 306 305 305 304 305 305 305 304 307 309 310 313 318 319 320
322 322 323 322 320 319 320 321 323 325 326 327 327 328 324 322 320 319 317 315 312 310 309 309 308 307 307 306 305 305 304 304 302 305 305 302 302 304 307 308 309 313 317
322 323 323 324 324 322 323 324 324 323 325 326 327 325 323 321 319 317 313 311 310 308 307 306 305 305 304 303 303 302 302 304 305 305 306 306 304 305 306 308 309 310 311
323 323 324 325 325 326 325 324 324 324 325 325 325 322 321 319 316 313 311 309 307 306 305 305 305 304 304 303 304 304 304 304 304 305 304 304 304 303 303 304 305 306 306
324 325 325 325 323 322 324 324 323 322 322 320 320 319 316 313 311 311 308 306 305 305 303 301 301 302 303 303 302 303 302 301 304 303 302 302 301 300 300 299 299 300 301
325 326 326 325 325 321 321 319 324 319 318 316 314 312 310 309 308 307 306 305 302 299 297 298 300 301 301 300 299 301 298 298 303 301 299 299 299 299 298 297 295 295 296
325 325 325 325 325 322 321 323 319 313 312 311 311 308 307 307 306 306 304 301 298 297 298 298 299 299 300 299 298 298 297 299 301 300 298 298 298 297 297 296 296 296 295
324 324 325 325 325 324 322 312 309 310 309 308 307 307 306 306 306 304 300 297 297 296 294 294 297 298 297 297 298 297 298 302 299 298 297 296 296 296 296 295 295 295 295
325 326 325 326 324 319 313 311 312 310 308 307 306 305 306 305 302 300 298 297 297 296 293 293 295 296 297 297 296 297 298 297 298 295 296 295 296 294 294 295 294 294 294
323 324 322 322 318 314 312 311 310 308 306 305 304 305 306 302 301 299 298 298 297 296 296 294 295 296 295 296 295 295 296 296 295 295 294 295 294 294 295 295 294 294 294
319 320 319 315 313 312 311 311 311 310 310 307 306 307 303 302 301 299 298 298 298 297 295 296 296 296 296 295 294 295 294 294 294 294 293 293 294 293 293 293 293 294 293
311 312 312 312 311 311 311 311 311 310 309 307 307 305 302 302 301 299 299 298 298 297 295 295 297 296 296 295 294 293 293 293 292 293 293 291 291 291 292 291 292 293 293
311 312 312 312 312 312 311 311 310 309 308 306 303 302 302 301 300 299 299 298 298 297 296 297 297 296 295 294 294 293 293 292 291 291 292 290 290 290 290 290 291 290 292

GFSSE_925_thetae_036.txt.gz
Theta_e
342 341 337 335 332 330 330 329 329 330 331 332 332 331 330 329 329 326 324 327 329 330 329 328 325 319 315 315 316 317 319 321 323 325 326 328 333 335 328 329 334 334 331
341 341 337 336 335 333 331 331 331 332 333 332 331 329 327 325 320 320 321 324 326 326 323 317 310 309 308 309 309 310 315 320 323 325 327 330 331 335 329 326 325 330 329
342 341 339 337 338 334 333 333 333 333 332 330 327 325 321 319 316 312 315 318 323 323 321 315 309 310 312 313 312 313 315 320 323 326 329 329 332 331 329 327 324 326 326
341 341 339 336 337 335 334 334 334 332 329 325 323 319 317 314 311 312 314 316 321 324 323 319 313 316 316 316 316 317 318 320 324 326 328 330 330 329 331 328 328 328 328
341 341 340 336 337 335 335 335 332 329 326 324 318 315 315 312 311 312 313 317 321 323 322 317 317 317 316 315 315 315 317 319 320 324 327 330 331 330 330 324 327 326 324
341 340 338 336 337 337 335 333 329 326 323 319 316 318 314 312 311 312 316 319 322 321 318 318 317 316 316 315 314 313 313 315 318 319 321 326 328 328 330 325 323 322 319
340 341 339 336 337 336 334 329 326 322 319 318 317 315 313 314 316 317 317 318 317 317 317 317 316 316 315 315 315 315 314 314 315 316 317 319 319 315 325 326 322 320 317
340 340 339 336 336 334 330 325 321 320 319 316 316 318 317 318 318 318 318 317 317 317 317 317 316 316 315 315 315 315 315 315 317 316 315 315 312 314 321 323 318 319 317
340 339 338 337 335 330 326 322 320 319 317 318 319 320 320 319 319 319 319 319 318 318 318 318 317 316 316 315 313 313 314 315 319 318 317 317 314 315 321 321 322 315 313
340 337 333 333 332 331 329 321 320 319 319 321 321 322 322 321 320 320 321 319 318 318 318 317 317 316 317 316 314 312 312 317 317 317 317 317 316 316 316 321 322 319 315
338 333 332 331 331 328 327 326 321 320 322 323 324 323 325 326 326 325 321 319 318 317 317 317 317 317 317 315 312 311 314 315 315 315 315 314 314 315 319 317 316 317 318
333 332 332 330 329 328 325 326 326 325 327 329 328 328 328 329 328 326 321 319 318 318 318 318 317 316 315 314 314 313 313 313 313 312 312 310 311 313 315 319 320 321 319
329 327 327 328 327 325 324 326 326 328 329 330 330 330 330 330 330 328 324 322 322 319 319 318 316 314 314 313 312 312 312 311 311 310 310 306 304 306 311 316 318 320 321
326 326 325 325 326 326 325 326 328 328 330 330 331 330 331 329 327 324 322 321 319 318 317 315 314 314 313 312 311 311 310 310 310 310 310 308 303 302 306 315 317 317 318
325 326 326 325 324 325 326 327 328 329 330 331 331 329 327 326 324 322 319 318 316 315 314 313 312 312 311 311 310 309 308 308 309 308 308 308 306 304 304 307 310 311 312
326 327 328 327 326 325 327 328 328 328 328 328 326 326 323 324 322 319 317 315 313 311 311 311 310 310 309 309 308 307 307 307 306 306 305 306 305 304 304 304 304 305 307
326 328 328 329 328 327 325 325 325 324 325 325 324 323 321 319 318 316 314 311 310 310 310 309 308 306 306 305 304 303 304 303 303 305 304 304 304 304 302 301 300 299 300
327 329 328 326 325 323 322 321 321 321 321 322 321 317 316 313 311 311 311 310 309 308 305 304 303 303 303 303 302 301 302 301 300 305 303 303 303 302 301 300 298 297 298
327 330 327 326 324 322 321 319 318 320 321 315 312 311 310 308 309 310 309 307 305 304 303 302 301 301 302 302 300 300 300 300 300 302 302 301 301 300 300 299 298 297 297
329 329 327 327 323 319 317 317 320 319 313 310 309 308 309 309 309 308 306 304 303 302 301 301 301 301 300 301 299 300 300 300 301 302 301 299 299 299 298 298 298 297 297
329 328 327 325 324 325 317 321 314 311 309 310 309 309 309 309 306 304 303 303 302 301 301 300 299 299 299 300 299 298 298 300 301 300 299 298 298 298 297 297 297 297 297
327 328 326 325 325 323 321 317 315 314 312 311 309 309 309 306 304 303 302 302 301 300 301 301 300 300 299 299 299 298 300 299 299 299 297 298 297 297 297 297 296 296 296
329 328 327 327 326 322 317 316 314 312 311 310 309 309 307 305 304 303 302 301 302 301 300 301 300 300 299 298 298 298 300 299 297 296 296 296 296 296 295 295 295 295 295
328 327 326 323 321 318 316 314 313 315 314 312 311 309 306 305 304 302 302 302 302 301 301 300 299 300 299 298 297 296 296 296 297 297 295 294 294 293 293 293 293 293 293
324 323 321 319 317 315 314 315 315 314 313 311 310 307 306 305 304 303 302 302 302 301 301 301 300 299 298 297 297 295 295 294 294 294 295 294 293 292 292 292 292 292 292
317 317 316 315 315 315 315 314 314 313 311 309 307 305 304 303 303 302 302 302 302 302 301 301 300 298 298 297 296 295 294 294 293 293 293 293 293 292 291 291 291 291 290

GFSSE_925_thetae_039.txt.gz
Theta_e
342 339 334 332 340 339 338 335 332 330 330 331 332 332 332 332 328 324 324 325 330 328 325 320 315 310 309 309 310 314 318 321 323 325 329 336 336 333 326 325 331 333 330
342 340 335 332 332 333 332 330 330 331 332 332 331 330 329 325 322 321 321 322 325 324 322 317 313 314 313 312 313 314 317 319 323 325 328 331 330 330 329 325 325 329 328
342 340 338 333 331 331 330 331 332 333 332 330 328 325 320 316 316 317 317 319 323 323 320 318 317 316 315 316 316 317 317 320 325 328 328 333 333 328 329 329 327 327 330
342 340 340 336 334 332 332 333 334 332 330 326 323 320 316 315 317 315 316 319 324 325 321 319 316 315 314 314 315 316 317 321 324 326 328 330 332 329 326 327 326 324 326
341 341 341 338 335 334 334 334 333 330 326 323 321 319 315 315 314 315 320 322 324 324 323 318 316 315 314 314 313 312 314 318 320 322 326 327 328 330 331 323 326 324 318
340 341 336 336 336 336 337 336 331 326 323 320 319 317 315 315 314 319 320 320 320 320 317 315 315 314 314 313 312 312 314 315 316 317 320 323 321 323 327 329 322 320 318
339 339 337 336 336 337 336 331 327 324 320 318 318 316 315 314 317 318 318 317 317 316 316 316 315 315 314 314 314 313 313 318 319 317 316 320 318 321 322 325 323 320 317
338 338 338 337 337 335 332 327 325 321 318 317 317 316 316 318 318 317 317 317 317 317 317 316 315 315 314 313 313 312 314 317 319 319 318 320 314 316 323 323 321 318 315
338 338 338 338 336 332 328 326 322 320 318 318 319 318 318 319 319 318 318 318 318 318 317 317 316 316 315 314 312 312 316 317 319 318 318 320 313 315 323 324 324 320 315
338 338 337 335 334 333 329 324 321 318 319 320 321 320 319 319 319 320 321 318 318 318 317 317 317 316 316 314 312 313 316 317 317 316 317 315 309 313 320 321 323 322 321
336 332 331 330 330 329 327 324 321 320 322 321 322 322 325 325 325 327 324 319 317 317 317 317 317 316 315 317 315 314 315 316 315 314 314 312 310 307 318 320 319 321 323
332 331 331 331 329 326 324 325 325 325 327 328 328 327 329 328 328 327 321 318 318 318 318 317 316 316 317 317 316 316 316 315 315 314 314 311 310 306 313 318 320 321 321
331 330 329 329 328 325 325 325 325 327 329 330 330 330 331 329 328 328 326 323 323 320 321 319 319 318 317 317 316 315 314 314 314 314 313 311 309 308 312 316 317 317 318
328 326 326 326 326 325 325 326 327 329 329 330 330 331 330 329 329 327 324 323 322 320 320 319 318 317 316 315 314 314 313 312 312 312 311 310 309 306 306 312 312 312 313
326 325 324 324 326 328 328 329 329 330 330 331 330 331 330 328 328 325 323 321 320 318 317 316 315 315 314 313 313 311 311 310 310 309 308 308 307 306 304 305 308 308 308
325 327 325 325 326 328 330 330 330 329 330 331 329 327 325 325 326 324 321 319 317 315 314 313 312 311 310 310 309 308 306 306 307 306 307 306 305 305 304 302 301 304 305
326 329 329 330 329 330 329 328 326 324 324 325 324 324 324 324 321 320 316 313 313 312 310 309 308 307 307 306 306 305 304 303 305 303 304 306 304 304 303 302 300 300 301
329 330 330 330 329 326 324 321 320 321 321 321 321 320 318 317 314 313 313 312 311 309 308 306 305 305 305 304 304 303 301 302 303 302 302 304 303 303 302 302 299 299 300
330 332 330 328 326 321 318 318 319 319 320 318 316 314 312 312 312 312 311 309 307 306 305 305 303 302 302 302 302 302 301 302 302 302 304 304 302 301 301 300 299 298 299
330 331 330 328 327 323 317 315 317 317 318 313 311 310 311 312 312 311 309 308 306 305 304 303 303 302 302 301 302 302 301 300 301 304 304 302 300 300 300 299 299 299 298
332 331 329 328 325 322 319 319 318 317 312 312 311 312 312 312 309 308 307 306 305 304 303 303 303 302 302 301 300 301 300 300 301 301 301 300 300 299 299 298 298 298 297
332 330 330 328 325 327 320 322 321 317 315 315 313 313 312 310 308 306 306 305 304 303 303 302 303 302 302 300 300 300 301 299 300 300 299 298 298 298 297 297 296 296 296
330 329 330 328 327 325 324 320 318 317 315 314 313 313 311 308 307 306 305 304 303 303 303 303 302 302 301 300 299 299 301 300 298 298 297 297 297 297 295 295 295 295 295
331 331 328 326 325 323 319 318 317 316 315 315 314 313 311 308 307 305 304 304 304 303 303 302 302 301 300 300 299 298 298 298 298 297 296 296 295 295 295 295 294 294 294
329 328 326 325 322 319 318 317 317 317 317 315 314 313 310 308 306 305 304 304 304 303 302 302 302 301 301 300 299 298 298 297 296 296 297 295 294 294 294 294 293 293 293
326 325 323 321 319 318 317 318 317 316 314 313 312 309 307 305 304 304 304 304 303 302 301 300 300 299 300 300 299 298 297 296 296 295 296 294 294 293 293 293 292 292 292

GFSSE_925_thetae_042.txt.gz
Theta_e
340 331 337 341 342 340 338 337 334 331 332 333 333 331 330 324 322 321 322 321 322 324 322 321 320 313 310 310 311 315 317 321 325 328 334 333 333 327 326 325 330 329 327
339 334 336 341 340 339 337 333 331 332 333 332 330 328 324 321 320 321 321 322 322 322 322 322 319 316 315 315 314 314 317 323 327 329 331 331 332 332 327 326 326 330 329
340 335 334 339 338 334 332 331 332 333 331 329 326 323 319 318 318 319 318 319 320 322 323 320 315 314 314 314 315 316 322 324 325 324 331 332 331 330 329 326 324 325 327
340 339 335 333 332 331 332 333 333 331 328 324 321 318 317 318 318 318 319 321 321 324 323 319 313 312 312 311 311 315 318 318 320 326 331 329 329 331 325 326 324 319 321
339 340 335 332 332 332 334 334 331 327 324 321 319 320 319 315 316 319 320 320 323 325 323 317 313 313 312 312 313 315 316 318 317 326 324 322 320 326 329 322 321 319 316
340 339 335 333 333 334 335 332 328 324 320 319 318 315 313 316 320 319 320 322 321 317 315 314 314 314 313 313 312 313 318 319 320 321 320 313 311 323 324 327 321 319 316
339 336 335 334 335 336 334 329 325 321 320 318 315 313 314 317 317 317 317 316 315 315 314 314 314 313 313 312 313 315 317 319 320 320 320 314 312 322 324 324 319 316 314
336 333 334 336 336 335 329 327 323 320 317 317 314 315 317 317 316 315 316 315 315 315 315 315 315 315 314 313 313 315 316 317 318 318 321 313 309 317 324 325 322 320 317
332 331 334 335 335 331 328 324 321 318 316 316 317 317 318 317 316 316 316 316 316 316 316 316 316 316 314 314 314 314 316 316 316 316 318 315 311 310 320 322 323 323 320
330 332 334 334 333 328 324 321 319 317 317 319 318 318 318 318 318 322 320 317 316 316 316 316 316 316 315 315 315 315 316 316 315 315 316 313 311 310 315 320 321 322 323
333 333 334 331 327 324 322 321 318 318 319 320 320 319 323 324 325 325 320 317 316 317 317 317 316 316 317 318 315 316 316 315 315 315 315 313 312 310 312 317 320 320 321
332 332 333 332 331 328 324 323 320 320 322 323 322 327 329 329 327 326 319 317 319 318 321 319 319 318 318 317 317 316 315 314 314 314 314 313 311 310 309 316 316 316 316
332 331 330 328 326 325 322 324 324 328 329 329 329 329 329 329 326 327 325 324 324 321 322 320 319 318 317 316 315 314 313 313 312 312 312 311 309 308 306 311 313 312 312
330 330 330 327 324 325 325 326 327 329 329 329 330 329 329 328 328 326 325 323 322 320 319 318 317 316 314 313 313 312 311 310 309 309 309 308 308 306 305 304 309 309 309
327 327 326 326 326 325 326 327 330 330 329 328 329 329 329 328 328 325 324 321 319 317 316 315 313 312 310 309 309 308 307 306 305 307 306 306 307 305 305 304 306 305 305
325 325 325 326 328 328 330 329 328 328 328 329 327 326 326 326 326 324 321 318 315 314 312 310 309 307 307 307 306 306 305 303 303 305 303 303 306 305 304 302 303 303 302
326 325 325 326 330 330 330 329 326 324 324 321 322 322 324 324 323 321 318 315 313 312 309 308 306 305 305 304 303 304 304 301 302 303 302 302 305 304 303 302 300 301 301
328 328 329 331 330 328 325 323 321 320 320 320 320 321 321 319 318 315 314 312 308 308 307 306 304 303 302 302 302 302 303 302 302 302 302 304 304 303 301 301 301 300 300
329 331 331 329 327 325 322 320 321 320 319 318 318 318 316 313 313 313 311 309 307 307 305 304 303 303 303 303 302 302 302 302 301 300 302 304 303 301 300 300 299 299 300
332 331 330 327 322 319 320 320 320 320 318 317 317 315 311 312 312 311 309 308 306 305 304 304 304 303 303 303 302 301 301 301 300 301 302 303 301 300 299 299 299 298 297
333 330 329 327 324 321 320 318 318 316 317 313 313 311 312 313 310 309 308 306 306 305 304 303 303 303 303 302 302 301 301 300 299 300 299 298 298 299 298 297 297 296 296
333 332 329 327 326 324 323 320 319 318 315 314 313 313 313 311 309 307 307 306 305 304 303 304 303 303 303 302 301 301 299 299 300 299 298 297 296 297 297 296 295 295 295
334 331 330 328 326 326 322 324 322 317 316 316 314 314 313 310 308 307 306 304 304 304 304 303 303 303 303 302 301 302 299 298 298 298 297 296 296 295 295 296 295 295 294
333 331 330 329 327 327 325 321 319 317 316 315 314 314 311 309 309 307 305 305 304 304 303 303 303 302 302 302 301 300 299 299 297 297 296 296 295 295 295 294 294 294 294
330 330 331 329 326 324 320 318 317 318 316 315 314 314 312 310 309 307 305 305 304 304 303 302 302 301 301 301 301 300 299 298 298 297 295 295 295 294 294 293 294 293 293
331 331 329 326 325 320 319 318 317 318 315 314 313 312 310 308 305 304 304 304 303 300 299 298 298 298 298 299 300 300 299 298 297 297 295 295 294 294 293 293 292 292 292

GFSSE_925_thetae_045.txt.gz
Theta_e
339 342 342 341 339 339 339 334 332 331 332 332 330 324 318 316 316 316 320 320 322 325 325 323 319 314 312 312 315 320 324 327 331 330 331 331 333 332 325 326 328 328 327
337 340 341 341 339 339 335 332 333 333 331 329 323 318 316 315 315 317 318 320 324 325 325 322 314 312 313 313 319 320 318 318 323 331 331 329 332 332 327 323 326 325 325
337 339 341 340 338 336 332 335 333 331 328 323 319 316 314 314 316 317 318 320 324 324 321 313 310 310 311 313 316 316 319 321 320 330 330 328 330 329 329 323 319 321 317
338 340 340 339 336 333 334 335 332 328 324 321 316 314 314 316 322 321 319 321 322 323 321 315 312 312 312 314 315 318 320 327 330 329 324 319 321 328 327 320 320 318 316
335 339 338 335 332 333 335 332 328 324 320 318 314 317 318 320 323 319 318 318 318 319 316 313 313 312 313 313 315 319 319 325 323 318 312 311 312 323 325 322 317 316 315
335 334 333 331 332 334 333 328 324 320 318 317 317 318 319 318 317 317 315 313 314 314 313 313 312 312 313 314 315 317 319 317 319 315 312 310 313 324 325 325 319 316 314
335 333 332 332 333 333 329 325 320 317 316 315 314 313 316 315 315 315 313 313 314 313 314 314 313 313 313 314 315 316 317 317 319 319 313 310 314 321 323 324 325 322 320
335 334 333 333 334 331 327 322 318 316 316 313 313 316 315 314 314 314 314 314 314 315 315 314 314 314 315 315 315 316 316 315 317 318 314 312 314 319 321 320 323 322 323
331 330 330 331 331 328 324 320 317 316 314 314 316 316 314 314 314 314 314 315 315 315 315 315 315 314 316 315 315 316 316 315 315 316 314 312 313 318 319 320 321 322 322
327 327 324 330 330 326 322 319 316 315 316 317 316 316 315 315 315 315 315 315 315 316 316 316 315 316 318 317 316 316 316 316 314 314 314 312 312 317 317 318 319 319 319
328 328 329 329 326 322 320 317 316 319 318 317 316 318 320 323 324 318 315 315 316 316 319 318 317 318 318 317 316 315 315 314 313 312 313 312 311 315 315 313 315 315 315
331 330 329 326 323 321 318 316 318 320 319 321 324 324 327 326 327 322 318 320 322 321 320 319 318 317 316 316 315 314 313 312 312 311 310 310 309 312 313 313 312 312 312
329 329 328 329 324 318 317 319 320 322 324 324 327 329 329 326 324 325 323 324 323 321 319 318 316 316 315 313 312 311 310 309 307 308 308 307 307 308 310 310 310 309 308
331 330 332 331 324 319 319 322 328 328 329 328 330 329 329 328 328 326 324 323 319 316 317 317 315 314 311 309 307 308 306 305 304 303 307 305 305 305 308 308 307 306 306
330 328 325 325 322 323 324 325 327 329 330 330 329 329 328 328 326 324 321 319 318 317 316 314 310 307 306 306 306 305 305 303 302 302 303 302 302 305 305 306 305 304 304
329 326 324 326 325 328 328 329 329 329 328 327 327 327 327 326 324 323 320 318 317 315 311 309 306 305 305 304 304 303 303 303 302 301 302 302 302 305 303 303 303 303 303
326 325 326 326 328 330 329 328 327 327 326 327 323 323 325 325 323 320 317 316 312 309 307 306 305 304 302 302 302 301 303 302 301 302 300 302 304 303 303 301 302 302 302
325 324 325 329 330 329 328 327 327 325 321 321 321 321 322 322 321 319 317 311 308 307 306 305 304 302 302 302 302 301 301 301 300 300 300 301 303 300 300 301 300 301 301
324 326 330 330 329 328 328 326 322 320 319 319 319 320 318 315 315 315 312 308 307 306 306 304 303 303 303 302 302 301 300 300 300 300 300 301 298 299 300 298 298 298 298
327 328 331 329 328 327 326 321 320 319 318 317 317 316 314 313 312 310 308 307 306 305 304 303 303 303 302 303 302 301 300 300 300 299 298 297 297 298 298 297 296 296 295
330 330 330 328 326 323 321 320 319 318 316 315 315 313 312 312 311 309 307 306 305 304 303 304 303 303 302 302 301 301 300 300 299 299 298 297 296 296 296 296 295 296 295
330 329 329 327 322 321 321 319 318 316 316 316 312 312 313 311 309 308 307 306 305 304 304 303 303 303 303 302 302 300 298 299 299 299 298 297 296 295 295 295 295 294 294
329 328 328 325 323 321 322 321 318 317 316 312 313 313 313 310 309 307 306 305 304 304 304 303 303 303 302 302 302 301 297 296 297 298 298 296 296 295 295 294 294 294 294
330 328 327 326 326 324 325 321 320 315 314 314 314 313 312 310 308 307 306 305 305 304 304 303 302 301 300 299 299 299 301 299 295 295 296 297 296 295 295 294 293 293 292
330 329 328 328 327 326 325 323 317 316 316 315 314 314 312 310 309 308 306 305 305 303 301 300 298 298 298 298 298 300 300 299 298 296 295 294 296 295 294 293 293 292 291
331 330 329 328 326 327 324 321 318 317 316 315 314 313 312 310 309 306 305 303 301 299 298 297 297 296 296 297 298 298 300 298 297 297 294 293 294 294 293 293 292 291 291

GFSSE_925_thetae_048.txt.gz
Theta_e
343 342 342 339 336 338 334 331 332 333 331 326 318 314 311 309 312 316 321 324 327 326 325 322 320 321 318 316 318 318 323 330 331 328 328 333 332 329 325 326 323 327 332
342 342 341 338 337 337 333 333 334 332 327 319 314 312 310 312 316 320 324 325 326 324 323 319 313 314 315 318 322 319 318 328 330 327 324 329 331 330 326 320 320 320 324
343 342 339 338 338 334 332 333 332 329 321 316 313 313 313 315 318 321 323 324 324 323 321 314 313 313 316 318 326 327 320 329 329 323 323 322 326 328 324 320 322 322 324
342 342 340 339 336 333 334 335 332 327 320 314 317 320 319 323 323 324 320 319 320 322 316 313 313 314 316 316 325 329 329 327 319 312 314 318 321 323 321 316 316 319 316
342 341 340 337 333 334 335 334 327 319 315 315 316 325 326 323 323 317 315 316 316 314 313 313 313 314 315 316 316 318 320 315 312 312 314 315 319 324 320 320 320 316 314
341 340 338 333 333 335 334 328 321 316 315 317 317 324 323 318 315 313 313 313 313 313 313 313 313 314 314 315 316 315 317 317 315 313 312 314 321 323 323 313 316 323 324
340 338 333 332 335 333 327 322 318 316 315 314 315 319 316 314 312 313 313 313 314 314 313 313 314 315 315 315 316 315 315 318 316 313 313 315 319 322 321 319 321 323 323
336 334 332 332 332 327 323 320 316 315 313 314 317 314 313 312 312 313 313 314 314 314 314 314 315 316 316 315 316 316 315 314 316 313 313 318 319 320 321 320 321 321 322
333 331 329 329 327 323 320 317 315 313 312 316 314 313 312 312 312 313 314 314 315 314 315 314 316 317 316 316 316 316 316 314 313 313 312 314 318 319 319 318 318 317 317
327 324 322 318 322 323 320 316 314 313 316 315 313 313 313 312 313 313 314 315 315 316 316 315 317 318 317 316 316 315 315 313 312 311 311 311 316 317 316 316 315 315 314
324 321 320 319 324 322 319 316 314 316 316 315 314 314 316 317 315 313 314 315 317 319 318 318 318 317 316 315 315 313 312 311 311 309 309 309 312 314 314 314 313 312 312
327 321 321 327 326 322 319 317 317 316 316 317 322 324 325 325 322 316 316 318 319 319 319 318 317 316 315 314 311 310 310 308 307 305 306 307 308 312 313 312 311 309 308
326 327 329 329 324 319 316 318 318 318 319 324 325 326 326 326 323 319 321 321 321 320 318 316 315 315 312 309 308 307 305 305 304 303 306 306 305 309 310 310 309 307 307
328 330 330 328 322 318 318 319 319 320 323 325 327 327 328 326 326 325 321 323 319 316 315 314 313 310 307 306 305 304 304 303 302 302 303 302 302 307 309 308 307 306 306
329 330 331 324 319 317 319 320 323 324 325 328 329 329 329 327 326 323 321 318 316 315 315 313 310 307 306 304 304 302 302 302 302 301 301 301 302 306 308 307 305 305 305
329 329 328 324 320 319 321 325 327 328 329 329 329 328 328 326 323 320 317 316 315 314 310 308 306 304 302 301 301 301 302 301 301 300 301 302 304 304 304 304 304 304 303
327 330 331 325 322 323 324 326 327 329 329 328 327 327 327 325 322 319 317 315 313 310 308 306 305 302 301 301 301 301 301 300 300 300 300 300 306 304 303 303 302 303 302
326 325 326 324 324 324 326 328 329 328 327 325 324 324 324 324 321 318 317 312 309 307 306 304 303 303 302 302 302 301 301 300 300 299 299 298 300 301 303 300 301 300 300
326 326 326 327 329 329 328 328 327 325 323 321 321 321 322 321 320 318 311 308 307 306 305 303 303 303 302 302 302 301 301 300 299 299 298 298 297 297 297 297 296 295 296
324 326 327 329 328 327 326 324 321 320 319 318 318 318 317 316 314 310 308 307 306 304 303 303 303 302 302 302 302 301 301 300 299 299 298 298 297 296 296 295 295 295 295
324 326 326 329 328 327 324 322 319 318 318 317 317 316 314 312 311 309 307 306 305 304 303 303 303 302 302 302 301 301 300 300 299 299 298 298 297 296 295 295 295 294 293
326 327 327 329 327 326 325 324 321 320 318 317 314 312 311 311 309 308 307 305 305 304 303 303 303 302 302 302 302 300 297 299 298 299 299 298 298 296 295 294 294 293 293
326 327 328 328 328 326 325 321 320 318 316 313 312 312 312 310 309 308 307 307 305 304 304 303 302 301 300 299 298 299 297 296 295 299 298 298 296 297 295 294 293 293 292
326 326 327 327 327 324 321 320 319 316 313 313 312 312 312 309 309 307 306 304 304 304 303 302 300 298 297 297 297 297 297 299 295 296 297 297 297 295 295 294 293 293 292
327 326 327 327 325 323 321 322 318 317 317 314 313 313 312 310 309 307 305 305 304 303 301 299 297 296 296 296 296 297 298 299 298 295 294 294 295 296 295 294 293 293 292
327 327 327 327 325 325 322 323 321 318 315 314 313 313 311 309 308 307 306 304 303 301 299 297 296 295 295 295 296 297 298 298 297 297 296 295 293 294 293 293 292 290 290

GFSSE_925_thetae_051.txt.gz
Theta_e
343 343 337 334 334 330 328 330 331 328 323 317 313 311 310 311 313 315 319 323 326 325 325 325 324 325 322 319 322 329 329 327 324 325 332 331 330 329 327 324 323 327 331
343 342 337 336 335 331 328 330 330 325 318 315 314 314 314 314 320 322 324 324 324 325 324 324 325 325 325 320 319 329 329 323 317 319 322 327 327 326 325 321 322 325 326
343 341 337 338 335 330 329 331 329 321 320 321 321 314 314 319 323 321 322 323 324 324 324 323 323 328 326 321 321 330 326 316 316 318 320 322 324 324 323 322 322 322 323
342 342 339 338 335 332 332 331 325 321 323 323 320 317 317 321 325 321 319 320 322 322 322 322 317 320 327 327 327 323 314 312 313 316 319 321 324 324 324 323 324 323 321
342 341 339 337 333 333 332 329 323 319 315 318 319 323 327 327 325 316 315 315 316 317 318 320 317 315 315 317 318 314 313 313 314 316 318 320 323 324 323 323 321 323 324
341 340 338 335 335 334 332 325 319 319 318 322 324 326 327 325 315 314 313 313 313 313 314 314 315 315 315 315 316 318 315 313 313 314 316 321 322 323 322 322 322 323 323
341 340 336 334 335 334 326 319 317 316 319 322 325 320 316 314 313 313 313 313 313 313 315 315 316 315 315 315 315 314 315 315 313 313 316 318 321 322 321 321 320 321 321
337 338 334 332 333 327 321 317 316 315 316 322 320 315 312 312 313 313 313 313 314 314 315 316 316 316 316 315 315 315 313 313 313 312 314 318 320 320 319 318 316 315 317
331 331 332 330 326 321 319 314 313 311 316 318 315 312 312 313 314 314 314 314 315 314 315 317 317 316 316 316 315 315 313 312 311 310 312 316 318 318 317 316 315 314 314
330 328 326 322 321 319 321 313 312 314 317 314 312 312 312 313 314 314 315 315 316 315 316 317 317 317 316 315 313 312 311 310 309 308 309 311 316 316 315 314 313 312 311
324 324 322 320 317 317 314 312 312 315 316 313 313 313 313 314 315 315 316 318 317 317 317 317 317 316 315 314 311 310 308 307 306 305 308 311 312 314 313 312 311 310 309
319 317 316 316 316 319 318 314 314 318 315 313 314 315 317 315 315 315 317 319 318 318 318 317 316 315 314 312 309 306 304 304 303 304 307 307 310 312 312 311 310 309 308
321 320 319 320 315 322 321 319 317 317 315 316 317 322 323 320 316 318 319 320 320 318 316 315 315 312 309 307 306 305 304 303 302 302 302 302 306 308 311 309 308 308 307
324 324 325 323 325 325 318 317 318 317 318 320 322 325 326 324 319 319 320 320 318 316 315 314 311 307 306 305 304 302 302 302 302 301 301 301 302 308 310 308 307 307 306
327 326 328 328 326 322 318 319 318 318 320 323 324 327 327 326 324 320 322 320 316 314 314 310 307 305 302 301 300 301 302 301 301 301 300 301 302 308 308 307 306 306 305
327 329 328 329 323 319 316 320 319 321 323 326 328 328 328 327 326 322 320 316 314 312 309 307 305 303 300 300 301 301 301 300 300 299 299 301 305 308 306 305 304 305 303
328 329 329 330 322 319 318 320 321 324 326 329 328 328 327 325 323 320 316 314 312 308 306 305 303 301 301 301 301 301 300 299 299 299 300 303 305 304 303 302 302 302 302
328 328 330 326 322 319 320 322 325 327 329 328 327 327 326 324 319 317 315 312 308 306 306 304 302 302 302 302 302 301 300 300 299 298 298 299 300 303 303 300 300 299 299
328 327 328 327 322 322 322 325 326 328 328 327 325 325 323 320 317 316 313 309 306 306 304 303 302 302 302 302 302 301 301 300 298 298 298 297 297 297 296 296 296 295 296
326 326 328 329 323 324 325 327 328 327 324 323 322 321 321 318 316 314 309 307 306 305 304 303 302 302 302 302 301 301 300 299 299 299 298 298 297 296 296 295 295 295 295
325 325 327 325 323 325 327 326 325 323 321 319 319 320 319 317 313 309 308 306 305 305 304 303 302 302 302 301 301 300 299 299 299 298 299 299 298 298 296 295 294 294 293
324 325 326 326 327 327 327 325 322 320 318 317 317 315 314 313 310 308 307 307 306 305 303 303 303 302 302 300 299 298 296 298 298 298 298 298 298 296 296 295 294 293 293
324 325 326 327 327 327 326 324 320 318 317 315 314 313 313 311 310 309 307 306 305 304 303 303 302 300 299 298 297 297 295 295 295 298 298 298 297 296 296 295 293 293 293
324 324 325 326 327 326 325 323 321 319 317 317 316 313 311 311 309 307 306 305 304 304 303 301 299 297 296 296 296 297 297 297 295 294 297 297 297 296 295 295 294 293 292
324 324 324 324 325 325 325 323 320 319 319 318 315 312 312 310 308 307 306 305 304 304 300 298 297 296 295 295 295 296 296 297 297 294 292 294 295 294 295 295 293 293 290
325 324 324 324 325 326 324 322 320 320 318 315 313 311 312 310 307 306 304 304 302 300 299 297 296 295 295 295 296 297 297 297 297 296 293 295 295 293 293 293 292 290 290

GFSSE_925_thetae_054.txt.gz
Theta_e
343 341 337 337 337 336 332 332 329 326 322 319 313 313 318 323 323 322 324 324 326 326 327 324 320 322 327 331 327 323 320 320 326 329 328 328 327 327 325 323 322 323 326
344 340 337 336 337 335 331 328 324 322 320 318 313 316 320 320 320 321 324 325 325 327 329 331 326 320 323 329 326 315 314 315 315 317 320 324 324 324 323 324 323 324 325
344 339 338 336 335 331 330 326 320 315 313 314 315 321 320 319 320 323 325 325 325 326 330 331 323 320 325 328 318 313 313 315 317 320 322 324 325 324 324 325 324 323 324
343 339 337 335 335 331 329 323 316 312 310 310 323 327 324 320 322 323 324 323 322 323 327 327 325 325 326 322 312 313 314 316 317 319 321 323 324 324 324 324 324 324 324
341 340 337 335 335 331 327 320 315 313 311 313 321 328 327 324 322 321 322 322 322 322 322 320 318 319 316 313 314 314 313 314 315 316 319 321 323 323 323 323 323 324 324
341 339 337 335 334 330 325 321 315 312 316 318 327 327 327 325 320 317 319 321 321 320 319 315 315 316 316 317 316 315 313 313 314 315 318 321 322 322 321 320 321 322 322
339 339 337 334 333 330 323 315 312 313 317 325 327 326 325 320 315 314 313 315 319 316 315 315 315 315 315 314 314 313 313 313 312 314 318 320 320 320 319 317 317 317 319
338 335 336 335 333 326 318 314 316 315 322 327 325 324 319 314 314 313 313 314 315 315 315 316 315 315 315 314 314 312 311 311 310 312 316 319 319 318 317 316 315 315 315
333 333 332 329 324 319 316 316 318 322 324 320 319 316 314 314 313 313 314 314 315 316 316 316 316 315 315 314 313 311 310 308 308 310 314 317 317 316 315 314 313 312 312
327 327 319 317 319 319 319 316 315 325 318 315 314 314 314 315 315 315 315 314 316 317 317 316 316 315 313 312 310 309 308 307 305 307 310 314 315 315 314 312 311 310 310
325 325 325 320 317 314 314 317 319 317 314 314 314 315 315 315 315 315 316 315 316 317 317 317 316 314 312 309 307 307 306 305 304 306 308 311 313 314 312 311 310 309 309
323 321 318 316 318 316 318 316 311 316 315 314 315 315 316 315 316 317 317 317 318 317 317 315 314 314 312 308 305 304 303 302 303 303 304 307 309 312 312 310 310 308 308
321 320 318 317 317 315 317 310 314 317 315 315 316 316 315 315 316 317 318 318 318 317 315 313 313 311 309 306 304 303 303 302 301 301 301 302 303 309 311 309 309 308 307
318 317 316 315 315 312 316 313 316 315 315 316 317 320 318 316 317 318 319 319 318 315 313 313 310 307 305 303 301 301 301 301 301 300 300 301 301 308 310 308 307 307 306
320 318 317 314 313 318 320 316 317 316 316 318 321 325 324 319 318 319 320 317 315 313 312 308 306 303 301 300 300 301 300 300 299 298 298 300 303 308 309 307 306 307 305
322 321 320 318 322 322 320 317 317 317 318 321 322 325 326 325 323 320 319 315 313 312 308 306 303 301 300 300 300 300 300 299 298 299 300 304 307 307 306 305 304 304 304
324 325 326 327 327 324 320 318 319 318 320 323 326 327 328 325 325 321 319 314 312 308 307 305 302 301 301 300 300 300 300 300 298 299 301 305 306 305 303 302 303 303 302
326 327 328 328 328 324 320 319 319 320 322 326 328 328 328 326 325 319 315 313 309 307 306 304 302 301 301 300 301 300 300 300 298 298 298 299 301 302 301 299 298 297 298
327 328 328 328 328 323 320 319 320 321 325 327 327 326 325 323 320 318 315 312 308 306 305 303 302 302 301 301 301 301 300 299 298 298 297 298 297 297 297 296 296 295 295
327 327 328 328 327 322 319 320 322 325 328 327 326 325 324 320 317 316 313 309 306 305 304 303 302 301 301 301 301 301 300 299 298 298 298 297 298 297 297 296 295 295 295
328 328 326 328 325 321 322 323 325 326 326 325 323 322 321 319 316 314 311 307 306 305 304 302 302 302 301 300 300 299 299 299 298 298 298 298 297 298 296 295 295 293 293
327 327 326 327 327 324 322 323 325 326 324 321 320 319 318 317 315 311 309 307 305 305 303 303 303 302 301 298 297 297 295 296 298 298 297 298 297 296 296 295 294 293 292
326 327 326 327 328 325 323 324 324 323 320 317 317 317 317 314 311 309 307 306 305 304 303 303 302 301 299 297 296 295 292 293 294 296 297 297 297 297 296 295 295 294 292
325 326 326 325 326 323 323 324 324 323 318 317 317 316 315 312 310 308 306 305 304 304 303 302 299 297 296 295 295 296 296 296 294 294 297 297 297 295 294 294 294 293 292
323 325 326 325 325 324 324 325 324 321 319 318 317 315 313 311 309 308 306 305 304 303 301 298 296 295 294 294 294 295 295 296 296 294 294 294 295 294 293 292 293 292 290
323 324 324 324 324 324 324 324 323 321 318 318 316 313 311 311 307 306 305 304 303 301 299 297 295 294 294 295 295 296 296 296 296 295 291 292 294 293 292 292 292 291 290

GFSSE_925_thetae_057.txt.gz
Theta_e
342 341 335 331 329 329 332 334 332 330 328 325 318 313 312 317 320 321 321 323 325 329 331 332 335 334 331 320 315 314 315 320 323 324 325 325 325 325 325 322 324 325 325
342 341 335 332 330 329 329 328 328 326 321 315 310 309 315 322 322 321 323 322 323 329 326 329 333 333 326 314 314 315 316 316 316 318 324 324 325 325 324 323 323 324 325
341 340 337 335 331 329 328 325 321 316 311 311 309 315 322 324 323 323 324 326 331 332 332 329 333 331 316 313 314 315 315 316 317 317 322 322 323 325 325 325 325 325 325
340 339 339 337 335 331 328 321 316 320 319 311 314 322 326 326 324 323 324 329 331 331 331 332 333 321 313 314 314 314 314 315 316 320 321 322 322 324 324 324 324 325 325
340 339 338 336 335 333 327 322 322 317 313 318 320 323 326 325 323 322 322 325 327 328 330 329 322 314 314 314 314 314 314 315 316 321 321 322 321 322 322 322 322 323 323
339 338 335 335 333 328 321 322 315 311 317 322 325 324 324 325 323 320 320 321 319 318 319 318 315 315 315 315 314 313 313 313 318 319 320 321 320 320 319 319 319 320 320
338 337 335 334 331 327 320 310 310 319 320 323 325 322 324 323 321 321 318 317 315 315 315 315 316 315 314 314 313 312 312 311 317 317 318 319 319 318 317 316 316 317 317
336 336 335 334 333 330 329 326 316 319 321 327 320 321 320 320 320 320 317 316 315 315 315 315 315 314 314 313 312 311 309 309 314 315 316 317 317 317 315 314 313 314 314
330 331 325 320 319 317 319 327 322 323 327 321 323 318 317 316 316 316 315 315 315 315 316 315 315 314 313 312 311 309 308 307 312 313 314 316 316 315 314 312 311 311 311
329 328 325 324 319 314 318 323 325 325 323 322 317 315 314 314 314 314 316 316 315 315 315 315 314 313 312 311 308 307 305 305 310 311 313 314 315 315 313 311 310 310 310
322 323 322 320 317 313 312 318 324 324 318 318 315 315 314 316 315 316 317 316 316 316 315 314 313 312 310 307 306 305 305 305 309 310 310 312 314 314 312 311 310 309 309
323 321 320 318 316 316 314 314 314 319 318 314 315 315 315 315 316 315 316 317 316 315 312 312 311 309 307 305 304 304 303 302 302 303 307 306 309 313 312 311 309 309 308
322 318 315 314 314 314 313 315 321 320 316 315 315 315 316 316 316 316 317 317 315 314 314 313 310 307 305 304 302 301 301 301 301 301 301 301 302 311 311 310 309 308 307
321 319 319 320 322 317 316 319 320 315 314 314 315 315 315 316 317 317 317 316 315 314 314 312 308 305 302 300 300 300 300 300 299 298 299 300 302 309 310 308 309 307 306
320 320 321 323 323 321 319 319 316 314 314 314 316 316 315 315 317 318 318 316 315 313 311 309 306 303 300 300 300 299 299 299 297 299 304 302 306 309 309 307 307 306 306
319 319 320 322 320 320 316 314 317 314 314 316 318 321 319 317 318 319 318 316 313 310 309 307 303 301 300 300 299 299 299 298 298 299 305 307 308 308 306 305 305 305 304
320 320 321 318 313 317 318 315 317 317 316 317 321 324 325 322 318 319 317 314 311 308 307 304 302 301 300 300 299 299 299 298 298 297 301 306 306 306 304 303 303 301 301
321 322 324 321 321 325 321 317 317 317 318 320 322 323 324 325 323 320 317 313 309 307 306 304 302 301 301 301 301 301 300 299 298 297 299 301 302 302 300 298 297 296 296
323 324 326 326 326 326 323 319 318 318 319 321 325 327 327 326 324 321 317 312 308 307 305 304 302 301 302 302 302 301 300 300 298 297 298 298 296 297 298 297 296 296 295
325 325 327 328 327 327 323 320 319 320 320 323 326 327 325 325 323 318 314 311 308 307 304 303 302 301 302 302 301 301 301 300 299 298 298 297 297 297 297 296 296 296 294
326 326 327 328 328 328 323 321 321 322 323 326 327 325 324 321 320 316 313 310 307 306 305 303 302 302 302 301 302 301 300 299 299 298 298 298 297 297 296 296 296 295 294
326 326 326 326 327 327 323 320 320 321 323 326 326 324 322 319 316 315 313 309 307 305 304 302 302 303 302 299 300 299 300 299 299 299 298 298 298 297 296 296 295 294 294
326 325 326 326 326 325 322 319 320 322 323 323 321 320 318 316 315 313 312 309 306 304 304 303 303 302 302 299 296 297 298 298 297 297 298 298 297 297 296 296 295 295 293
326 325 325 326 326 326 325 321 321 322 322 320 318 319 317 315 314 312 309 306 304 304 303 303 302 300 297 298 297 297 297 297 297 297 297 297 297 297 296 295 293 294 293
326 325 325 325 326 326 326 323 321 321 322 320 319 318 315 313 311 309 306 305 304 304 303 303 300 297 295 296 296 296 297 297 297 297 297 297 296 295 294 293 293 293 291
326 325 325 325 325 324 324 322 321 321 320 319 317 315 314 312 310 308 306 305 304 303 302 299 297 297 295 295 294 295 296 296 296 296 297 296 295 294 294 293 292 292 290

GFSSE_925_thetae_060.txt.gz
Theta_e
343 340 338 341 342 342 341 338 337 335 331 329 325 321 319 317 317 320 325 330 333 335 337 335 331 329 329 328 320 316 317 320 322 322 325 326 326 326 325 324 325 325 327
343 339 337 341 341 343 341 339 337 333 329 325 322 319 315 315 319 322 325 330 333 335 336 334 328 327 322 314 315 316 316 317 321 324 324 324 326 326 326 326 325 326 327
343 340 338 339 341 341 340 338 333 329 324 319 318 318 315 318 322 324 328 331 333 335 335 333 327 322 316 316 316 316 316 315 319 321 322 322 323 325 325 326 326 326 326
342 340 338 337 338 337 335 331 328 323 318 315 317 318 317 321 323 328 331 332 333 333 335 329 325 321 315 315 314 314 314 316 321 321 321 322 321 323 323 323 323 324 325
342 339 338 335 333 331 329 326 321 318 316 324 323 320 321 323 324 328 331 330 330 333 333 327 322 315 314 314 314 314 314 318 320 321 321 321 320 320 320 321 320 320 320
341 339 337 335 334 329 324 321 322 324 329 327 322 322 323 322 326 328 329 330 333 332 329 321 315 315 315 314 313 313 313 318 319 319 320 319 319 318 318 318 318 319 319
338 339 337 335 334 330 330 328 327 329 327 324 323 323 322 321 323 324 324 325 327 324 318 315 316 315 314 313 313 311 311 316 316 317 318 319 318 317 315 315 316 316 316
335 333 336 334 332 328 324 326 330 330 327 327 325 325 321 320 320 319 319 319 318 316 316 315 315 314 313 312 310 309 310 314 315 316 318 317 317 315 314 313 313 313 314
330 329 328 326 326 322 319 320 323 329 329 327 325 325 319 319 318 317 316 315 315 315 315 315 315 314 312 310 309 308 307 312 314 314 316 316 316 315 313 312 312 312 312
324 326 325 326 322 318 314 314 321 327 328 325 324 320 319 318 316 316 315 315 315 315 315 315 314 312 310 308 307 306 307 310 311 312 314 314 316 314 312 311 311 311 311
322 320 319 320 319 318 317 317 318 325 323 321 317 316 317 320 320 319 320 316 315 315 315 314 312 309 307 306 305 305 309 309 309 310 311 315 315 314 312 311 310 310 310
323 320 318 319 317 315 316 315 319 318 324 318 316 320 321 320 321 322 320 316 315 314 313 311 308 308 309 309 306 305 306 305 305 305 307 307 312 314 312 310 310 309 308
322 319 318 317 317 320 323 323 321 324 319 316 318 321 322 322 321 321 318 316 314 313 311 309 311 311 309 307 305 305 305 304 304 303 303 301 305 314 311 311 309 308 307
319 319 318 317 317 317 318 317 315 314 312 319 322 322 323 322 322 321 319 318 315 314 313 312 311 308 306 305 305 305 304 303 303 303 303 300 303 312 310 310 309 308 307
318 318 317 319 317 316 318 321 321 321 320 320 322 322 322 322 322 321 319 317 315 314 313 311 309 307 306 305 304 304 303 303 303 305 308 303 306 311 309 308 309 306 306
318 320 320 320 320 321 322 324 322 321 321 322 322 322 323 322 322 321 318 316 314 314 312 310 309 307 306 305 304 304 303 302 303 305 306 307 309 309 307 306 306 305 305
319 319 321 321 323 322 322 323 322 321 321 320 322 325 322 321 321 320 318 316 314 312 310 309 308 307 306 304 304 303 303 302 302 302 304 306 306 306 305 304 303 302 301
321 322 322 322 323 324 322 322 321 321 320 320 323 326 327 324 323 320 317 315 312 310 310 309 309 308 306 305 305 304 303 302 302 301 302 304 303 300 301 300 298 297 297
322 322 322 321 322 326 326 322 322 322 321 322 325 327 329 328 323 320 318 315 311 311 308 309 309 308 307 306 305 305 304 303 302 300 301 301 300 299 299 299 297 296 296
322 323 323 323 324 328 328 325 322 323 322 324 326 328 329 327 323 321 318 314 311 311 311 309 309 307 307 307 305 305 305 304 302 302 301 300 300 299 299 298 298 298 296
324 325 326 326 327 329 328 324 321 322 323 324 326 328 326 325 322 321 318 313 311 311 311 310 309 308 307 306 307 307 305 303 303 302 301 301 300 299 299 298 298 297 297
326 325 326 328 329 329 327 323 321 321 323 323 326 325 325 323 321 319 316 312 310 312 310 309 308 308 308 306 306 305 309 306 303 302 302 300 301 300 299 299 298 298 297
328 327 327 328 329 328 328 324 322 322 324 324 325 325 323 321 320 318 314 311 310 311 310 309 309 308 309 306 303 303 308 308 304 302 300 300 300 299 299 299 298 296 296
329 328 327 328 329 329 328 326 323 321 321 323 325 325 324 320 318 316 312 310 310 310 310 309 308 308 306 305 301 299 301 301 303 303 300 299 300 299 299 298 296 295 295
330 329 329 327 328 329 328 327 325 323 321 323 326 324 322 318 314 311 310 309 308 309 309 308 307 305 301 298 298 300 300 300 299 300 300 299 298 298 297 296 296 295 295
331 330 330 329 329 329 329 328 328 327 325 325 323 323 322 319 316 313 309 308 308 309 309 307 305 301 299 299 297 297 298 298 299 298 299 298 298 297 297 295 294 294 293

GFSSE_925_thetae_063.txt.gz
Theta_e
344 341 341 344 344 341 340 339 339 337 331 327 327 324 321 319 325 330 333 333 336 336 336 334 333 331 329 327 317 317 319 323 323 321 326 327 327 326 326 326 325 326 327
343 341 341 343 344 342 340 341 338 334 329 327 324 319 318 322 327 332 333 334 335 335 332 330 329 327 326 318 315 316 320 323 325 325 324 326 326 326 326 326 325 326 326
344 341 341 343 343 342 341 340 336 331 328 325 318 317 320 325 326 331 333 334 334 334 329 328 328 326 320 316 315 315 318 320 321 323 322 322 324 325 326 326 327 326 325
343 340 341 342 342 341 340 338 334 330 326 321 317 319 323 324 326 329 332 334 334 332 329 328 327 324 315 315 314 314 320 321 321 323 322 320 320 323 323 322 323 323 323
342 339 342 341 342 340 339 336 331 328 324 319 319 324 324 327 329 328 332 333 334 329 329 328 322 315 314 314 313 317 319 320 321 321 321 320 318 319 320 320 320 320 320
343 339 339 340 340 339 336 333 332 327 322 322 326 327 327 333 333 334 333 333 333 328 328 321 315 314 314 313 312 315 317 317 319 321 320 318 317 317 317 318 317 318 318
337 337 337 338 337 335 333 332 331 329 327 327 329 327 331 332 332 332 333 333 329 325 318 315 314 314 313 312 310 311 315 316 318 320 319 317 316 316 315 315 315 316 315
332 331 335 333 331 331 330 329 330 329 329 330 328 327 328 328 329 331 331 329 322 317 316 315 314 314 312 310 308 311 314 315 316 319 319 317 315 314 314 314 314 314 313
328 328 328 329 325 324 324 324 324 326 329 329 327 325 325 324 324 325 324 320 316 316 315 315 314 313 311 309 307 306 313 314 316 317 318 316 315 314 313 313 313 313 313
326 330 329 327 327 322 318 316 319 323 326 327 324 321 321 319 318 317 317 316 315 315 315 314 314 312 309 307 306 310 311 312 313 315 316 315 315 313 313 312 312 312 311
321 321 321 322 322 320 321 319 315 323 326 323 320 317 317 318 316 319 319 315 315 316 315 314 313 310 307 305 305 308 309 309 310 312 314 315 315 314 312 312 311 311 310
320 319 320 320 318 320 319 317 317 320 323 324 321 319 320 320 323 322 316 315 315 315 314 313 312 311 311 310 308 308 308 308 307 307 309 313 315 314 312 311 310 309 308
321 320 319 318 318 319 319 319 322 322 324 321 320 321 320 323 323 321 318 317 315 314 312 311 312 313 312 310 308 308 307 306 306 306 303 302 314 314 312 311 310 309 307
320 319 319 318 318 319 319 321 323 324 323 321 323 322 322 323 322 321 320 319 317 316 314 316 315 312 310 309 308 307 306 306 305 306 308 299 308 314 311 312 310 308 307
320 319 318 318 320 321 321 322 322 322 321 322 322 323 323 323 324 321 321 319 318 318 317 316 313 311 310 308 307 306 306 306 306 309 309 300 304 313 310 309 310 307 307
318 317 318 319 318 321 319 318 316 317 318 320 323 323 324 323 324 322 321 320 319 318 317 316 314 312 310 309 307 306 305 305 306 308 309 307 310 311 309 307 307 306 306
319 319 319 318 319 319 321 323 322 321 320 321 322 323 324 323 324 323 322 320 319 318 317 315 313 311 310 308 307 306 306 305 305 305 306 309 307 307 306 305 304 303 302
321 319 318 317 320 322 323 323 321 320 321 322 322 324 324 323 324 324 323 321 318 317 316 315 313 313 310 309 308 307 307 305 304 304 305 307 307 303 303 301 300 299 298
321 322 322 321 322 322 321 322 322 322 321 320 322 325 326 324 325 324 322 321 318 316 315 314 314 313 311 309 309 309 309 307 305 304 304 304 303 301 301 300 299 298 297
324 324 323 322 323 323 324 322 322 322 321 320 322 324 327 328 327 325 323 321 318 317 315 314 315 313 311 311 309 308 310 308 307 305 305 304 303 302 302 301 300 300 298
324 323 323 322 322 325 325 323 321 321 322 322 324 325 328 328 328 327 325 322 318 317 316 315 315 312 311 311 311 311 310 308 307 306 305 304 303 303 302 301 301 300 300
324 324 324 323 323 326 326 325 321 319 320 321 323 326 328 328 327 325 325 322 318 317 317 315 314 313 312 311 311 310 313 310 307 306 305 305 304 303 302 301 301 300 299
325 325 326 326 325 326 325 325 322 320 320 322 323 325 327 327 326 325 324 321 318 316 315 314 314 313 312 311 309 308 311 310 308 307 306 304 303 303 302 301 301 299 298
328 326 326 327 327 327 327 326 324 321 320 321 323 324 326 325 324 324 323 320 316 314 315 314 313 313 312 312 308 303 302 303 307 308 305 303 302 302 302 301 301 299 297
330 329 328 327 327 328 328 327 327 324 322 322 323 324 326 325 324 323 321 317 314 313 313 313 312 312 311 310 304 301 303 303 305 303 305 304 302 301 301 300 299 298 297
330 330 330 329 328 328 329 329 329 327 326 322 322 327 327 325 323 321 318 315 313 313 311 311 312 311 307 302 301 301 300 302 301 301 303 302 301 301 300 299 298 297 296

GFSSE_925_thetae_066.txt.gz
Theta_e
343 343 343 344 340 337 340 337 336 332 328 327 326 324 322 320 322 330 336 336 335 335 334 332 330 328 326 321 320 323 324 324 324 324 327 327 327 328 327 325 326 326 327
334 344 344 344 339 339 340 339 336 331 327 327 325 321 319 324 331 335 335 335 334 334 331 330 328 327 317 315 318 322 323 325 326 324 324 325 326 328 327 326 325 325 327
333 341 343 344 340 340 340 339 336 330 327 326 321 318 322 330 333 334 335 333 331 330 329 329 327 320 314 314 316 321 321 322 324 325 321 322 324 323 324 324 324 324 324
325 340 343 343 341 340 340 338 335 329 327 322 318 322 326 331 334 335 334 331 329 330 329 328 326 316 313 314 320 321 321 321 322 320 319 319 320 323 322 321 322 322 322
341 341 343 343 342 340 339 337 333 331 324 318 321 325 327 330 333 335 333 329 329 330 329 326 319 314 313 316 319 320 320 321 320 319 318 317 318 319 319 319 319 319 320
341 340 340 343 342 341 338 336 334 327 321 324 327 329 330 332 333 334 332 327 329 329 327 320 314 314 312 313 317 316 317 320 320 319 317 317 317 318 317 317 317 317 317
339 339 339 336 340 340 337 335 331 326 327 330 329 330 331 332 332 334 331 327 327 322 316 314 314 313 310 309 315 316 317 320 320 318 316 315 316 316 316 315 315 315 315
337 336 335 330 328 337 336 333 330 329 330 330 330 333 333 332 332 333 330 324 319 316 314 314 314 312 309 307 314 315 316 318 320 318 316 315 315 315 315 314 314 314 314
331 330 330 330 328 324 325 326 325 329 328 329 332 333 333 332 332 332 327 318 316 315 315 315 314 311 308 305 310 314 314 317 318 317 316 315 315 314 314 314 313 313 313
328 327 327 329 329 326 320 321 323 328 327 328 329 330 331 331 331 327 319 316 315 315 315 315 313 309 307 306 311 311 312 313 317 316 315 315 314 314 313 313 312 312 312
327 326 325 324 323 324 324 320 317 325 327 327 326 324 324 323 321 320 317 315 315 315 315 314 312 309 306 306 308 309 309 309 314 315 313 315 314 313 312 312 311 310 310
321 322 323 323 323 322 321 318 317 322 315 324 322 319 318 321 322 318 315 315 316 315 314 313 311 310 310 310 309 308 308 308 308 310 309 315 315 313 312 311 310 308 309
320 319 320 320 322 321 320 317 320 318 324 322 320 322 319 323 322 316 315 315 315 314 312 313 313 313 311 309 308 308 307 307 307 306 302 310 315 314 312 311 310 308 307
320 320 319 320 320 319 319 320 321 323 325 320 324 320 321 323 322 316 316 315 315 314 313 315 314 313 310 309 308 306 306 306 306 307 305 304 314 313 313 311 310 308 307
320 319 319 319 320 319 319 318 319 323 320 324 322 323 321 323 321 318 320 318 317 316 316 317 315 311 309 308 307 306 306 306 307 311 307 300 313 313 311 312 309 307 307
319 319 319 319 320 318 317 320 320 324 322 323 324 325 323 322 324 320 321 319 318 318 318 316 314 312 310 309 307 306 305 306 307 310 310 302 307 312 310 308 308 307 306
318 319 319 319 320 320 322 320 321 320 322 323 324 324 324 323 324 323 321 320 320 319 318 316 314 312 310 309 308 307 306 306 305 306 309 309 305 309 308 304 304 304 303
319 319 319 319 319 319 318 316 320 317 319 322 323 322 324 324 324 324 322 321 319 319 317 315 314 312 311 309 308 307 307 306 305 304 306 309 309 307 305 303 301 299 297
320 319 317 319 318 320 321 317 322 321 321 321 323 323 324 323 324 323 323 322 320 318 317 315 314 314 312 310 309 309 309 307 306 306 305 305 304 302 304 302 300 300 299
321 316 316 318 321 323 323 324 322 321 321 322 322 323 324 323 324 324 324 322 320 318 317 316 315 314 313 311 311 309 310 309 308 306 305 304 304 303 302 302 301 301 299
322 321 321 321 323 323 322 323 323 324 322 321 320 323 326 327 326 326 324 322 321 318 317 315 315 315 313 311 311 311 311 310 309 307 306 305 304 304 303 302 301 301 301
324 324 324 324 325 324 324 324 322 323 323 322 322 322 327 326 327 327 326 325 322 319 318 316 315 315 313 312 311 313 310 310 308 307 306 306 305 304 304 303 301 301 301
325 325 324 324 323 325 325 323 322 321 322 322 322 324 327 327 326 327 326 326 323 320 319 317 316 315 313 313 311 310 310 310 308 308 307 306 306 304 303 302 302 301 300
325 325 325 324 323 324 326 326 325 322 321 323 323 324 326 328 327 326 325 324 324 320 318 317 315 315 314 313 310 308 306 305 306 307 306 306 305 304 303 302 302 301 300
327 326 326 326 325 325 326 326 325 323 321 320 323 323 327 328 327 325 324 324 323 318 317 316 316 314 313 313 310 305 304 304 304 305 304 304 304 303 302 302 302 301 299
328 328 327 328 327 327 328 327 327 325 324 322 323 324 327 326 324 324 324 323 322 320 317 315 314 314 313 313 307 304 304 304 303 304 301 302 303 302 301 301 300 299 298

GFSSE_925_thetae_069.txt.gz
Theta_e
344 344 343 339 338 340 333 331 330 328 327 326 324 322 321 323 329 334 335 333 333 333 331 329 328 327 328 329 328 327 324 324 324 326 327 327 327 326 327 326 326 327 327
342 343 343 339 338 338 335 332 329 327 326 325 322 319 320 327 334 334 334 332 331 330 329 327 325 320 324 327 326 327 328 326 323 321 325 324 325 325 325 324 325 327 326
340 340 340 340 338 339 337 334 329 327 326 323 318 321 330 335 334 334 333 331 329 329 328 326 321 315 320 321 321 322 324 324 321 319 321 323 323 323 323 323 323 323 324
331 332 329 326 334 339 339 334 329 327 325 320 319 332 334 334 334 332 330 328 329 328 327 323 314 315 319 321 320 319 320 321 318 317 317 320 321 321 321 321 321 321 323
327 325 325 328 338 339 338 334 329 327 323 319 323 333 334 334 332 329 328 328 328 327 324 314 313 317 320 320 318 317 320 319 317 314 317 318 318 319 319 319 319 320 321
335 333 335 338 339 339 338 336 334 326 322 321 327 333 334 334 331 327 328 326 323 317 313 313 312 316 318 317 316 320 320 320 315 310 316 317 318 318 317 316 317 318 318
340 338 338 337 337 335 338 336 330 323 323 322 328 333 334 333 329 326 326 321 315 314 314 313 310 310 316 316 315 319 318 318 317 309 315 316 317 317 316 316 316 317 316
336 337 336 333 329 327 321 334 328 323 323 327 330 332 334 333 328 324 320 315 314 314 314 312 309 307 313 315 316 316 318 318 318 311 314 316 316 316 315 315 315 315 314
330 331 330 330 330 325 322 331 330 329 333 331 330 332 334 332 328 321 318 315 314 315 314 311 308 306 311 315 315 313 316 317 316 313 312 315 315 315 314 314 314 314 313
327 326 326 325 325 325 323 322 320 321 330 333 333 333 333 332 328 320 316 315 315 315 314 311 308 306 311 312 312 310 317 316 316 312 310 314 315 314 314 313 312 312 312
325 325 322 324 324 324 323 320 318 318 325 326 332 332 332 330 325 317 316 315 316 316 315 310 307 306 309 308 309 309 313 315 314 310 310 314 314 313 313 311 311 311 310
322 322 321 322 324 323 320 319 315 318 325 326 326 329 330 326 319 316 315 315 316 315 313 310 309 310 309 308 308 308 308 310 309 307 310 314 314 313 312 310 309 309 309
321 320 321 321 319 320 318 317 316 317 323 325 326 324 321 318 316 315 315 316 315 314 312 312 312 312 309 308 308 307 306 307 306 305 309 314 314 314 312 311 309 308 308
320 320 320 321 320 318 317 318 320 320 323 321 320 320 320 317 315 315 316 315 315 314 314 314 313 311 309 308 306 307 306 306 305 306 304 314 315 314 313 311 310 308 307
320 319 320 321 321 319 318 319 319 324 321 324 320 323 321 318 315 316 316 315 315 314 315 315 314 312 308 307 306 305 305 307 309 308 302 305 314 313 314 311 310 308 308
319 319 320 320 320 319 319 322 322 324 321 324 321 322 322 321 318 315 317 317 316 316 316 316 316 312 309 308 306 306 306 306 309 310 308 300 310 311 310 310 309 307 307
319 320 320 320 319 319 319 318 322 322 324 323 324 323 322 321 318 319 320 319 318 318 318 317 314 312 309 309 307 306 306 306 306 306 309 307 305 308 308 305 303 304 303
319 319 320 320 318 317 316 317 322 321 322 324 324 324 322 323 322 322 321 320 319 318 318 317 314 312 310 309 308 306 306 305 305 304 306 308 307 307 307 306 302 300 299
319 319 319 319 318 320 318 316 320 321 322 322 322 323 324 324 323 323 322 321 320 319 318 316 314 313 311 309 308 307 307 307 306 306 305 306 308 305 303 304 301 300 300
319 319 319 320 319 318 318 318 319 319 318 320 322 321 320 323 324 323 323 322 320 319 318 317 315 313 313 311 309 309 308 309 307 307 304 304 304 303 302 302 302 301 301
319 318 318 318 317 319 319 316 315 316 321 321 320 323 322 322 322 324 323 324 322 320 318 317 316 315 314 311 310 310 309 310 309 307 306 306 305 304 303 302 302 301 301
318 316 317 315 316 320 317 317 322 321 320 322 321 323 323 323 322 323 323 324 322 321 319 317 316 315 315 312 311 311 308 310 309 308 307 306 305 304 303 303 302 301 301
315 316 316 318 319 322 322 323 322 323 322 321 321 320 321 325 325 324 325 324 324 322 322 318 316 315 314 313 311 311 308 307 307 308 308 307 306 305 305 304 303 301 301
319 318 319 319 322 324 322 321 322 322 323 322 320 322 322 323 325 325 326 325 326 325 323 319 317 316 315 313 312 311 308 306 304 305 307 307 306 305 304 303 303 302 301
322 323 322 323 324 324 325 322 322 322 321 322 322 321 322 326 326 326 326 326 325 325 322 320 318 317 315 314 312 308 306 306 305 304 303 304 304 304 304 304 303 302 301
324 324 324 323 323 322 322 324 325 322 322 321 322 322 322 325 327 327 326 325 324 324 323 320 317 317 316 314 313 310 307 305 305 304 301 300 300 300 301 302 302 302 302

GFSSE_925_thetae_072.txt.gz
Theta_e
345 342 337 333 325 329 331 335 332 329 327 325 323 324 330 333 333 333 332 332 331 330 330 330 331 331 330 329 328 328 327 326 327 327 327 326 326 326 327 326 326 326 326
345 342 336 331 329 329 330 332 330 328 326 323 323 327 335 334 331 331 331 330 330 329 328 330 331 331 330 330 326 324 321 323 324 324 325 325 325 324 326 326 326 327 328
346 342 339 333 329 335 337 331 328 326 324 321 323 327 334 334 333 330 329 329 328 326 326 329 329 329 328 326 327 327 321 319 322 324 322 322 323 323 323 322 326 327 327
338 341 339 336 331 328 329 334 327 325 322 320 323 333 334 333 329 326 325 326 324 323 324 327 327 325 320 319 322 323 321 316 314 318 319 320 321 321 321 321 323 323 323
332 332 338 335 329 328 329 334 330 325 320 322 334 335 334 332 327 322 321 321 322 322 324 326 321 319 315 318 319 320 318 313 311 313 317 318 319 319 319 320 321 320 319
331 329 330 331 329 328 333 332 337 325 320 332 335 334 333 330 324 323 321 321 320 321 321 320 319 315 317 319 319 317 311 307 309 315 317 317 317 318 318 318 318 317 317
335 330 329 329 329 326 327 330 334 329 328 334 333 333 331 326 324 322 319 315 314 312 314 318 317 315 318 319 319 318 314 310 309 315 316 317 317 317 317 317 316 315 315
333 333 333 331 328 327 326 328 331 329 331 336 335 332 328 326 324 320 316 314 313 311 309 313 315 314 313 319 318 318 316 311 308 314 316 316 317 316 316 316 315 314 314
330 330 328 329 328 327 327 329 330 327 336 334 334 332 329 327 323 316 314 314 313 310 308 308 313 314 310 312 318 318 316 313 310 311 315 316 316 316 315 315 314 313 313
326 325 326 326 328 327 325 324 325 321 328 334 333 331 328 324 319 315 314 314 313 310 307 306 311 313 309 309 316 318 316 314 309 310 314 315 315 315 314 313 313 312 312
324 323 323 323 324 323 323 323 321 320 323 330 333 329 326 323 317 315 315 315 313 309 307 307 311 310 309 308 314 317 315 313 309 308 313 315 315 314 313 312 312 311 311
321 322 322 321 322 322 321 319 318 317 322 326 330 329 325 320 316 315 316 315 313 309 306 307 308 308 309 308 307 313 312 310 307 308 312 315 314 313 312 311 310 310 310
321 321 321 321 320 320 319 317 318 319 321 324 324 325 325 318 315 315 315 315 314 310 309 311 311 309 308 307 307 309 309 307 306 308 312 314 314 313 312 310 310 309 308
321 320 320 320 320 318 317 319 318 317 320 323 324 323 323 316 315 315 316 315 313 312 312 313 310 309 308 307 306 306 306 306 305 308 311 313 314 314 312 311 309 308 307
320 320 320 320 319 319 317 318 320 322 322 317 316 324 319 316 315 316 315 315 314 314 314 314 313 310 308 306 306 305 306 307 307 306 307 312 314 314 313 312 310 309 307
320 320 320 319 318 318 318 316 320 324 322 323 323 319 317 315 315 316 316 315 315 315 316 315 315 311 308 307 305 305 306 308 309 307 305 306 310 313 314 312 310 308 307
320 320 321 320 318 319 320 321 322 322 322 320 321 320 316 315 315 315 316 316 316 316 317 315 315 312 309 308 306 305 305 306 307 309 306 305 309 311 310 308 308 305 303
320 321 320 320 319 319 319 320 324 322 324 321 321 322 320 317 315 316 317 317 317 318 317 316 315 311 309 309 307 306 306 305 305 306 306 308 307 311 309 307 303 302 299
320 320 321 320 320 319 321 323 323 323 324 322 323 322 321 318 317 319 319 319 318 318 318 317 316 313 310 309 308 307 306 306 306 305 305 308 307 309 308 305 304 301 301
319 320 321 319 319 319 319 321 321 323 324 324 324 324 322 323 321 322 321 320 320 319 318 317 316 313 312 311 308 308 307 306 306 306 305 306 306 307 305 302 302 301 301
319 320 320 319 318 318 317 319 321 321 322 321 323 323 324 323 323 323 323 321 321 319 319 318 315 315 314 312 310 308 307 307 306 306 306 305 304 304 304 304 303 303 302
319 319 319 319 319 319 317 316 319 320 321 321 320 321 321 321 321 323 323 322 321 321 319 318 317 316 314 314 309 309 309 309 308 307 306 304 304 304 304 303 303 303 302
319 318 318 319 318 318 318 317 318 318 318 321 321 320 321 321 321 322 323 323 323 322 320 318 318 316 315 314 311 310 309 310 307 308 307 306 306 305 304 303 303 302 302
319 318 316 317 317 318 320 316 317 317 320 320 321 320 321 322 322 323 322 322 322 323 322 322 320 318 315 314 311 311 309 307 306 307 306 307 307 306 305 304 303 303 302
317 316 316 315 316 317 319 318 319 321 322 321 320 320 321 320 321 323 324 323 323 324 324 323 322 319 316 315 314 308 306 307 308 305 306 306 306 305 305 305 304 302 302
315 315 315 315 316 319 321 321 321 321 321 322 322 321 320 320 321 321 324 325 325 326 325 325 323 320 318 316 315 313 311 308 306 306 304 304 302 302 303 304 301 302 301

GFSSE_925_thetae_075.txt.gz
Theta_e
343 343 337 337 334 332 334 333 330 332 337 337 336 330 332 334 334 335 334 333 331 332 332 332 331 330 329 329 329 329 326 326 326 325 326 327 327 327 327 325 325 325 326
343 341 338 332 332 334 335 333 331 326 329 332 328 326 330 332 333 333 331 329 331 332 331 331 330 329 328 327 327 327 325 325 325 326 325 325 327 326 326 329 327 327 325
343 340 337 330 328 330 333 332 336 335 327 324 325 329 333 334 333 331 329 329 331 331 331 331 331 332 330 328 325 325 324 324 323 323 322 323 323 324 327 326 326 325 325
342 341 337 333 335 330 331 331 329 334 337 336 336 334 333 332 332 330 329 328 330 330 330 330 329 328 327 327 321 322 322 321 320 321 321 321 322 323 324 323 322 322 321
342 339 337 331 329 329 330 330 330 330 334 336 335 333 332 331 332 329 325 327 330 330 329 327 324 323 325 323 319 315 314 315 317 317 318 318 320 321 321 320 318 319 318
337 334 335 332 328 329 333 330 330 329 327 336 334 333 331 329 330 326 324 325 328 329 327 322 316 320 321 319 313 309 311 313 315 316 317 318 318 320 318 318 317 317 316
331 331 333 332 330 331 332 331 330 329 327 335 334 332 330 327 327 324 324 324 327 326 322 316 318 319 318 315 310 309 309 311 313 316 317 317 318 318 317 316 316 315 315
334 334 329 330 329 327 328 327 329 332 327 336 334 332 329 327 325 322 321 320 323 319 313 315 320 319 318 316 314 309 309 310 314 315 316 317 318 317 316 315 315 314 313
331 332 330 328 328 328 329 327 327 328 327 333 333 331 327 322 322 318 315 314 316 315 313 313 318 319 318 317 316 312 310 308 311 315 316 316 317 316 316 315 314 313 313
329 329 329 328 328 328 328 331 330 331 331 329 330 330 322 320 317 315 312 309 309 311 312 309 310 315 318 318 316 314 310 309 310 314 316 316 316 316 315 314 313 312 312
326 327 328 327 326 326 325 325 329 328 324 327 326 328 323 321 317 313 311 308 306 308 311 309 309 311 315 318 316 314 310 308 309 313 315 316 315 315 314 313 312 311 310
323 322 323 324 323 323 322 324 324 324 325 325 322 325 321 316 315 313 310 308 306 309 309 308 308 309 312 316 315 312 309 307 309 312 315 315 315 314 313 312 312 311 309
322 322 321 321 321 321 320 320 321 324 325 324 325 323 318 316 315 313 310 307 306 309 309 309 308 308 308 311 313 310 308 308 308 311 314 314 314 313 312 311 310 309 308
321 321 321 321 320 319 319 320 320 322 322 323 325 321 316 315 315 314 312 307 308 308 309 309 308 307 307 308 310 308 307 307 309 310 313 314 314 313 312 311 310 308 307
320 320 320 320 319 318 318 320 321 322 322 323 325 320 316 315 316 315 314 310 310 312 312 310 309 308 307 306 306 306 306 306 309 309 312 313 314 314 313 312 310 309 307
321 320 320 319 318 318 319 319 320 322 323 323 323 319 315 315 316 315 313 312 313 315 314 314 312 308 306 306 305 305 306 307 308 308 311 313 313 314 314 312 311 310 308
321 321 320 319 318 317 319 319 320 320 323 322 317 320 316 315 315 315 314 314 315 315 315 315 312 308 307 305 305 305 306 308 308 306 308 310 312 312 312 312 311 308 307
321 321 320 319 319 318 319 320 322 322 321 320 319 323 317 315 315 315 316 314 315 315 316 315 314 310 309 307 305 305 305 306 306 308 305 306 308 310 311 309 306 303 301
320 321 321 320 319 320 320 321 323 322 322 321 320 320 316 315 315 315 316 315 315 316 317 316 314 312 310 308 307 306 305 306 306 305 305 306 307 309 310 308 306 303 301
320 321 321 320 319 320 320 322 323 323 323 322 321 319 316 315 315 315 316 316 317 318 317 316 315 313 312 310 308 307 306 305 305 306 305 305 307 307 309 308 306 304 301
320 320 321 320 320 319 320 322 322 323 323 320 320 321 321 319 316 316 318 318 318 319 318 317 316 315 312 310 308 307 306 306 305 304 305 306 306 306 307 307 303 303 302
319 320 320 319 320 319 319 320 321 322 323 322 323 323 321 322 320 319 321 320 320 320 318 318 317 315 313 312 310 309 307 308 306 305 305 305 305 306 306 304 304 304 303
319 320 320 319 319 319 318 318 319 320 322 322 323 323 323 322 323 323 323 322 321 321 320 319 318 316 315 313 312 310 310 311 307 308 308 305 304 305 304 304 304 304 303
318 319 319 319 318 318 317 317 318 319 320 321 321 321 321 322 322 322 322 321 322 322 321 320 319 317 316 314 311 311 311 310 308 308 306 306 305 304 305 304 304 303 302
318 319 319 319 318 318 317 317 316 318 318 319 319 320 320 320 320 321 321 321 322 322 322 322 320 318 317 315 314 310 309 309 308 307 308 306 306 308 307 306 305 304 303
318 318 318 317 318 317 317 317 317 317 317 317 318 318 320 320 320 320 322 322 322 322 322 322 322 321 320 318 315 315 313 309 307 307 306 306 306 307 306 307 305 305 303

GFSSE_925_thetae_078.txt.gz
Theta_e
340 341 338 336 336 334 332 335 340 338 338 334 331 331 325 325 331 335 335 335 335 334 334 332 330 330 330 331 329 327 325 326 326 328 328 328 327 326 325 325 326 329 330
343 342 338 338 338 336 333 337 342 339 337 333 332 328 325 335 335 335 334 333 333 333 332 331 330 329 329 330 329 326 325 325 325 326 327 327 329 330 329 326 324 324 324
343 342 339 338 338 337 333 336 341 341 338 335 331 328 334 335 335 334 333 333 331 331 331 330 329 328 328 328 327 326 325 324 323 322 322 325 328 328 327 326 325 323 323
341 340 337 337 337 335 334 331 335 340 337 336 333 334 334 334 333 332 332 332 331 331 330 329 330 326 326 325 325 324 322 321 322 322 321 323 323 325 324 323 321 321 319
335 339 338 333 330 331 329 330 333 336 337 336 335 334 334 333 331 331 331 331 330 331 331 332 331 328 324 322 321 321 319 319 320 320 322 321 321 321 320 319 318 318 318
335 337 336 332 328 328 326 329 329 333 331 333 334 333 333 332 331 331 330 329 329 329 329 329 329 325 319 314 316 316 315 316 316 318 319 319 319 319 318 317 316 316 316
333 332 334 332 326 325 323 327 325 327 331 332 333 331 331 331 329 330 329 329 328 326 326 327 325 320 311 308 310 312 313 315 316 318 319 319 319 318 317 316 316 315 315
333 333 333 330 328 330 330 329 329 328 330 331 332 330 331 329 328 329 329 328 325 320 322 321 319 314 311 308 309 312 314 315 316 318 318 318 318 318 316 315 314 314 314
331 332 332 331 330 330 330 328 329 329 328 330 330 330 331 327 327 327 328 325 318 317 318 319 318 314 312 310 309 311 313 314 315 317 318 318 317 317 315 314 314 313 313
330 330 330 330 328 327 328 327 327 330 328 330 328 330 329 327 326 325 325 318 314 317 319 319 318 316 314 313 310 311 312 314 315 316 317 317 317 316 315 314 313 313 312
328 328 329 328 327 327 327 327 329 328 329 329 325 327 326 324 322 320 319 313 312 315 319 319 318 317 315 313 310 309 309 312 314 315 316 317 317 316 315 313 313 312 311
326 326 327 327 327 327 325 327 329 329 328 326 325 326 324 320 315 311 312 313 311 310 311 315 318 317 316 314 311 308 307 311 313 315 315 316 316 315 314 313 311 311 310
323 324 324 324 325 325 325 328 327 326 326 325 322 324 320 315 311 308 308 310 310 309 310 312 316 316 315 313 310 307 308 310 312 314 315 315 315 314 313 313 311 310 309
322 322 322 322 322 321 324 325 326 325 323 322 322 322 318 314 310 308 307 309 309 309 309 310 312 313 312 311 310 307 307 309 311 313 314 314 315 314 313 312 310 309 308
321 321 321 321 321 319 321 324 325 323 321 320 320 322 315 313 310 308 306 308 309 309 308 307 307 308 309 311 308 306 307 309 309 311 313 314 314 314 313 311 310 308 307
321 321 320 320 319 319 320 323 324 323 322 322 322 318 315 314 312 308 306 308 310 309 308 308 308 307 308 307 307 307 306 309 309 310 311 313 313 314 313 313 312 310 308
321 321 320 319 317 319 320 321 322 322 321 322 322 316 315 315 316 314 309 309 312 310 310 310 308 306 306 306 306 306 306 308 309 309 311 312 313 314 313 313 311 310 309
321 321 321 319 318 318 320 321 322 322 323 323 321 316 316 316 317 313 315 312 313 314 315 311 307 306 305 305 305 305 306 307 307 307 308 310 312 312 312 311 311 308 305
321 321 320 319 318 318 319 320 321 322 322 322 321 318 316 316 315 317 315 313 315 315 314 311 310 309 307 306 305 305 306 306 306 306 306 308 310 310 311 311 308 305 303
321 321 321 320 318 318 319 321 320 321 321 321 317 317 319 315 315 315 314 313 315 315 314 314 313 310 309 308 306 306 305 305 306 306 306 305 306 308 309 309 308 307 303
321 321 321 320 319 319 320 321 321 320 321 320 317 314 320 316 315 315 314 314 315 314 316 315 313 312 311 310 308 307 306 306 306 306 305 305 305 306 308 309 309 307 304
320 321 321 320 319 320 320 321 322 322 322 319 318 319 318 316 315 315 315 315 315 316 317 316 316 314 313 311 309 307 306 308 307 306 305 305 305 305 307 307 308 307 304
319 320 321 320 320 319 319 320 321 322 322 321 321 321 320 318 317 316 315 317 318 317 318 317 317 316 315 312 311 311 308 309 308 308 306 305 305 304 305 306 307 306 304
319 318 320 320 319 319 319 319 321 320 321 322 321 320 321 321 321 320 318 319 321 319 319 319 318 318 316 314 311 310 311 311 309 310 308 309 309 306 305 305 305 304 303
318 318 319 320 319 319 318 318 319 320 321 321 322 321 322 322 322 322 323 322 322 321 321 321 320 318 317 315 314 311 310 310 310 309 311 309 306 307 306 305 304 307 305
317 318 319 319 319 319 318 317 318 320 319 321 321 321 321 321 321 321 322 322 322 322 322 322 321 320 319 316 315 315 314 311 308 307 307 308 307 308 307 306 306 305 305

GFSSE_925_thetae_081.txt.gz
Theta_e
341 341 337 333 334 336 342 344 341 337 336 337 336 334 328 323 332 331 334 335 335 335 336 334 332 333 332 330 330 329 328 328 328 328 327 328 328 329 330 329 329 329 329
341 341 339 335 337 335 334 339 341 340 341 337 335 333 333 324 335 334 334 335 335 335 333 332 331 332 330 328 326 325 326 326 326 326 329 330 329 328 327 326 325 325 326
343 341 340 336 336 335 338 341 342 341 339 335 333 329 328 333 334 335 335 334 333 332 331 330 330 330 329 328 325 325 325 325 324 327 329 328 328 327 325 324 322 322 323
343 343 339 338 337 335 337 339 341 341 339 338 332 333 331 334 335 335 333 333 332 331 331 330 329 329 329 327 325 324 324 323 324 326 327 326 325 325 323 323 321 322 321
338 342 339 337 337 334 332 333 335 339 337 338 336 336 335 334 334 333 332 331 330 329 328 328 328 327 326 324 323 322 321 322 323 323 323 322 322 321 320 320 319 319 319
333 338 337 336 336 333 331 331 331 333 327 336 335 335 335 334 333 332 331 330 329 329 332 327 327 324 319 320 319 320 320 320 321 321 321 319 319 319 319 317 318 318 317
333 334 336 334 333 333 329 329 328 325 332 335 334 335 333 333 332 331 330 330 332 331 330 328 324 314 313 315 317 318 319 319 319 319 319 319 319 318 318 318 316 316 316
331 332 333 331 330 329 329 328 330 329 328 328 330 333 333 332 330 329 330 330 327 328 329 326 316 309 308 311 313 313 315 318 318 318 318 318 318 318 317 316 316 315 315
330 331 332 330 329 327 325 325 327 325 327 327 326 331 332 331 329 329 328 327 326 326 326 320 310 308 310 311 313 315 317 318 318 318 318 318 318 317 316 315 315 315 314
329 330 331 331 328 327 329 328 326 326 325 328 332 330 331 330 329 329 328 325 321 322 320 314 311 310 310 311 313 314 316 317 317 317 317 317 317 317 316 315 314 314 313
326 330 331 331 330 329 328 330 330 330 328 332 332 330 328 330 329 328 326 317 318 319 318 314 312 312 310 312 312 313 315 316 317 317 317 317 317 316 316 315 314 313 312
326 327 328 330 329 328 328 327 327 328 329 329 332 328 328 328 327 326 317 317 319 319 318 316 313 313 314 315 314 313 315 316 316 317 317 316 317 316 315 314 313 312 311
325 324 326 327 327 327 326 327 327 328 329 330 327 326 325 325 324 317 315 316 321 320 320 318 315 316 316 314 313 313 315 315 316 316 316 316 317 316 314 313 312 311 310
323 323 323 324 326 327 326 327 328 328 328 326 325 321 323 321 319 316 312 312 316 321 322 320 317 315 312 309 307 308 314 314 315 316 315 315 316 316 314 312 311 309 308
322 322 322 322 323 323 326 326 325 327 325 325 324 322 319 316 315 314 311 310 310 312 316 316 316 314 312 309 307 308 312 314 315 315 315 315 315 315 314 312 310 309 308
322 321 321 322 321 321 324 324 323 322 322 324 322 319 314 310 310 311 309 310 309 311 312 314 314 313 313 310 307 309 313 313 314 315 315 314 314 314 314 312 311 310 309
321 321 321 321 321 320 323 323 323 322 321 322 320 316 311 308 306 308 309 309 309 308 308 310 310 311 311 310 311 310 309 311 312 313 314 314 314 313 313 313 313 311 310
321 321 320 320 320 320 322 323 322 321 320 318 319 316 311 308 307 307 308 309 308 308 307 307 307 309 308 309 310 309 309 310 311 311 314 314 315 314 313 313 312 312 310
321 321 320 319 319 319 321 322 322 321 322 319 319 316 313 312 309 307 308 310 310 310 310 309 307 306 306 306 306 305 306 307 309 310 311 312 314 314 314 312 311 309 305
321 321 320 319 318 319 320 321 322 321 321 322 319 315 315 313 309 308 309 312 314 314 312 311 308 305 306 306 305 305 305 306 306 306 307 309 311 312 312 313 313 310 306
321 321 320 319 318 319 319 321 322 322 321 322 320 317 316 315 314 312 313 317 316 314 314 315 309 308 307 306 307 307 306 305 305 306 306 306 305 307 310 311 312 311 308
321 321 321 320 319 319 319 321 321 321 322 321 317 319 317 315 315 314 315 314 315 314 315 314 311 311 312 308 311 311 315 311 308 307 306 305 305 305 305 307 309 310 308
321 321 321 320 320 319 320 320 320 320 321 319 318 316 317 318 316 315 315 315 314 314 315 315 314 314 315 312 310 315 316 319 313 310 308 306 305 305 305 308 307 307 309
320 321 321 320 320 319 319 320 319 319 320 319 318 315 314 315 318 315 315 315 314 315 316 316 316 316 315 316 310 310 312 313 318 319 310 310 308 307 306 305 305 307 307
319 320 321 320 320 319 319 320 320 321 320 319 319 317 317 318 317 315 315 315 315 317 318 318 318 317 317 316 315 313 311 312 312 315 318 312 308 309 310 310 306 304 306
319 318 319 319 321 321 320 320 320 321 321 320 319 319 320 321 320 320 320 319 318 319 320 321 320 319 318 317 316 314 315 315 312 312 312 313 314 313 310 308 306 306 305

GFSSE_925_thetae_084.txt.gz
Theta_e
344 343 338 336 337 341 346 342 338 336 335 332 334 337 334 331 334 331 333 334 334 335 336 336 333 333 334 334 332 329 327 328 329 331 332 333 333 332 331 330 331 331 331
344 343 339 335 334 339 344 343 340 338 340 337 336 337 332 332 335 332 334 334 334 336 335 334 334 333 331 330 328 328 328 327 326 328 329 331 331 330 328 327 328 328 328
342 344 342 336 332 332 340 343 342 338 340 339 338 336 331 333 335 335 336 335 335 334 334 334 332 330 329 328 327 327 326 327 329 329 328 327 328 327 325 326 326 326 326
341 344 344 338 335 334 333 339 341 340 341 339 338 333 331 334 335 336 336 335 333 333 332 332 332 330 329 325 327 326 326 329 328 328 327 326 325 324 323 324 323 323 323
339 342 345 340 335 335 338 338 338 337 340 339 336 333 333 335 336 335 334 333 331 331 332 332 331 329 327 325 325 324 325 326 327 325 324 323 322 322 321 321 321 321 320
337 340 343 339 338 337 336 336 335 336 337 336 335 334 335 336 335 334 333 331 330 330 330 329 329 327 325 323 323 322 324 322 323 322 322 321 320 320 321 320 319 320 319
335 337 340 338 337 336 333 330 329 330 333 329 326 333 334 335 334 332 331 329 329 328 328 327 325 323 322 322 321 321 322 321 321 320 320 320 320 320 319 318 318 318 317
334 335 338 336 336 335 332 332 333 333 327 330 324 331 333 335 333 331 330 329 330 328 326 325 322 316 317 319 319 319 319 319 319 319 320 319 319 319 318 317 317 317 316
331 332 335 334 334 332 331 329 329 328 329 333 330 330 333 334 332 330 331 331 331 329 319 311 308 311 313 316 318 318 318 319 319 320 319 319 318 318 317 317 316 316 316
329 330 332 333 332 332 330 328 329 328 331 332 331 331 332 331 331 331 332 330 328 328 316 309 307 309 311 312 315 317 318 318 319 319 318 317 318 318 317 316 316 315 315
328 330 330 332 331 330 330 330 328 327 327 326 327 327 329 328 330 330 330 327 327 322 313 309 309 309 312 314 316 316 318 318 319 318 317 318 318 317 316 316 315 314 314
330 328 329 331 331 330 330 329 330 330 329 326 327 327 328 328 329 329 328 326 322 318 313 310 310 310 314 315 316 315 317 318 319 318 317 318 318 317 316 315 314 313 312
328 326 327 328 330 329 328 328 330 331 330 329 327 326 327 327 327 327 326 326 322 318 318 317 315 317 316 315 315 316 317 318 318 318 317 317 317 317 316 314 313 312 312
327 325 325 327 327 328 326 327 328 331 328 330 329 329 327 326 325 325 326 325 322 321 320 319 318 318 317 316 316 316 316 317 317 317 317 317 317 316 315 314 312 311 310
327 325 323 324 325 326 325 327 327 328 328 329 326 325 325 323 321 321 325 325 323 323 322 321 320 318 316 315 315 316 316 316 317 317 316 316 317 316 315 313 312 310 309
327 325 322 322 322 324 324 326 326 328 328 325 323 321 318 320 318 318 319 321 323 324 323 321 319 317 314 314 314 315 316 316 316 317 316 315 315 315 315 313 312 310 309
326 324 321 321 321 322 324 324 323 325 323 321 321 320 320 319 316 315 314 315 317 319 319 319 318 316 315 314 314 314 315 316 316 317 316 316 315 315 314 313 312 311 310
324 323 322 320 321 322 323 323 322 322 321 320 320 319 317 316 315 313 311 311 313 314 315 316 316 316 315 313 313 314 314 315 316 316 317 316 316 315 313 313 313 312 311
324 323 321 320 320 321 323 322 321 321 321 320 318 316 314 313 313 312 310 310 310 310 311 312 313 314 313 313 313 313 313 314 315 315 315 316 316 316 316 314 313 313 311
324 323 321 319 320 320 322 322 321 321 319 316 317 315 310 308 309 311 313 310 312 311 311 311 312 311 311 311 310 310 311 312 313 314 314 315 315 316 316 316 314 312 310
323 322 320 320 320 321 322 322 321 320 319 319 317 313 309 310 312 314 315 314 313 313 314 315 314 313 311 311 310 311 311 311 311 311 311 312 314 314 315 315 315 315 312
324 323 320 320 319 320 321 322 321 321 318 316 315 314 313 314 312 312 315 314 313 316 317 316 317 315 315 312 314 316 319 315 312 311 311 311 311 311 312 313 312 312 312
324 323 321 319 319 319 321 322 321 320 320 319 317 317 316 316 315 314 314 317 317 319 319 319 318 317 317 315 314 318 323 324 320 316 313 311 311 311 309 309 308 310 311
324 323 323 321 320 320 320 321 321 319 319 320 320 318 317 318 318 316 317 318 319 319 319 320 319 319 319 319 316 316 318 320 322 323 317 314 312 308 309 309 308 311 311
324 322 323 322 321 320 320 320 321 320 319 321 319 317 317 319 320 319 319 319 319 319 320 320 320 320 319 320 320 320 318 318 318 320 323 319 315 314 313 311 312 311 310
324 321 323 322 322 320 320 320 320 320 320 320 318 316 316 318 319 321 320 320 320 319 320 321 321 321 321 321 321 321 320 320 320 320 321 321 321 319 315 313 312 312 309

GFSSE_925_thetae_090.txt.gz
Theta_e
346 344 340 336 340 345 341 343 343 343 336 333 334 334 331 332 334 334 333 332 332 334 336 336 334 338 337 334 333 334 334 334 335 334 334 335 335 335 334 333 332 333 332
348 346 341 337 336 342 345 343 342 343 342 340 336 333 331 332 333 332 332 332 335 336 337 338 337 336 335 331 332 332 332 333 333 333 333 334 334 333 332 331 331 330 330
347 347 345 338 336 337 344 344 343 341 341 341 337 333 335 336 334 332 333 334 335 337 338 337 336 335 333 329 331 331 330 330 330 329 329 330 331 330 329 328 329 330 329
346 348 347 344 336 335 341 344 344 341 340 339 338 334 334 336 333 333 334 335 335 335 337 335 335 334 327 327 328 328 328 330 328 328 327 328 328 329 328 328 328 327 326
344 346 347 345 340 334 335 341 344 342 340 339 340 337 334 335 333 334 336 336 335 334 335 334 333 330 327 326 324 326 327 327 325 325 325 325 326 327 326 326 325 324 323
341 344 345 345 344 336 335 337 340 340 338 338 329 322 336 334 333 335 335 334 333 333 333 332 330 328 327 325 328 328 327 326 325 324 322 323 324 325 324 323 322 322 321
340 342 343 343 342 340 337 335 337 336 337 335 331 325 325 335 332 335 334 333 333 332 331 332 327 327 326 328 328 327 326 326 323 323 323 322 322 323 322 321 321 320 320
339 340 339 341 340 339 338 337 337 335 330 328 326 325 324 332 329 332 333 332 333 332 330 328 326 326 325 327 326 325 322 322 322 321 321 320 321 321 321 320 319 319 319
336 338 339 338 338 338 338 338 334 332 328 328 325 325 324 331 330 330 332 330 332 330 329 325 324 325 325 325 321 321 321 322 321 321 320 320 320 320 319 318 318 318 318
335 336 337 337 337 336 337 335 333 331 330 330 327 325 324 330 330 332 331 331 331 329 326 323 322 322 324 323 321 320 321 321 321 320 320 319 320 319 319 318 318 317 317
334 334 335 335 336 335 335 333 332 332 331 329 328 328 327 328 329 330 329 329 327 324 322 319 320 319 320 320 319 320 321 320 320 320 318 318 319 318 318 317 317 316 316
334 334 334 334 335 335 335 333 330 331 331 329 328 330 329 328 330 329 329 328 325 321 320 317 317 317 319 316 319 320 321 320 319 319 317 318 319 318 318 317 316 316 315
336 333 332 331 332 335 334 332 330 329 328 328 328 329 325 327 327 326 329 327 320 317 317 313 315 316 313 317 319 320 321 320 319 318 317 318 318 318 317 316 316 315 314
334 332 331 328 330 331 331 332 331 330 329 329 329 327 326 327 328 330 327 324 319 318 314 310 314 316 315 318 319 321 321 320 319 317 317 317 318 317 316 316 315 314 314
333 330 328 327 329 327 329 330 330 331 330 328 328 327 327 326 329 329 327 321 319 315 311 313 318 315 315 317 319 319 320 319 318 317 317 317 317 317 317 316 315 314 313
332 329 327 327 326 327 327 328 328 328 330 332 329 327 327 328 327 328 325 320 319 319 312 318 318 317 317 318 319 319 319 319 318 317 317 317 316 316 316 316 315 313 313
330 330 326 326 325 326 326 326 326 329 328 330 330 329 327 327 326 326 324 321 321 320 318 322 320 319 318 318 318 318 319 319 318 318 316 316 315 315 315 315 314 313 312
330 329 327 325 324 326 326 325 325 327 327 327 328 329 328 328 327 326 323 323 321 322 321 320 319 318 317 318 318 318 318 319 319 318 317 316 316 315 315 314 313 312 311
329 328 325 324 324 324 324 323 324 324 325 325 326 327 325 326 324 324 324 324 323 322 322 319 317 316 316 317 317 318 318 318 319 319 318 317 316 316 314 314 313 313 312
329 327 324 323 323 323 323 322 321 322 322 321 321 321 320 322 323 322 322 323 323 322 321 319 317 316 316 316 316 316 318 318 318 319 320 318 317 317 316 315 312 311 311
329 326 323 322 323 323 321 320 319 318 317 317 317 319 318 318 317 319 319 322 320 320 319 317 317 317 315 316 316 316 316 317 318 318 317 318 319 318 318 317 316 313 312
328 325 323 323 322 323 321 320 318 317 316 316 315 314 314 314 315 316 317 317 318 316 316 315 316 316 315 315 315 315 316 315 315 316 317 318 318 318 318 318 318 317 316
328 324 323 322 323 322 321 319 318 316 315 315 315 314 313 313 313 314 315 313 314 315 312 314 315 315 314 314 314 317 321 321 316 315 315 315 315 316 317 317 317 318 317
329 325 323 323 323 322 320 319 317 316 315 315 314 314 315 315 315 315 313 314 312 315 315 313 316 315 316 315 315 318 319 321 322 321 316 315 315 315 314 316 317 317 316
329 326 323 323 324 323 321 319 317 316 316 316 316 315 314 314 315 316 318 316 317 315 318 317 320 319 318 319 318 318 318 319 320 322 320 319 316 316 316 315 315 314 313
330 326 324 323 323 323 322 320 317 317 317 317 315 315 316 314 314 314 317 318 317 317 318 319 321 321 322 321 322 322 321 321 321 321 319 320 320 318 317 316 315 314 313

GFSSE_925_thetae_093.txt.gz
Theta_e
344 341 337 338 341 340 337 339 342 335 333 333 333 334 334 335 336 336 335 335 335 337 339 339 338 340 341 336 334 334 335 335 335 335 335 336 336 335 333 332 332 332 331
345 342 338 336 341 342 340 339 340 338 335 332 333 332 332 334 335 334 333 332 332 334 339 339 339 339 337 334 333 334 334 334 333 334 333 335 335 334 332 332 331 331 331
346 345 342 337 337 341 343 341 341 341 342 335 333 330 328 331 332 331 328 328 329 335 338 338 338 337 334 332 333 333 333 332 332 332 332 332 332 331 330 329 329 329 329
347 347 344 340 336 337 341 342 342 340 340 340 335 333 332 331 330 329 330 331 334 336 337 336 336 335 331 331 331 331 330 329 329 329 329 329 329 330 329 329 328 326 326
343 347 347 344 337 335 338 342 343 341 340 340 338 336 334 335 331 331 333 334 335 336 336 335 335 332 330 330 329 329 328 327 326 327 327 327 328 329 328 327 325 324 324
343 345 346 344 341 334 335 339 343 342 341 340 337 331 329 327 336 334 335 335 334 334 333 332 332 326 327 328 328 327 325 324 325 324 324 325 327 327 325 324 323 322 321
342 344 344 344 343 338 334 337 340 341 341 339 331 330 330 327 326 334 334 334 334 333 332 330 327 325 324 326 327 325 324 323 323 323 323 323 324 324 323 322 321 321 320
339 340 340 341 341 340 337 336 340 339 339 339 336 331 326 327 325 331 333 333 333 331 330 329 327 325 328 327 326 326 325 322 322 322 321 321 322 323 322 319 319 319 319
338 339 339 336 336 338 338 338 336 339 337 337 330 327 324 325 328 331 333 332 332 331 328 327 326 327 328 326 325 322 322 322 321 320 320 320 320 321 320 319 319 318 318
333 336 338 337 335 335 337 338 337 336 334 329 326 326 324 324 324 332 331 331 332 330 327 325 325 327 326 324 321 320 321 321 320 319 319 319 320 319 319 318 317 318 317
333 335 335 335 335 334 334 334 335 333 331 329 325 324 325 324 328 329 330 331 331 329 325 324 325 326 323 321 320 321 320 320 319 318 318 319 319 319 318 319 317 317 317
334 333 334 333 334 334 333 334 333 332 331 329 328 327 325 326 330 330 331 329 329 327 323 322 323 324 322 319 320 320 320 320 319 318 318 318 319 319 318 318 317 317 316
334 333 333 332 333 336 336 333 331 331 331 330 328 328 327 328 327 328 328 328 327 324 321 319 321 321 320 319 320 320 320 319 318 317 318 318 319 319 318 317 317 316 316
334 333 332 329 329 331 334 332 330 330 330 329 329 328 327 326 330 330 328 327 324 320 318 318 318 319 317 319 320 320 319 319 317 317 318 318 318 319 318 317 316 315 314
332 331 330 328 329 328 332 332 331 330 328 328 328 329 326 327 327 325 326 325 320 317 314 316 315 314 317 319 320 320 319 318 316 317 318 317 318 318 317 317 316 315 314
331 329 328 327 328 328 329 330 330 330 330 328 328 327 326 327 327 327 326 321 316 313 311 315 313 314 318 319 320 320 320 318 316 316 317 317 316 317 317 316 316 315 315
331 329 327 326 326 325 327 327 328 328 330 329 329 327 326 327 328 326 324 317 312 308 316 318 313 316 316 319 319 319 319 318 316 316 316 316 316 316 316 316 316 315 314
329 328 326 325 325 326 325 326 326 328 328 330 329 328 327 327 328 326 323 316 310 312 319 318 316 316 317 318 318 319 319 318 317 314 315 316 316 315 315 315 314 314 313
330 327 326 325 324 324 325 325 325 327 328 330 329 328 327 327 328 326 321 318 311 317 320 319 319 318 318 318 318 318 319 318 318 317 315 314 314 315 315 314 313 313 312
329 327 325 323 323 323 323 323 323 323 324 326 327 328 328 327 327 324 322 317 317 319 321 319 318 317 318 318 317 318 318 319 319 318 317 317 315 313 313 313 313 312 311
327 325 324 323 322 323 322 321 321 321 322 323 324 325 327 327 326 323 322 321 320 322 320 318 317 316 317 317 317 317 318 318 319 318 318 317 317 317 316 315 313 311 311
325 324 323 323 322 322 322 320 319 319 318 319 319 319 322 321 323 322 321 323 321 320 318 316 316 316 316 316 316 315 313 316 318 318 318 318 318 317 317 317 316 316 314
324 323 323 322 323 322 321 319 317 317 315 315 316 316 316 318 321 323 323 322 321 321 318 316 316 316 315 316 316 315 315 315 313 316 318 317 318 318 318 318 318 318 317
324 324 323 322 323 322 320 318 317 316 316 315 315 315 315 317 320 320 321 320 320 318 317 316 316 316 315 315 315 317 319 321 316 317 315 315 317 318 317 317 317 317 317
324 323 323 322 323 321 320 318 316 315 315 315 315 314 315 316 317 317 317 316 314 313 314 314 315 315 315 314 314 315 317 319 320 319 317 315 315 315 315 314 316 317 317
323 323 323 323 323 321 319 317 316 315 314 314 314 315 314 314 314 315 314 314 314 313 314 313 313 315 315 314 313 315 317 318 319 319 317 317 317 317 316 315 315 314 315

GFSSE_925_thetae_096.txt.gz
Theta_e
341 341 340 340 340 337 334 333 332 331 332 333 333 334 337 338 337 336 336 336 337 340 341 336 335 335 339 341 338 337 336 336 336 336 335 336 336 335 334 332 331 332 332
342 339 339 340 339 337 334 333 332 331 332 333 332 333 335 336 336 336 337 337 339 340 341 338 336 338 339 337 335 335 335 334 334 334 335 335 335 335 332 330 330 330 331
343 340 338 339 341 339 336 335 333 331 331 332 332 333 335 335 336 335 335 335 337 339 340 339 337 337 339 335 334 334 334 333 334 333 333 333 333 333 331 331 329 329 330
343 342 340 337 338 341 339 336 335 332 332 334 333 332 335 335 334 333 332 332 335 336 338 337 336 337 336 333 333 333 333 333 332 332 331 331 331 331 330 329 329 327 326
344 345 343 339 336 338 340 340 340 340 340 338 336 335 336 336 333 332 330 331 334 335 336 335 335 335 333 332 332 331 330 330 330 329 329 329 329 330 329 328 326 325 325
343 345 344 342 337 336 340 341 342 340 340 338 337 335 334 333 335 333 332 334 335 334 333 333 334 332 331 330 328 328 327 328 328 327 327 328 328 328 326 325 323 323 322
344 345 344 342 339 335 339 342 342 341 340 339 335 333 331 331 330 328 332 330 335 334 333 333 332 330 329 328 327 326 325 325 326 325 326 326 327 326 325 323 322 321 321
343 343 343 342 341 336 337 341 343 342 341 339 334 332 330 329 328 326 327 331 333 332 332 330 330 329 329 326 324 324 324 323 324 324 323 323 324 325 323 321 320 320 319
341 341 339 339 339 340 337 338 339 341 341 339 335 332 332 328 328 326 326 332 332 331 330 328 326 326 328 325 324 323 323 322 321 321 321 322 323 322 321 320 319 320 319
338 338 337 335 333 336 338 338 337 338 340 339 336 335 328 327 326 327 328 327 331 331 327 326 325 327 327 326 324 322 322 321 320 320 320 320 320 321 320 318 319 319 319
334 335 336 335 334 334 334 337 336 338 339 337 330 326 324 326 329 327 326 330 330 329 327 325 327 327 326 320 321 322 321 320 319 319 319 319 321 320 319 319 318 318 318
333 334 334 335 334 333 332 333 334 335 332 330 326 325 324 324 324 328 328 330 328 328 327 326 327 326 320 320 321 320 321 319 318 318 318 319 319 320 318 318 318 318 318
332 334 334 332 333 333 333 332 332 333 331 329 325 324 325 325 327 327 328 328 328 327 325 325 328 324 319 320 320 320 319 318 317 318 318 319 319 320 319 318 318 317 317
332 333 333 332 332 334 335 332 331 332 331 329 328 326 325 326 330 330 330 329 328 326 324 325 325 324 318 319 320 320 319 318 317 318 318 318 319 319 318 318 317 317 316
332 333 332 331 332 332 333 332 331 331 331 330 328 328 327 327 327 327 326 327 328 325 321 323 324 323 318 319 320 319 319 318 317 318 318 318 318 319 318 318 317 316 316
332 332 331 329 327 331 330 332 331 330 330 329 329 328 328 327 328 329 326 325 327 322 319 320 322 321 318 319 320 319 318 317 317 317 317 318 317 318 318 318 317 316 315
330 331 329 328 327 327 329 331 332 331 329 328 329 328 327 327 327 326 325 326 324 316 316 318 319 318 318 319 320 318 318 317 317 317 317 317 317 317 317 317 317 317 316
330 329 328 326 325 325 328 329 329 329 330 330 328 328 327 327 326 326 326 325 317 313 315 315 316 317 317 319 319 318 317 316 316 317 316 316 316 316 316 316 316 316 316
330 328 326 325 325 325 326 326 327 327 328 329 329 328 327 327 327 322 324 319 311 311 315 313 314 317 317 318 319 318 318 317 316 316 315 315 315 315 315 315 315 315 315
328 327 326 325 325 324 324 325 325 326 328 328 329 328 327 327 327 326 322 315 309 315 317 313 315 316 318 318 319 318 318 317 316 314 314 314 315 314 314 314 314 312 312
326 326 325 324 324 323 323 324 322 323 325 328 328 328 327 327 327 324 322 314 311 317 317 315 314 317 318 318 317 317 318 318 317 317 316 314 314 313 313 313 312 312 311
324 324 323 323 323 323 322 321 321 321 321 323 325 327 328 327 325 324 321 315 314 319 318 317 317 317 317 317 317 317 314 316 317 317 317 317 317 315 314 314 313 313 312
323 322 323 323 322 322 321 321 320 319 319 319 321 322 324 327 327 323 322 316 318 319 318 318 317 317 317 317 317 316 314 315 314 316 317 318 317 317 317 317 317 316 315
322 322 323 323 322 320 321 320 319 317 316 316 317 318 321 324 325 323 320 317 319 319 317 317 316 316 316 315 316 315 315 315 314 314 315 317 318 318 318 318 317 317 317
322 322 323 322 322 321 321 320 318 317 317 316 315 316 318 319 320 320 319 319 319 318 317 316 316 315 315 315 315 316 319 319 318 316 314 314 315 317 317 318 318 318 318
322 322 321 322 320 320 320 319 318 317 316 315 315 316 317 316 316 316 317 318 319 319 317 316 316 316 315 315 315 316 318 319 318 318 316 315 314 315 315 316 316 316 316

GFSSE_925_thetae_099.txt.gz
Theta_e
343 340 339 341 340 337 336 335 335 334 334 336 339 339 337 336 337 337 337 335 338 338 341 335 335 335 339 340 338 336 336 336 336 335 335 336 337 336 334 334 334 334 334
341 340 340 340 338 335 334 334 334 334 334 335 338 340 340 338 337 337 335 335 338 340 341 340 334 334 339 339 336 336 335 335 335 334 334 334 335 335 333 331 332 332 333
341 339 340 339 338 335 334 333 332 333 333 333 335 339 339 338 337 337 336 335 338 338 339 339 337 337 338 337 336 335 335 334 334 334 333 333 332 334 332 331 331 332 332
339 338 339 338 338 337 334 333 332 333 333 333 335 337 338 337 336 336 336 337 338 339 338 339 338 336 336 336 334 334 334 334 333 333 332 332 333 333 331 331 331 330 330
339 338 338 338 337 338 336 334 333 333 333 333 333 335 336 336 337 336 336 336 337 337 337 339 336 335 335 334 333 333 333 332 332 331 331 331 330 331 328 327 326 326 326
340 339 339 338 338 339 340 339 337 338 336 335 336 335 336 336 335 334 333 334 335 334 335 337 333 335 334 333 333 333 332 331 330 330 329 329 329 330 327 325 325 324 324
341 342 341 338 338 338 340 340 340 341 339 337 334 334 335 335 334 331 329 331 332 333 333 332 333 333 333 332 331 330 330 328 328 328 328 328 328 328 326 325 323 322 322
341 343 342 339 337 339 340 341 341 341 340 338 334 333 332 333 331 331 329 327 332 331 331 332 332 331 330 329 328 328 328 327 327 327 327 327 327 326 324 322 321 321 320
343 343 341 340 339 337 340 340 341 341 340 339 335 331 331 331 330 328 327 328 332 331 331 331 330 329 328 327 326 325 325 326 326 325 325 325 325 324 323 321 320 320 319
342 342 341 340 339 338 337 339 340 341 340 339 335 332 330 330 330 328 327 330 331 330 330 330 329 328 326 324 324 323 323 324 324 323 323 323 323 323 322 321 320 319 319
340 339 338 336 334 336 337 337 337 341 340 339 337 332 331 333 330 327 326 327 330 325 329 328 328 328 324 323 324 323 322 322 322 321 321 321 322 320 319 319 319 319 318
337 337 336 334 333 332 333 337 337 335 338 338 337 336 334 327 326 327 327 327 325 328 329 326 327 328 325 321 322 322 321 320 320 320 320 319 322 321 320 319 319 318 318
333 335 334 334 333 333 332 333 332 333 336 337 336 332 327 325 325 328 327 329 330 329 327 325 327 326 321 321 321 321 320 319 319 318 319 320 320 320 320 319 319 318 317
331 331 333 333 333 333 332 332 332 331 333 332 330 326 324 324 324 327 327 327 324 327 326 326 326 322 319 321 321 320 319 319 318 318 319 319 319 319 320 319 318 318 317
331 332 333 333 332 333 332 332 332 331 331 332 329 325 324 324 327 328 328 327 326 327 326 326 324 319 320 320 320 320 318 318 318 318 318 319 319 319 319 319 318 318 317
330 331 333 332 331 333 333 333 331 330 331 330 329 327 325 326 326 329 328 328 327 327 326 326 324 318 319 320 319 319 318 317 317 318 318 319 318 319 319 319 318 317 317
330 331 332 332 331 332 332 332 331 330 330 333 330 329 328 327 327 327 328 326 326 326 325 325 324 318 319 319 319 318 318 317 317 318 318 318 318 318 318 318 318 317 316
330 330 332 331 328 330 330 331 331 330 330 330 330 328 328 327 326 327 327 325 324 325 323 323 322 317 319 319 318 318 318 317 317 318 317 317 317 318 318 317 317 317 317
329 329 330 329 327 325 328 330 330 330 330 329 328 328 327 327 327 325 323 320 322 322 320 321 319 317 318 318 318 318 317 317 317 317 317 317 316 316 317 316 316 316 316
328 328 329 328 326 325 327 328 328 328 329 330 329 328 327 327 327 326 323 320 323 319 317 318 318 317 319 318 317 317 317 317 317 317 316 316 315 315 315 316 315 314 315
327 327 327 326 325 325 325 325 325 325 326 328 327 328 327 327 327 326 324 324 318 315 316 316 316 316 318 318 317 316 316 316 316 316 316 315 315 314 314 314 314 313 313
325 325 325 325 324 325 324 323 323 323 324 325 327 327 327 327 326 325 323 323 314 314 315 314 315 316 316 317 317 316 315 315 316 316 316 315 314 314 314 313 313 312 312
324 324 323 323 325 323 323 323 322 321 321 322 323 325 327 326 325 325 321 321 314 315 316 313 316 317 316 317 317 317 314 317 315 316 316 316 315 315 314 313 313 313 313
324 323 323 322 324 322 321 321 320 318 318 319 321 321 324 327 327 326 322 319 312 317 316 314 315 317 317 316 317 317 316 316 316 313 316 316 316 316 317 316 316 316 316
323 322 322 322 322 321 320 320 320 319 318 319 319 320 321 322 323 324 323 317 313 318 317 316 316 317 317 316 316 316 317 315 315 314 313 313 316 317 317 317 318 317 317
321 321 322 321 321 320 319 320 320 319 317 317 317 317 318 320 322 323 320 318 315 317 317 316 316 317 317 316 316 316 317 318 318 318 315 313 314 315 317 317 317 317 317

GFSSE_925_thetae_102.txt.gz
Theta_e
343 338 338 340 342 339 336 335 335 336 339 340 340 338 336 335 336 337 338 336 338 340 340 339 336 337 339 340 338 336 337 337 336 337 337 338 338 337 335 334 334 334 334
339 337 337 338 339 337 335 335 335 336 338 339 339 337 335 334 335 337 336 336 338 339 340 338 336 338 340 338 336 336 336 336 335 335 334 334 334 336 334 333 333 333 332
338 336 337 338 337 335 334 334 334 335 337 339 339 337 336 335 335 335 334 335 337 340 340 339 335 339 340 336 335 335 335 334 333 333 333 331 332 334 333 332 332 332 332
336 336 338 338 336 334 334 333 333 334 336 338 339 338 337 337 337 336 336 336 337 338 340 340 339 338 338 335 335 335 334 333 333 332 331 331 332 333 332 332 332 332 332
336 335 337 338 337 334 333 333 332 333 335 337 339 339 338 339 337 336 336 337 337 337 337 339 338 337 337 335 335 334 333 333 332 331 331 331 331 332 332 331 331 330 330
336 334 336 338 339 338 335 333 333 333 332 334 338 339 339 338 339 336 336 334 335 336 335 338 336 335 336 335 334 333 333 332 331 331 331 331 331 331 329 327 326 327 327
335 335 337 339 339 340 339 338 337 335 333 332 334 337 337 338 338 336 333 329 333 333 332 335 333 334 335 333 333 333 332 331 331 330 330 329 329 329 327 325 324 324 323
335 337 338 338 339 339 340 339 340 339 336 333 333 335 336 336 335 332 329 332 331 331 330 331 332 334 334 333 332 332 331 330 329 329 328 327 328 328 326 325 323 322 322
338 340 339 338 338 339 340 340 340 341 339 336 335 336 336 335 333 331 331 332 328 326 323 329 333 333 333 332 332 330 329 328 328 328 327 327 326 326 324 323 321 321 320
341 341 340 339 337 338 340 340 340 340 339 338 335 334 334 333 332 330 332 328 329 331 332 331 332 332 331 330 329 328 327 327 327 326 326 326 325 324 323 322 321 320 318
342 342 340 339 338 337 337 339 341 340 339 339 337 333 331 331 331 330 328 328 330 329 330 330 331 330 329 328 327 326 326 326 326 325 325 324 324 322 322 319 320 319 319
340 341 340 339 339 337 336 336 338 339 338 339 338 334 331 330 330 331 329 328 327 328 327 329 329 329 327 325 324 324 324 324 323 323 323 321 323 322 322 320 319 319 318
339 339 339 337 335 334 335 334 336 337 337 337 338 335 332 330 331 331 326 326 328 328 327 326 328 327 324 324 323 322 322 322 322 321 320 320 321 321 321 319 319 319 318
335 336 336 335 333 332 331 334 336 336 333 334 337 336 333 333 330 326 327 327 326 328 326 326 326 324 323 324 322 321 321 320 320 320 320 321 321 321 320 319 319 318 317
331 333 334 334 333 332 332 333 334 332 332 331 332 334 334 330 325 324 326 327 328 328 327 326 326 323 322 322 322 321 320 320 319 319 320 319 319 319 319 319 319 318 317
329 329 330 332 333 333 332 332 332 331 331 331 330 330 329 325 324 325 326 328 327 326 326 325 325 322 321 321 321 320 319 319 318 319 319 318 318 319 319 319 319 318 318
329 329 329 331 332 333 332 332 332 331 332 328 329 330 327 324 324 326 327 328 325 326 325 324 323 320 320 320 320 319 318 318 318 318 318 318 318 318 318 319 318 318 317
329 329 329 331 332 332 331 332 332 331 332 330 329 328 328 325 325 326 328 327 324 325 325 323 319 319 319 320 319 318 317 317 318 318 318 318 318 318 318 318 318 317 317
328 328 329 330 332 331 332 332 332 331 332 332 327 329 330 327 327 327 327 327 326 324 324 320 317 319 318 319 318 318 317 317 317 318 318 318 318 318 318 317 317 316 316
327 328 329 329 332 331 331 330 330 330 329 331 329 330 328 327 327 327 326 324 323 321 321 319 317 318 319 318 317 317 317 317 317 317 317 317 317 317 318 317 317 316 316
326 327 328 328 330 329 326 326 328 328 329 330 331 328 328 327 327 326 325 321 319 319 320 319 317 317 317 317 316 316 316 317 317 317 317 317 317 316 316 316 315 315 315
325 326 325 326 328 326 324 324 325 325 324 326 326 328 328 327 327 326 324 321 322 319 319 318 317 316 317 317 317 316 316 315 316 317 317 317 316 315 316 315 315 314 313
325 324 325 325 326 324 323 323 321 321 322 324 325 327 327 327 326 326 323 320 320 319 318 317 316 317 317 317 317 317 316 317 315 316 316 316 316 315 315 315 314 312 312
324 324 323 324 324 323 324 321 321 320 320 320 322 324 326 326 325 325 323 320 319 315 313 315 316 317 317 316 317 318 318 317 316 314 315 315 315 315 315 315 313 313 313
324 322 323 324 322 323 322 322 321 319 319 318 319 321 323 324 324 324 325 322 320 314 315 314 315 316 317 317 317 315 315 317 316 313 314 313 315 316 316 316 316 316 316
323 322 322 322 321 320 322 320 319 318 318 318 318 318 320 320 321 324 322 321 320 314 316 314 315 316 316 317 317 317 315 316 316 316 313 312 314 317 317 317 317 317 317

GFSSE_925_thetae_105.txt.gz
Theta_e
342 338 336 343 342 338 336 336 337 341 342 341 339 336 336 336 336 337 341 342 341 342 341 340 339 339 340 340 335 336 337 338 338 337 338 338 338 338 336 336 337 338 335
335 337 335 341 339 337 335 335 335 340 341 340 340 336 336 336 336 338 341 339 340 340 342 339 337 339 340 337 334 336 336 336 336 336 336 337 337 336 334 335 335 335 334
334 336 338 341 340 337 335 334 335 338 340 340 340 337 336 336 337 339 337 338 339 340 340 340 339 339 339 336 336 336 336 335 335 334 335 336 336 335 334 333 333 333 332
334 336 338 339 338 336 335 334 334 335 338 339 339 337 336 337 338 337 336 338 338 339 339 340 340 341 337 336 336 335 335 334 334 333 332 334 333 334 333 332 332 332 332
334 335 336 336 338 335 334 334 333 334 336 339 339 337 336 336 337 335 335 336 337 337 338 340 340 339 335 335 334 334 333 333 332 332 332 333 333 333 333 332 332 331 332
333 333 336 336 337 335 334 334 333 333 334 337 338 337 337 337 337 335 337 336 335 335 336 338 338 338 335 334 334 334 333 332 331 332 332 332 333 333 332 331 331 330 330
332 332 335 337 340 340 335 334 333 333 335 337 340 339 339 338 337 334 335 334 334 330 336 337 337 337 334 334 334 333 333 332 333 332 333 333 332 331 330 328 328 327 327
332 334 336 338 340 340 340 335 335 334 335 339 343 342 342 341 338 335 335 335 329 330 334 336 335 335 334 334 333 333 332 331 332 332 332 331 330 330 329 326 324 323 323
333 335 337 338 339 339 339 338 339 337 334 335 338 337 338 338 337 335 334 331 331 329 330 334 334 335 333 333 333 332 331 331 331 330 330 331 328 328 327 324 322 322 322
336 336 337 338 339 340 340 339 339 339 337 334 334 335 336 335 335 335 332 330 333 331 329 330 334 334 333 333 332 331 331 330 330 329 329 329 327 327 325 324 323 321 320
339 338 339 338 338 339 339 340 340 340 339 338 336 334 335 334 334 332 329 328 330 329 328 330 333 332 332 332 331 330 329 329 329 328 328 326 325 325 324 323 321 321 319
339 340 340 339 338 338 339 339 339 339 338 338 337 335 334 333 332 330 328 327 328 328 328 329 331 331 331 330 328 328 328 327 328 327 327 324 325 324 321 321 320 319 319
339 338 340 339 338 337 337 338 337 339 339 337 338 336 333 332 332 331 330 328 329 330 328 328 329 329 328 327 326 326 326 326 326 326 325 323 323 324 322 321 320 319 319
337 337 341 339 339 338 337 336 334 335 337 338 337 337 334 331 331 329 329 331 328 329 329 327 329 328 327 326 325 324 325 324 325 324 323 321 322 324 323 321 321 320 318
335 336 337 339 338 336 335 335 334 332 334 336 336 334 336 332 330 330 331 328 327 328 327 327 327 326 326 323 323 322 323 323 323 322 322 320 320 322 322 321 320 319 319
333 334 334 335 336 334 332 332 332 332 336 337 335 333 335 334 333 331 330 327 327 328 328 327 326 325 325 322 322 322 321 321 321 321 322 322 320 320 321 322 320 319 319
332 332 331 332 334 333 331 331 334 333 336 332 332 332 332 332 332 331 326 326 327 327 327 326 325 324 322 321 321 321 321 321 320 321 321 320 319 319 319 319 319 319 319
330 330 330 329 330 333 332 332 332 331 330 329 330 329 330 329 329 326 326 327 327 327 321 323 322 322 321 320 320 320 320 320 320 320 320 319 318 319 319 319 318 318 317
325 328 329 329 329 331 332 331 332 330 331 330 328 328 329 327 326 326 326 327 327 325 322 321 322 322 319 318 320 320 319 319 319 319 319 319 319 319 319 317 317 317 316
317 324 328 329 329 330 332 332 330 330 331 330 328 327 326 327 327 325 326 327 325 324 322 320 320 320 319 318 319 319 319 319 319 319 319 319 319 319 319 319 318 317 316
316 324 327 328 329 329 329 330 328 329 328 329 327 326 327 326 326 326 326 327 325 323 321 318 318 319 317 318 318 318 318 318 319 319 319 319 319 319 319 318 318 318 317
322 325 327 327 327 328 328 328 328 327 326 326 326 326 327 326 327 326 326 326 325 323 320 319 318 318 317 317 319 318 318 317 318 318 318 318 319 318 318 318 318 318 317
324 325 326 327 326 328 328 327 325 325 324 325 324 326 327 328 327 327 326 322 320 319 317 318 318 319 317 317 318 320 319 320 318 318 318 318 318 318 317 317 317 317 317
322 325 325 325 325 327 326 325 324 324 324 323 324 327 327 327 327 326 324 321 319 317 317 318 318 318 318 317 317 317 318 317 320 319 317 317 317 317 317 317 316 316 316
321 324 325 324 323 325 325 324 323 323 322 321 322 323 324 325 326 324 324 321 319 319 319 319 319 319 318 318 317 316 317 317 318 318 319 317 317 316 316 316 316 316 314
323 324 324 322 323 322 323 322 321 321 321 320 319 319 321 324 325 323 322 321 320 317 317 317 317 318 318 318 318 317 317 317 316 316 318 318 317 316 316 316 316 315 315

GFSSE_925_thetae_108.txt.gz
Theta_e
339 344 334 334 335 338 338 337 336 337 339 342 339 336 337 338 339 340 341 342 341 341 342 342 341 341 340 337 335 338 338 338 339 338 339 340 339 338 337 337 338 339 337
338 344 334 337 335 338 337 335 336 338 340 342 340 336 336 338 339 341 341 342 341 342 342 340 340 340 341 335 336 337 337 337 337 338 337 338 338 337 337 337 337 337 336
341 344 338 339 337 337 336 336 337 340 341 342 340 337 338 339 338 340 342 342 341 341 341 341 339 340 338 335 336 336 337 337 336 336 336 337 337 337 335 336 335 334 334
342 344 344 336 336 337 335 335 337 339 341 341 340 337 337 338 339 341 341 340 340 339 341 341 341 341 337 335 336 336 336 336 335 334 335 336 336 335 334 333 333 334 333
341 343 345 334 336 336 335 334 335 338 340 340 340 338 338 337 338 340 338 339 340 339 339 341 341 340 336 336 336 335 335 334 333 334 334 334 334 335 334 333 332 332 334
340 342 344 334 336 336 335 334 334 336 338 340 340 338 338 338 339 337 337 338 338 337 338 338 338 338 336 336 335 334 334 333 331 332 333 332 333 333 333 333 332 332 331
340 342 343 335 336 336 335 334 334 335 337 339 340 339 338 338 337 336 336 335 333 334 334 328 337 337 335 334 334 334 333 331 333 333 333 334 334 334 332 331 331 330 331
342 343 344 338 337 337 336 335 334 334 336 338 339 339 338 337 336 336 334 334 334 334 330 336 337 337 335 334 334 333 332 332 332 332 333 333 332 331 331 329 329 329 327
343 343 344 343 341 339 338 336 335 334 335 338 339 340 339 337 336 335 335 334 334 329 330 332 336 335 335 334 333 333 332 332 333 333 332 332 329 330 329 327 325 324 323
342 342 343 344 343 344 342 340 338 337 336 337 340 342 340 338 338 336 335 334 333 330 333 330 330 331 333 334 333 332 332 332 332 331 331 331 329 328 327 326 323 323 322
341 340 342 343 343 344 344 343 339 339 337 336 338 341 337 337 337 336 335 335 331 330 330 330 330 333 331 332 332 332 331 332 331 331 330 329 328 328 326 325 322 321 321
341 340 340 341 342 342 341 343 342 342 340 340 339 339 338 337 337 336 335 334 329 330 330 329 331 332 331 331 330 331 331 331 330 329 329 327 327 326 325 324 322 321 320
338 339 340 341 342 341 340 340 342 343 341 340 341 340 339 338 337 335 334 333 330 332 330 331 331 333 330 329 329 329 330 330 329 328 327 325 325 326 324 321 321 321 319
337 339 340 341 341 341 339 339 339 339 341 339 339 338 339 338 338 336 334 333 332 331 332 332 331 330 329 328 327 328 328 328 326 326 326 324 324 324 323 321 321 321 319
337 339 340 340 341 340 340 338 337 339 340 340 337 338 337 336 335 335 333 332 332 332 333 330 330 329 328 327 327 328 327 326 325 324 325 323 323 324 323 322 322 322 320
334 337 339 339 340 340 340 339 338 337 336 338 337 337 337 337 335 335 334 332 330 332 332 331 329 328 327 326 326 327 326 325 325 323 324 323 323 323 323 323 323 321 321
331 333 337 340 340 340 339 337 336 335 335 337 335 335 337 334 335 334 334 331 332 330 329 330 328 327 326 325 326 325 325 325 324 322 322 322 322 321 320 321 321 321 321
327 329 333 335 338 339 338 336 333 333 333 332 334 334 334 335 333 333 332 331 330 328 327 328 326 324 324 324 324 324 324 324 323 321 322 322 322 321 320 320 319 320 318
323 325 328 333 334 337 338 336 333 332 333 334 333 330 331 333 333 332 331 329 327 326 327 326 324 324 323 323 324 324 324 323 322 320 320 320 321 321 321 319 319 319 317
319 320 323 328 332 334 337 335 333 332 332 333 333 332 332 331 330 331 330 329 327 326 325 323 321 321 321 321 322 324 323 322 322 320 319 320 320 320 319 320 319 318 317
322 322 321 325 330 332 335 333 331 330 331 332 331 331 331 330 330 329 328 328 326 324 322 320 320 320 320 320 321 323 322 321 321 320 319 319 320 319 320 319 318 318 317
324 325 325 327 330 332 332 331 331 330 330 330 330 331 329 329 328 327 327 326 326 321 321 320 321 320 319 319 321 320 321 320 321 320 319 319 320 320 319 320 319 318 318
324 325 326 327 330 331 331 329 331 330 330 329 329 328 327 328 326 327 326 326 325 323 320 319 320 319 318 320 320 321 321 322 321 320 320 318 319 319 319 319 319 318 318
324 325 326 327 329 330 331 329 331 330 329 329 328 328 327 326 326 326 326 324 326 323 320 319 319 319 319 320 320 321 320 320 322 322 320 318 318 318 318 318 318 318 318
323 327 327 327 328 328 330 329 330 331 331 330 329 328 325 326 325 328 326 325 324 322 322 319 319 319 318 319 320 319 321 320 320 320 321 318 318 318 318 318 317 317 317
323 325 328 328 327 326 328 329 330 332 331 328 326 325 324 325 325 326 325 324 322 320 319 318 319 318 318 319 319 318 320 321 320 320 320 318 317 317 317 317 318 317 317

GFSSE_925_thetae_111.txt.gz
Theta_e
341 344 333 335 339 340 340 338 337 337 340 341 338 336 337 337 338 339 343 342 340 341 343 343 342 341 340 338 335 335 337 338 338 338 339 340 340 337 338 338 339 340 338
339 342 332 334 334 336 338 337 336 336 339 342 340 336 337 337 338 339 342 342 341 342 342 342 341 342 341 336 337 337 338 338 338 338 338 339 339 338 337 338 338 337 337
340 343 334 332 334 337 337 336 336 338 341 343 340 337 338 338 338 342 342 341 341 342 342 340 340 341 341 336 337 337 337 337 337 336 337 338 339 337 336 337 336 336 336
340 343 343 331 335 336 336 335 336 339 344 344 341 339 338 338 339 342 342 342 342 341 342 340 341 341 337 335 336 336 336 336 334 335 337 337 338 336 336 335 335 335 335
339 342 345 332 335 336 335 335 336 339 343 343 341 339 337 338 337 340 342 341 340 340 341 342 341 340 335 336 336 335 335 334 333 337 336 336 336 336 335 334 334 332 334
338 340 342 333 335 336 335 335 337 340 342 341 341 339 337 338 339 341 341 340 340 339 339 339 340 339 335 336 335 335 334 333 332 336 333 334 335 334 333 333 333 333 332
338 342 342 334 335 336 335 334 336 339 341 341 341 340 339 339 338 339 338 339 340 338 336 335 334 333 336 336 335 335 333 329 332 334 332 334 335 334 333 332 332 331 331
340 344 347 335 336 336 335 334 335 337 340 342 342 344 340 339 338 338 337 338 338 337 336 336 331 335 336 336 335 334 332 330 333 334 334 334 333 333 333 331 331 331 330
342 345 347 344 338 336 335 335 335 336 338 341 344 343 339 338 337 337 336 335 335 335 335 331 333 336 336 335 333 333 331 332 332 334 333 334 331 332 332 330 330 329 326
343 343 346 346 344 343 340 336 335 335 336 338 342 342 339 337 337 336 335 335 334 335 332 332 333 331 332 327 331 332 331 332 333 333 333 332 330 329 330 329 327 325 324
342 341 343 344 344 345 344 342 337 337 335 336 340 342 340 337 338 337 336 335 334 332 329 331 329 333 331 329 330 330 330 331 332 332 332 330 329 330 328 328 326 324 323
341 339 340 342 343 343 342 344 342 342 341 340 341 342 342 340 339 338 337 335 335 333 330 330 330 330 329 330 330 329 329 332 331 330 331 329 329 329 328 326 325 324 322
339 338 337 341 343 342 340 341 341 341 342 341 340 340 340 340 338 338 336 336 334 334 332 331 331 331 332 331 331 329 325 326 331 330 329 328 327 328 326 325 324 323 321
336 338 338 339 342 343 340 339 339 343 342 341 342 341 341 339 339 338 337 336 335 333 332 332 332 333 331 330 330 327 326 327 329 329 327 327 326 327 325 323 323 322 320
331 335 337 339 342 343 342 339 339 343 342 341 342 340 341 340 339 338 336 336 334 333 332 333 333 333 331 329 328 327 327 326 327 327 326 325 326 325 324 321 323 322 320
328 332 337 340 343 343 342 341 339 340 342 341 340 340 340 339 339 337 337 336 336 334 334 333 332 332 330 329 328 327 325 324 326 326 327 325 324 324 323 323 323 323 322
326 329 336 340 344 343 342 341 340 338 339 341 340 339 340 340 339 338 337 335 334 334 333 333 332 331 330 328 327 326 325 327 325 325 325 324 324 323 322 323 323 323 322
327 328 330 337 341 342 342 341 341 338 338 338 338 338 339 339 338 337 336 336 333 333 332 333 331 330 329 327 327 325 326 326 325 324 324 323 324 323 322 323 322 320 321
324 326 328 332 337 341 342 342 341 337 337 337 336 336 337 336 335 335 335 334 333 332 331 330 330 329 328 327 326 323 325 325 324 323 323 322 322 323 322 321 320 319 319
322 323 325 328 333 338 339 341 340 338 336 336 335 335 335 335 335 334 333 332 332 331 329 327 327 326 326 325 325 325 324 324 323 320 322 322 323 322 322 321 321 320 318
322 322 322 323 326 334 336 338 340 336 335 335 336 335 334 333 333 331 331 332 330 328 326 326 325 324 323 324 325 324 324 323 323 321 321 321 321 321 320 321 321 320 319
324 324 325 325 325 328 333 335 339 334 333 333 334 335 334 333 331 330 331 331 329 327 325 325 323 321 321 323 324 323 323 322 322 321 321 320 319 320 321 320 319 319 319
324 325 326 326 327 328 332 336 335 333 332 332 332 334 334 332 331 331 331 329 328 327 325 323 321 321 321 322 322 322 323 324 322 321 320 320 321 320 320 320 320 319 320
325 325 328 327 327 329 332 334 333 333 332 331 332 333 333 332 331 330 329 328 327 325 323 321 321 321 320 321 320 320 320 321 323 323 321 320 321 320 321 319 320 319 319
322 324 327 329 329 329 331 334 332 332 332 333 333 332 331 331 329 329 328 327 326 324 323 322 321 320 319 319 320 321 320 321 321 322 322 321 320 319 319 320 319 319 319
322 323 325 328 329 329 330 332 333 331 334 333 333 333 330 330 330 328 327 326 325 325 323 322 321 320 318 318 319 320 321 321 321 322 322 321 320 320 318 319 319 319 319

GFSSE_925_thetae_114.txt.gz
Theta_e
346 333 331 336 340 341 340 339 338 340 341 341 339 336 335 334 336 336 338 339 340 342 343 343 341 341 340 341 340 338 338 339 339 338 337 336 337 337 338 339 339 338 338
341 327 329 334 338 340 340 339 338 338 340 341 339 336 336 335 336 337 339 339 341 341 342 342 341 340 339 336 333 336 337 337 337 337 336 336 337 338 337 339 337 337 337
335 326 329 333 335 336 337 337 337 337 339 341 340 337 337 336 336 338 341 341 341 342 341 341 341 339 336 335 336 336 337 337 336 335 336 339 338 337 337 336 336 336 336
333 327 328 330 333 335 336 336 336 338 339 341 341 338 337 336 336 337 341 340 340 342 340 340 340 340 336 336 335 335 336 336 335 337 338 337 338 335 335 335 336 336 336
341 340 329 331 333 335 335 335 336 339 341 343 342 339 337 337 337 339 342 340 341 342 340 340 340 339 336 336 335 335 335 334 337 338 336 335 336 335 335 336 334 334 335
340 344 330 332 332 334 334 335 336 339 343 346 342 340 338 337 338 339 341 341 341 340 338 340 336 331 335 335 335 334 333 334 337 336 336 336 335 335 333 333 334 333 333
340 343 332 331 331 334 334 334 336 338 342 342 341 341 339 339 338 338 341 341 339 338 337 336 335 332 335 335 335 334 332 333 335 334 334 334 333 333 334 333 333 332 332
343 344 335 332 331 334 334 334 335 337 340 342 341 341 340 338 338 338 341 340 339 338 337 336 336 334 335 335 335 334 332 332 333 334 335 334 332 333 333 332 331 331 330
345 348 336 333 334 335 334 334 335 335 338 340 341 343 343 339 338 337 339 337 336 338 335 335 333 333 335 335 334 333 331 331 332 334 334 332 332 333 334 331 331 330 328
344 348 343 339 336 335 335 334 334 334 335 338 341 344 343 340 339 337 336 335 336 335 334 336 330 332 333 333 333 332 329 330 331 334 334 331 332 333 332 332 330 328 325
344 345 348 346 343 340 337 335 335 334 334 336 339 341 342 341 339 338 336 335 334 334 334 332 331 332 331 331 327 330 329 329 332 330 332 331 331 331 330 329 327 325 324
344 343 346 345 345 345 344 343 336 335 335 335 336 339 338 340 340 339 337 335 335 334 333 329 331 329 331 330 326 329 327 330 331 330 329 329 329 330 328 327 326 326 324
343 341 342 344 345 345 342 343 343 342 340 339 340 341 341 340 339 339 338 337 335 335 331 331 329 330 332 329 329 329 326 327 331 330 329 329 328 330 329 326 326 325 323
341 340 338 342 343 343 343 343 343 342 342 341 340 339 342 341 340 339 338 337 336 335 334 332 330 331 332 331 329 330 327 327 325 328 328 328 328 329 328 327 325 325 322
336 339 338 339 343 344 342 340 341 342 341 342 340 340 339 342 341 339 338 338 336 336 334 332 332 332 331 331 332 331 328 326 326 324 325 327 327 327 327 326 324 324 322
329 336 338 338 341 343 344 342 339 345 343 341 341 341 342 341 340 338 338 337 336 336 334 333 332 332 332 331 331 331 327 326 325 326 327 326 326 326 324 324 324 323 323
326 327 338 340 341 344 345 342 343 341 344 340 342 341 341 341 341 339 338 337 336 335 333 332 331 332 332 330 329 329 327 326 324 327 326 325 326 324 323 322 322 322 323
325 326 336 341 342 343 344 344 342 342 341 343 341 338 339 340 340 339 337 336 336 334 333 333 333 331 331 330 329 328 327 325 324 326 326 325 324 324 322 322 322 321 321
323 326 327 339 344 343 343 344 343 341 340 340 342 340 338 339 339 338 338 337 335 334 333 332 331 331 330 329 329 328 327 324 325 325 325 324 323 323 322 322 322 321 321
322 323 327 333 341 344 344 341 344 343 340 339 338 339 339 337 338 338 336 336 335 334 332 332 331 330 330 329 328 327 326 324 325 324 324 323 323 323 322 322 321 320 319
324 323 323 326 336 341 344 344 344 344 340 338 338 338 336 335 335 335 334 335 333 332 331 330 329 328 328 327 326 326 325 325 325 324 323 323 322 323 322 321 320 319 319
323 324 324 324 324 333 340 340 342 342 341 338 337 337 336 335 336 333 334 332 331 330 328 326 327 325 325 326 325 324 324 324 324 323 323 322 323 322 322 322 320 320 319
324 325 325 325 326 327 326 336 337 340 338 335 335 334 337 336 334 333 332 331 330 329 328 327 325 324 323 324 325 323 323 323 322 322 322 322 322 321 321 321 320 320 320
324 325 326 327 328 328 328 331 338 336 335 334 333 333 335 335 333 331 330 331 329 327 328 326 325 324 323 323 323 322 321 322 322 322 321 321 321 319 320 321 321 320 320
324 324 326 327 329 329 329 331 337 336 335 333 332 332 332 333 332 331 331 331 329 327 326 326 324 323 322 322 322 321 320 321 321 321 320 321 321 320 319 319 320 320 320
322 323 324 324 325 328 329 330 336 335 334 332 332 332 331 333 332 331 330 328 326 326 326 326 324 322 321 322 322 320 320 321 321 321 319 320 321 320 320 320 320 319 317

GFSSE_925_thetae_117.txt.gz
Theta_e
338 337 338 339 340 340 340 340 340 340 341 339 336 334 333 333 333 334 337 339 339 339 340 340 341 340 340 340 339 338 339 339 339 338 338 337 337 338 339 339 339 338 338
335 335 334 336 339 340 340 339 339 340 340 340 337 335 334 334 333 334 336 338 339 339 340 340 340 339 339 338 336 336 338 337 337 336 336 337 339 340 338 337 337 337 337
328 331 335 335 337 339 339 338 338 339 339 340 338 335 335 335 335 335 336 339 341 341 340 340 340 338 335 334 334 336 336 336 336 334 335 337 338 339 337 336 336 336 337
324 330 333 333 334 336 337 337 337 337 338 339 339 336 336 335 335 336 338 340 342 341 341 340 338 335 334 334 335 335 336 335 336 336 335 336 337 335 336 336 336 336 336
325 328 329 330 332 334 335 336 335 336 338 340 340 338 336 336 336 338 339 339 341 341 340 339 336 335 333 333 333 334 335 335 337 338 334 334 334 334 336 336 336 335 335
331 327 327 330 333 334 334 334 335 337 339 341 340 339 337 337 337 339 340 340 341 341 339 339 337 336 334 334 333 334 334 335 336 336 334 334 333 336 334 334 334 334 334
337 328 327 330 332 333 333 334 336 337 339 341 341 340 338 337 337 338 340 340 340 338 337 336 335 331 334 334 333 333 334 335 334 333 334 333 331 334 333 333 333 333 332
340 327 329 331 331 333 332 333 335 337 339 340 340 340 339 337 337 337 339 340 339 339 336 336 335 332 333 334 334 332 333 333 333 332 333 332 330 335 333 333 332 332 330
341 332 330 332 332 332 332 332 334 336 338 339 340 340 340 338 337 337 339 339 337 336 335 335 334 332 332 333 334 333 333 332 333 332 324 330 331 333 334 331 331 330 328
343 338 331 333 332 332 332 332 332 334 336 335 339 341 340 339 338 337 337 338 336 336 335 335 333 330 331 334 334 333 332 331 331 331 330 330 332 332 333 333 330 329 326
347 344 332 333 332 332 332 333 333 334 335 335 339 339 341 340 338 338 337 336 336 335 335 334 331 330 333 332 331 332 331 331 330 330 326 328 331 331 331 330 330 327 324
348 347 341 334 333 333 334 333 333 333 334 335 337 339 340 339 338 338 336 336 335 335 334 333 330 331 331 331 328 327 329 330 331 329 329 328 330 331 329 329 328 326 324
343 344 345 341 336 335 336 335 334 334 334 334 335 336 338 339 338 339 337 336 335 334 334 333 330 331 329 331 331 326 329 327 330 330 328 328 328 330 327 327 327 326 325
343 343 344 344 343 341 344 343 339 335 334 334 334 336 338 337 338 340 338 338 335 335 334 331 330 329 330 330 329 327 328 326 330 328 324 322 328 329 329 328 327 326 324
342 342 341 342 344 343 342 342 341 339 337 337 337 338 340 341 338 338 338 338 337 336 334 333 331 330 330 331 330 329 329 328 327 326 327 327 327 328 329 328 327 326 324
341 340 340 341 342 343 341 342 341 342 341 340 339 338 338 341 341 340 338 337 337 336 335 334 333 331 331 331 330 329 330 329 327 325 324 325 327 327 327 327 327 326 324
329 339 338 340 341 342 341 341 341 342 342 340 341 339 338 338 342 340 339 338 337 336 335 334 333 332 332 330 331 330 330 329 327 325 325 324 326 326 325 324 324 323 323
321 328 338 339 341 342 342 340 342 341 343 342 342 341 340 340 340 340 338 337 337 336 335 334 333 332 332 331 331 330 329 328 326 325 326 326 326 326 324 322 323 322 321
321 323 336 339 341 342 343 342 340 342 343 344 341 340 340 341 342 341 339 337 336 336 334 333 332 331 331 331 330 329 328 328 326 325 326 326 326 325 323 321 322 320 320
321 324 328 339 340 341 343 344 343 340 341 342 342 341 339 339 339 340 339 337 336 335 334 333 332 332 331 330 329 328 327 327 326 324 326 326 325 324 322 320 321 321 320
320 321 327 343 342 343 344 344 344 343 341 340 340 340 340 338 337 337 339 336 336 335 333 332 332 331 330 329 328 327 327 326 326 324 326 325 324 323 322 320 321 320 319
323 324 328 342 344 343 343 342 342 344 343 342 340 339 338 339 337 335 336 335 335 335 332 331 330 329 329 328 326 325 324 324 325 325 324 324 323 323 322 321 321 320 319
324 325 325 326 338 344 342 342 342 341 342 340 339 338 337 337 336 334 334 333 333 333 331 329 328 327 326 326 326 324 323 324 323 324 323 323 323 323 322 321 320 319 318
324 325 326 327 327 328 331 340 341 341 339 340 338 337 336 336 336 334 333 332 333 332 330 328 326 326 324 323 325 324 322 322 323 323 322 323 322 322 322 322 320 319 319
324 325 326 326 327 327 327 328 335 337 337 338 337 336 335 334 335 336 334 332 332 331 329 327 326 325 324 323 323 323 321 322 322 321 322 321 321 321 321 321 321 319 319
319 319 319 320 321 322 323 326 331 336 336 335 334 333 333 333 333 335 332 331 330 329 328 327 325 325 325 323 323 323 322 321 321 321 321 321 321 320 320 321 320 319 321

GFSSE_925_thetae_120.txt.gz
Theta_e
342 341 341 340 340 339 339 340 340 339 338 334 332 332 332 333 337 339 339 339 340 339 338 338 340 340 340 339 338 338 339 338 338 338 340 341 341 340 339 339 338 338 338
335 340 341 340 340 339 339 339 340 340 339 335 333 332 332 333 335 337 339 339 339 339 338 338 339 339 339 338 337 338 338 337 337 338 339 340 340 339 338 338 337 337 337
333 338 339 339 339 339 339 339 339 339 339 337 335 334 333 333 334 336 337 338 339 339 339 338 338 337 336 334 334 336 337 336 336 336 337 337 339 339 337 337 337 337 337
329 335 336 337 338 338 338 338 338 338 339 338 336 335 334 334 334 335 338 340 340 340 339 338 337 335 333 334 335 335 336 335 335 335 335 337 338 341 337 336 336 336 335
330 333 335 337 337 336 336 336 337 338 338 338 337 336 335 335 335 336 340 341 341 341 340 338 336 334 334 334 334 335 335 337 335 334 334 334 335 338 337 336 336 335 335
330 332 334 335 333 333 334 335 335 336 337 338 338 336 336 336 336 337 338 341 340 339 339 337 336 334 333 333 334 335 336 337 336 334 334 333 333 336 336 336 336 335 333
329 331 332 333 332 333 334 333 334 336 338 339 338 337 336 336 336 338 338 340 340 339 338 337 334 333 333 333 334 333 335 335 335 334 333 332 331 335 335 334 334 333 333
327 330 332 333 333 332 332 332 334 335 338 340 339 338 336 336 336 338 338 339 339 337 336 336 332 330 333 333 333 333 334 333 332 333 332 330 331 335 334 333 333 332 331
327 329 332 333 333 332 331 332 333 336 338 339 339 338 337 336 336 337 338 339 338 337 335 335 333 331 333 333 333 332 333 333 331 332 332 329 330 335 334 332 332 331 329
329 329 330 332 333 332 333 332 332 334 337 339 339 339 338 336 336 336 337 338 338 336 335 334 332 329 331 332 334 333 332 332 331 330 324 327 329 332 333 335 331 329 327
333 330 330 331 333 333 332 333 333 333 336 337 339 339 339 338 337 337 337 338 337 337 335 334 332 329 330 333 334 333 332 331 331 330 327 328 330 333 332 331 331 328 325
339 334 330 330 332 334 333 334 333 334 336 334 338 335 338 339 338 338 336 337 336 336 335 334 333 330 330 332 331 331 332 330 330 329 325 327 330 332 330 330 329 327 324
342 339 332 332 332 333 333 333 333 334 335 335 336 335 335 339 338 338 337 337 336 336 335 334 333 329 330 331 331 331 330 330 330 329 328 328 329 333 331 328 327 327 325
344 341 339 331 332 333 333 332 332 333 333 333 334 336 335 338 338 338 337 337 336 336 334 334 333 329 330 329 330 329 328 329 330 329 328 328 328 330 331 327 326 327 325
343 343 340 336 330 331 333 333 332 332 332 332 333 334 335 335 337 337 337 336 336 335 334 334 333 330 329 329 330 330 326 328 328 328 328 328 327 328 330 329 328 327 326
341 341 341 339 336 331 332 333 334 334 332 332 332 333 333 335 335 337 338 338 337 335 334 334 332 330 329 329 330 330 328 328 327 328 325 324 325 326 328 328 329 328 326
340 341 342 342 342 340 338 339 338 338 337 334 334 334 334 337 339 337 338 338 338 337 336 334 333 332 331 330 330 330 329 329 329 327 325 325 326 327 327 328 327 327 326
340 340 340 342 343 342 342 340 340 340 340 340 340 336 336 336 339 341 339 338 337 336 336 335 334 333 331 331 331 330 329 330 328 327 325 324 324 325 326 325 325 325 324
324 339 339 340 342 342 342 341 340 340 341 342 341 339 339 337 338 340 341 339 338 337 336 335 334 333 332 331 331 330 329 328 328 326 325 325 325 326 325 325 324 324 321
320 320 337 338 340 341 341 341 341 341 341 341 341 341 341 339 339 339 340 339 338 337 336 335 334 333 332 330 329 329 328 326 327 326 325 326 326 326 326 324 324 322 320
320 319 328 336 339 341 341 341 340 342 342 342 342 341 341 340 340 341 341 339 337 336 335 334 333 332 331 330 328 327 327 327 326 326 326 325 326 326 325 322 323 321 320
319 319 325 336 339 341 342 341 341 339 340 341 342 342 340 340 340 340 340 340 338 336 335 334 332 331 330 330 328 326 325 325 325 326 325 325 326 326 325 322 321 321 320
322 329 332 338 340 341 341 342 342 341 340 339 340 340 340 340 339 339 337 336 335 335 334 334 332 330 328 328 328 326 324 326 324 325 325 325 325 325 324 322 321 320 320
322 327 337 341 342 342 342 341 340 339 339 341 340 339 339 339 339 338 336 335 335 335 334 333 331 329 328 326 327 326 323 322 323 323 323 323 324 323 323 322 321 320 321
318 319 319 320 320 323 324 330 339 340 339 339 340 339 339 338 338 337 337 335 333 332 333 333 330 328 328 325 324 325 323 322 322 321 323 323 322 322 322 322 321 320 320
315 315 316 316 314 315 316 319 320 326 331 335 337 336 336 336 337 336 336 335 333 332 332 331 330 327 326 325 324 324 324 323 322 321 321 322 322 321 322 322 321 320 319